<?xml version="1.0" encoding="UTF-8" standalone="yes"?>
<gpx
 xmlns="http://www.topografix.com/GPX/1/1"
 creator="OziExplorer Version 3956f - http://www.oziexplorer.com"
 version="1.1"
 xmlns:xsi="http://www.w3.org/2001/XMLSchema-instance"
 xsi:schemaLocation="http://www.topografix.com/GPX/1/1 http://www.topografix.com/GPX/1/1/gpx.xsd">
<metadata>
 <time>2021-04-14T13:03:56Z</time>
 <bounds minlat="31.732990" minlon="35.127760" maxlat="31.807840" maxlon="35.234420"/>
</metadata>
<trk>
 <name>SovevJerusalem_35km.700m</name>
 <desc>SovevJerusalem_35km.700m</desc>
<trkseg>
<trkpt lat="31.8006800" lon="35.1898400">
<ele>592.929993</ele>
<time>2021-04-14T16:03:56.910Z</time>
</trkpt>
<trkpt lat="31.8007400" lon="35.1898700">
<ele>593.039978</ele>
<time>2021-04-14T16:03:56.910Z</time>
</trkpt>
<trkpt lat="31.8008000" lon="35.1898900">
<ele>593.179993</ele>
<time>2021-04-14T16:03:56.910Z</time>
</trkpt>
<trkpt lat="31.8008400" lon="35.1899200">
<ele>593.470032</ele>
<time>2021-04-14T16:03:56.910Z</time>
</trkpt>
<trkpt lat="31.8009000" lon="35.1899500">
<ele>594.119995</ele>
<time>2021-04-14T16:03:56.910Z</time>
</trkpt>
<trkpt lat="31.8011400" lon="35.1900500">
<ele>596.890015</ele>
<time>2021-04-14T16:03:56.910Z</time>
</trkpt>
<trkpt lat="31.8011700" lon="35.1900300">
<ele>597.010010</ele>
<time>2021-04-14T16:03:56.910Z</time>
</trkpt>
<trkpt lat="31.8011900" lon="35.1900400">
<ele>597.369995</ele>
<time>2021-04-14T16:03:56.910Z</time>
</trkpt>
<trkpt lat="31.8014800" lon="35.1894000">
<ele>595.280029</ele>
<time>2021-04-14T16:03:56.910Z</time>
</trkpt>
<trkpt lat="31.8015800" lon="35.1892400">
<ele>594.400024</ele>
<time>2021-04-14T16:03:56.910Z</time>
</trkpt>
<trkpt lat="31.8017600" lon="35.1890600">
<ele>594.109985</ele>
<time>2021-04-14T16:03:56.910Z</time>
</trkpt>
<trkpt lat="31.8024800" lon="35.1885700">
<ele>596.630005</ele>
<time>2021-04-14T16:03:56.910Z</time>
</trkpt>
<trkpt lat="31.8025800" lon="35.1884400">
<ele>595.589966</ele>
<time>2021-04-14T16:03:56.910Z</time>
</trkpt>
<trkpt lat="31.8031100" lon="35.1881300">
<ele>592.000000</ele>
<time>2021-04-14T16:03:56.911Z</time>
</trkpt>
<trkpt lat="31.8035000" lon="35.1877200">
<ele>590.650024</ele>
<time>2021-04-14T16:03:56.911Z</time>
</trkpt>
<trkpt lat="31.8040000" lon="35.1873200">
<ele>585.109985</ele>
<time>2021-04-14T16:03:56.911Z</time>
</trkpt>
<trkpt lat="31.8040300" lon="35.1872900">
<ele>584.599976</ele>
<time>2021-04-14T16:03:56.911Z</time>
</trkpt>
<trkpt lat="31.8042800" lon="35.1871500">
<ele>585.640015</ele>
<time>2021-04-14T16:03:56.911Z</time>
</trkpt>
<trkpt lat="31.8044900" lon="35.1870800">
<ele>589.719971</ele>
<time>2021-04-14T16:03:56.911Z</time>
</trkpt>
<trkpt lat="31.8045200" lon="35.1870600">
<ele>590.080017</ele>
<time>2021-04-14T16:03:56.911Z</time>
</trkpt>
<trkpt lat="31.8045600" lon="35.1870100">
<ele>590.450012</ele>
<time>2021-04-14T16:03:56.911Z</time>
</trkpt>
<trkpt lat="31.8046100" lon="35.1869000">
<ele>591.040039</ele>
<time>2021-04-14T16:03:56.911Z</time>
</trkpt>
<trkpt lat="31.8046100" lon="35.1867000">
<ele>591.340027</ele>
<time>2021-04-14T16:03:56.911Z</time>
</trkpt>
<trkpt lat="31.8046300" lon="35.1863900">
<ele>592.669983</ele>
<time>2021-04-14T16:03:56.911Z</time>
</trkpt>
<trkpt lat="31.8046700" lon="35.1858700">
<ele>593.250000</ele>
<time>2021-04-14T16:03:56.911Z</time>
</trkpt>
<trkpt lat="31.8046900" lon="35.1857100">
<ele>592.580017</ele>
<time>2021-04-14T16:03:56.911Z</time>
</trkpt>
<trkpt lat="31.8047200" lon="35.1855800">
<ele>592.140015</ele>
<time>2021-04-14T16:03:56.911Z</time>
</trkpt>
<trkpt lat="31.8047700" lon="35.1853900">
<ele>591.590027</ele>
<time>2021-04-14T16:03:56.911Z</time>
</trkpt>
<trkpt lat="31.8048000" lon="35.1852300">
<ele>590.900024</ele>
<time>2021-04-14T16:03:56.911Z</time>
</trkpt>
<trkpt lat="31.8048000" lon="35.1847500">
<ele>588.739990</ele>
<time>2021-04-14T16:03:56.911Z</time>
</trkpt>
<trkpt lat="31.8048300" lon="35.1842400">
<ele>589.229980</ele>
<time>2021-04-14T16:03:56.911Z</time>
</trkpt>
<trkpt lat="31.8048400" lon="35.1834200">
<ele>582.500000</ele>
<time>2021-04-14T16:03:56.911Z</time>
</trkpt>
<trkpt lat="31.8048700" lon="35.1830900">
<ele>582.590027</ele>
<time>2021-04-14T16:03:56.911Z</time>
</trkpt>
<trkpt lat="31.8049300" lon="35.1827200">
<ele>585.539978</ele>
<time>2021-04-14T16:03:56.912Z</time>
</trkpt>
<trkpt lat="31.8050000" lon="35.1823000">
<ele>587.000000</ele>
<time>2021-04-14T16:03:56.912Z</time>
</trkpt>
<trkpt lat="31.8050000" lon="35.1821700">
<ele>587.190002</ele>
<time>2021-04-14T16:03:56.912Z</time>
</trkpt>
<trkpt lat="31.8049200" lon="35.1818800">
<ele>587.309998</ele>
<time>2021-04-14T16:03:56.912Z</time>
</trkpt>
<trkpt lat="31.8048900" lon="35.1815900">
<ele>588.640015</ele>
<time>2021-04-14T16:03:56.912Z</time>
</trkpt>
<trkpt lat="31.8048300" lon="35.1813000">
<ele>587.640015</ele>
<time>2021-04-14T16:03:56.912Z</time>
</trkpt>
<trkpt lat="31.8047500" lon="35.1811200">
<ele>584.929993</ele>
<time>2021-04-14T16:03:56.912Z</time>
</trkpt>
<trkpt lat="31.8045200" lon="35.1807500">
<ele>584.469971</ele>
<time>2021-04-14T16:03:56.912Z</time>
</trkpt>
<trkpt lat="31.8043700" lon="35.1805900">
<ele>583.950012</ele>
<time>2021-04-14T16:03:56.912Z</time>
</trkpt>
<trkpt lat="31.8043100" lon="35.1802900">
<ele>586.889954</ele>
<time>2021-04-14T16:03:56.912Z</time>
</trkpt>
<trkpt lat="31.8042800" lon="35.1802200">
<ele>587.510010</ele>
<time>2021-04-14T16:03:56.912Z</time>
</trkpt>
<trkpt lat="31.8042000" lon="35.1801000">
<ele>587.630005</ele>
<time>2021-04-14T16:03:56.912Z</time>
</trkpt>
<trkpt lat="31.8040100" lon="35.1799000">
<ele>587.390015</ele>
<time>2021-04-14T16:03:56.912Z</time>
</trkpt>
<trkpt lat="31.8038900" lon="35.1797200">
<ele>587.000000</ele>
<time>2021-04-14T16:03:56.912Z</time>
</trkpt>
<trkpt lat="31.8033700" lon="35.1788200">
<ele>585.479980</ele>
<time>2021-04-14T16:03:56.912Z</time>
</trkpt>
<trkpt lat="31.8033000" lon="35.1786500">
<ele>583.919983</ele>
<time>2021-04-14T16:03:56.912Z</time>
</trkpt>
<trkpt lat="31.8031200" lon="35.1781300">
<ele>582.720032</ele>
<time>2021-04-14T16:03:56.912Z</time>
</trkpt>
<trkpt lat="31.8030800" lon="35.1778500">
<ele>581.679993</ele>
<time>2021-04-14T16:03:56.912Z</time>
</trkpt>
<trkpt lat="31.8030700" lon="35.1776900">
<ele>580.609985</ele>
<time>2021-04-14T16:03:56.912Z</time>
</trkpt>
<trkpt lat="31.8030900" lon="35.1774800">
<ele>579.340027</ele>
<time>2021-04-14T16:03:56.912Z</time>
</trkpt>
<trkpt lat="31.8032300" lon="35.1771600">
<ele>578.520020</ele>
<time>2021-04-14T16:03:56.912Z</time>
</trkpt>
<trkpt lat="31.8032700" lon="35.1771100">
<ele>578.599976</ele>
<time>2021-04-14T16:03:56.912Z</time>
</trkpt>
<trkpt lat="31.8034100" lon="35.1766600">
<ele>579.350037</ele>
<time>2021-04-14T16:03:56.912Z</time>
</trkpt>
<trkpt lat="31.8036700" lon="35.1761300">
<ele>581.559998</ele>
<time>2021-04-14T16:03:56.912Z</time>
</trkpt>
<trkpt lat="31.8037900" lon="35.1757500">
<ele>579.149963</ele>
<time>2021-04-14T16:03:56.912Z</time>
</trkpt>
<trkpt lat="31.8041100" lon="35.1749400">
<ele>571.149963</ele>
<time>2021-04-14T16:03:56.912Z</time>
</trkpt>
<trkpt lat="31.8042400" lon="35.1747100">
<ele>568.919983</ele>
<time>2021-04-14T16:03:56.912Z</time>
</trkpt>
<trkpt lat="31.8044300" lon="35.1744100">
<ele>568.669983</ele>
<time>2021-04-14T16:03:56.912Z</time>
</trkpt>
<trkpt lat="31.8046200" lon="35.1741000">
<ele>571.730042</ele>
<time>2021-04-14T16:03:56.912Z</time>
</trkpt>
<trkpt lat="31.8049300" lon="35.1734000">
<ele>568.169983</ele>
<time>2021-04-14T16:03:56.912Z</time>
</trkpt>
<trkpt lat="31.8049300" lon="35.1733000">
<ele>567.510010</ele>
<time>2021-04-14T16:03:56.912Z</time>
</trkpt>
<trkpt lat="31.8049200" lon="35.1732300">
<ele>566.970032</ele>
<time>2021-04-14T16:03:56.912Z</time>
</trkpt>
<trkpt lat="31.8046900" lon="35.1729800">
<ele>565.159973</ele>
<time>2021-04-14T16:03:56.912Z</time>
</trkpt>
<trkpt lat="31.8046100" lon="35.1729300">
<ele>565.049988</ele>
<time>2021-04-14T16:03:56.912Z</time>
</trkpt>
<trkpt lat="31.8045500" lon="35.1728900">
<ele>564.979980</ele>
<time>2021-04-14T16:03:56.912Z</time>
</trkpt>
<trkpt lat="31.8044100" lon="35.1728600">
<ele>564.630005</ele>
<time>2021-04-14T16:03:56.912Z</time>
</trkpt>
<trkpt lat="31.8041600" lon="35.1728100">
<ele>564.750000</ele>
<time>2021-04-14T16:03:56.913Z</time>
</trkpt>
<trkpt lat="31.8038500" lon="35.1726900">
<ele>569.039978</ele>
<time>2021-04-14T16:03:56.913Z</time>
</trkpt>
<trkpt lat="31.8036600" lon="35.1725800">
<ele>569.590027</ele>
<time>2021-04-14T16:03:56.913Z</time>
</trkpt>
<trkpt lat="31.8030800" lon="35.1720700">
<ele>573.039978</ele>
<time>2021-04-14T16:03:56.913Z</time>
</trkpt>
<trkpt lat="31.8029300" lon="35.1719800">
<ele>573.790039</ele>
<time>2021-04-14T16:03:56.913Z</time>
</trkpt>
<trkpt lat="31.8028900" lon="35.1719600">
<ele>574.130005</ele>
<time>2021-04-14T16:03:56.913Z</time>
</trkpt>
<trkpt lat="31.8027700" lon="35.1719000">
<ele>575.079956</ele>
<time>2021-04-14T16:03:56.913Z</time>
</trkpt>
<trkpt lat="31.8026200" lon="35.1718500">
<ele>573.640015</ele>
<time>2021-04-14T16:03:56.913Z</time>
</trkpt>
<trkpt lat="31.8018700" lon="35.1716600">
<ele>569.429993</ele>
<time>2021-04-14T16:03:56.913Z</time>
</trkpt>
<trkpt lat="31.8015100" lon="35.1715600">
<ele>563.850037</ele>
<time>2021-04-14T16:03:56.913Z</time>
</trkpt>
<trkpt lat="31.8015200" lon="35.1714100">
<ele>562.979980</ele>
<time>2021-04-14T16:03:56.913Z</time>
</trkpt>
<trkpt lat="31.8015300" lon="35.1713100">
<ele>562.900024</ele>
<time>2021-04-14T16:03:56.913Z</time>
</trkpt>
<trkpt lat="31.8015400" lon="35.1712100">
<ele>562.859985</ele>
<time>2021-04-14T16:03:56.913Z</time>
</trkpt>
<trkpt lat="31.8015500" lon="35.1710600">
<ele>563.059998</ele>
<time>2021-04-14T16:03:56.913Z</time>
</trkpt>
<trkpt lat="31.8015200" lon="35.1709700">
<ele>563.140015</ele>
<time>2021-04-14T16:03:56.913Z</time>
</trkpt>
<trkpt lat="31.8014600" lon="35.1708700">
<ele>562.429993</ele>
<time>2021-04-14T16:03:56.913Z</time>
</trkpt>
<trkpt lat="31.8014400" lon="35.1708400">
<ele>562.090027</ele>
<time>2021-04-14T16:03:56.913Z</time>
</trkpt>
<trkpt lat="31.8014100" lon="35.1707800">
<ele>562.210022</ele>
<time>2021-04-14T16:03:56.913Z</time>
</trkpt>
<trkpt lat="31.8011800" lon="35.1706300">
<ele>564.530029</ele>
<time>2021-04-14T16:03:56.913Z</time>
</trkpt>
<trkpt lat="31.8010400" lon="35.1706200">
<ele>565.159973</ele>
<time>2021-04-14T16:03:56.913Z</time>
</trkpt>
<trkpt lat="31.8009000" lon="35.1706100">
<ele>566.030029</ele>
<time>2021-04-14T16:03:56.913Z</time>
</trkpt>
<trkpt lat="31.8008100" lon="35.1705900">
<ele>566.380005</ele>
<time>2021-04-14T16:03:56.913Z</time>
</trkpt>
<trkpt lat="31.8002400" lon="35.1704800">
<ele>563.070007</ele>
<time>2021-04-14T16:03:56.913Z</time>
</trkpt>
<trkpt lat="31.8000600" lon="35.1704100">
<ele>566.049988</ele>
<time>2021-04-14T16:03:56.913Z</time>
</trkpt>
<trkpt lat="31.7996500" lon="35.1701900">
<ele>569.609985</ele>
<time>2021-04-14T16:03:56.913Z</time>
</trkpt>
<trkpt lat="31.7994600" lon="35.1700000">
<ele>570.109985</ele>
<time>2021-04-14T16:03:56.913Z</time>
</trkpt>
<trkpt lat="31.7988100" lon="35.1696600">
<ele>570.500000</ele>
<time>2021-04-14T16:03:56.913Z</time>
</trkpt>
<trkpt lat="31.7987500" lon="35.1696000">
<ele>570.380005</ele>
<time>2021-04-14T16:03:56.914Z</time>
</trkpt>
<trkpt lat="31.7984800" lon="35.1696000">
<ele>569.059998</ele>
<time>2021-04-14T16:03:56.914Z</time>
</trkpt>
<trkpt lat="31.7983300" lon="35.1697700">
<ele>566.500000</ele>
<time>2021-04-14T16:03:56.914Z</time>
</trkpt>
<trkpt lat="31.7982600" lon="35.1698300">
<ele>566.200012</ele>
<time>2021-04-14T16:03:56.914Z</time>
</trkpt>
<trkpt lat="31.7981900" lon="35.1698700">
<ele>566.190002</ele>
<time>2021-04-14T16:03:56.915Z</time>
</trkpt>
<trkpt lat="31.7980500" lon="35.1699900">
<ele>566.130005</ele>
<time>2021-04-14T16:03:56.915Z</time>
</trkpt>
<trkpt lat="31.7979900" lon="35.1700000">
<ele>566.710022</ele>
<time>2021-04-14T16:03:56.915Z</time>
</trkpt>
<trkpt lat="31.7979400" lon="35.1699900">
<ele>567.289978</ele>
<time>2021-04-14T16:03:56.915Z</time>
</trkpt>
<trkpt lat="31.7976300" lon="35.1697100">
<ele>569.080017</ele>
<time>2021-04-14T16:03:56.915Z</time>
</trkpt>
<trkpt lat="31.7975000" lon="35.1695500">
<ele>569.000000</ele>
<time>2021-04-14T16:03:56.915Z</time>
</trkpt>
<trkpt lat="31.7973800" lon="35.1694200">
<ele>568.200012</ele>
<time>2021-04-14T16:03:56.915Z</time>
</trkpt>
<trkpt lat="31.7973000" lon="35.1693700">
<ele>567.520020</ele>
<time>2021-04-14T16:03:56.915Z</time>
</trkpt>
<trkpt lat="31.7972400" lon="35.1693300">
<ele>566.799988</ele>
<time>2021-04-14T16:03:56.915Z</time>
</trkpt>
<trkpt lat="31.7971000" lon="35.1691800">
<ele>564.390015</ele>
<time>2021-04-14T16:03:56.915Z</time>
</trkpt>
<trkpt lat="31.7970400" lon="35.1690900">
<ele>563.380005</ele>
<time>2021-04-14T16:03:56.915Z</time>
</trkpt>
<trkpt lat="31.7969800" lon="35.1690700">
<ele>562.510010</ele>
<time>2021-04-14T16:03:56.915Z</time>
</trkpt>
<trkpt lat="31.7969100" lon="35.1690500">
<ele>562.090027</ele>
<time>2021-04-14T16:03:56.915Z</time>
</trkpt>
<trkpt lat="31.7967500" lon="35.1689900">
<ele>562.059998</ele>
<time>2021-04-14T16:03:56.915Z</time>
</trkpt>
<trkpt lat="31.7966700" lon="35.1687000">
<ele>559.669983</ele>
<time>2021-04-14T16:03:56.915Z</time>
</trkpt>
<trkpt lat="31.7966600" lon="35.1685900">
<ele>559.039978</ele>
<time>2021-04-14T16:03:56.915Z</time>
</trkpt>
<trkpt lat="31.7966800" lon="35.1684700">
<ele>559.239990</ele>
<time>2021-04-14T16:03:56.915Z</time>
</trkpt>
<trkpt lat="31.7966700" lon="35.1683600">
<ele>559.080017</ele>
<time>2021-04-14T16:03:56.915Z</time>
</trkpt>
<trkpt lat="31.7966600" lon="35.1682600">
<ele>560.010010</ele>
<time>2021-04-14T16:03:56.915Z</time>
</trkpt>
<trkpt lat="31.7965900" lon="35.1681400">
<ele>560.739990</ele>
<time>2021-04-14T16:03:56.915Z</time>
</trkpt>
<trkpt lat="31.7965500" lon="35.1679800">
<ele>561.059998</ele>
<time>2021-04-14T16:03:56.915Z</time>
</trkpt>
<trkpt lat="31.7965000" lon="35.1678000">
<ele>560.369995</ele>
<time>2021-04-14T16:03:56.915Z</time>
</trkpt>
<trkpt lat="31.7963800" lon="35.1674100">
<ele>559.640015</ele>
<time>2021-04-14T16:03:56.915Z</time>
</trkpt>
<trkpt lat="31.7963600" lon="35.1672400">
<ele>560.770020</ele>
<time>2021-04-14T16:03:56.915Z</time>
</trkpt>
<trkpt lat="31.7963200" lon="35.1670000">
<ele>562.149963</ele>
<time>2021-04-14T16:03:56.916Z</time>
</trkpt>
<trkpt lat="31.7963000" lon="35.1668800">
<ele>563.070007</ele>
<time>2021-04-14T16:03:56.916Z</time>
</trkpt>
<trkpt lat="31.7962800" lon="35.1668100">
<ele>563.580017</ele>
<time>2021-04-14T16:03:56.916Z</time>
</trkpt>
<trkpt lat="31.7961500" lon="35.1665600">
<ele>563.960022</ele>
<time>2021-04-14T16:03:56.916Z</time>
</trkpt>
<trkpt lat="31.7960500" lon="35.1663500">
<ele>564.179993</ele>
<time>2021-04-14T16:03:56.916Z</time>
</trkpt>
<trkpt lat="31.7959600" lon="35.1662500">
<ele>563.190002</ele>
<time>2021-04-14T16:03:56.916Z</time>
</trkpt>
<trkpt lat="31.7959000" lon="35.1662200">
<ele>561.950012</ele>
<time>2021-04-14T16:03:56.916Z</time>
</trkpt>
<trkpt lat="31.7955600" lon="35.1661500">
<ele>555.940002</ele>
<time>2021-04-14T16:03:56.916Z</time>
</trkpt>
<trkpt lat="31.7954600" lon="35.1661900">
<ele>555.369995</ele>
<time>2021-04-14T16:03:56.916Z</time>
</trkpt>
<trkpt lat="31.7952700" lon="35.1663900">
<ele>553.989990</ele>
<time>2021-04-14T16:03:56.916Z</time>
</trkpt>
<trkpt lat="31.7950500" lon="35.1665800">
<ele>556.619995</ele>
<time>2021-04-14T16:03:56.916Z</time>
</trkpt>
<trkpt lat="31.7949700" lon="35.1666100">
<ele>557.460022</ele>
<time>2021-04-14T16:03:56.916Z</time>
</trkpt>
<trkpt lat="31.7948300" lon="35.1664700">
<ele>557.770020</ele>
<time>2021-04-14T16:03:56.916Z</time>
</trkpt>
<trkpt lat="31.7945700" lon="35.1662900">
<ele>561.030029</ele>
<time>2021-04-14T16:03:56.916Z</time>
</trkpt>
<trkpt lat="31.7943500" lon="35.1662000">
<ele>561.619995</ele>
<time>2021-04-14T16:03:56.916Z</time>
</trkpt>
<trkpt lat="31.7942600" lon="35.1661900">
<ele>560.580017</ele>
<time>2021-04-14T16:03:56.916Z</time>
</trkpt>
<trkpt lat="31.7938700" lon="35.1661800">
<ele>558.270020</ele>
<time>2021-04-14T16:03:56.916Z</time>
</trkpt>
<trkpt lat="31.7936800" lon="35.1661900">
<ele>558.849976</ele>
<time>2021-04-14T16:03:56.916Z</time>
</trkpt>
<trkpt lat="31.7936100" lon="35.1661800">
<ele>558.729980</ele>
<time>2021-04-14T16:03:56.916Z</time>
</trkpt>
<trkpt lat="31.7935700" lon="35.1661800">
<ele>558.550049</ele>
<time>2021-04-14T16:03:56.916Z</time>
</trkpt>
<trkpt lat="31.7934500" lon="35.1661500">
<ele>557.570007</ele>
<time>2021-04-14T16:03:56.916Z</time>
</trkpt>
<trkpt lat="31.7932900" lon="35.1660500">
<ele>555.529968</ele>
<time>2021-04-14T16:03:56.916Z</time>
</trkpt>
<trkpt lat="31.7930400" lon="35.1659500">
<ele>551.480042</ele>
<time>2021-04-14T16:03:56.916Z</time>
</trkpt>
<trkpt lat="31.7928800" lon="35.1659100">
<ele>553.070007</ele>
<time>2021-04-14T16:03:56.916Z</time>
</trkpt>
<trkpt lat="31.7928100" lon="35.1658500">
<ele>552.940002</ele>
<time>2021-04-14T16:03:56.916Z</time>
</trkpt>
<trkpt lat="31.7926700" lon="35.1657800">
<ele>553.929993</ele>
<time>2021-04-14T16:03:56.916Z</time>
</trkpt>
<trkpt lat="31.7925500" lon="35.1657500">
<ele>555.349976</ele>
<time>2021-04-14T16:03:56.916Z</time>
</trkpt>
<trkpt lat="31.7924500" lon="35.1657500">
<ele>557.210022</ele>
<time>2021-04-14T16:03:56.917Z</time>
</trkpt>
<trkpt lat="31.7923300" lon="35.1657800">
<ele>560.169983</ele>
<time>2021-04-14T16:03:56.917Z</time>
</trkpt>
<trkpt lat="31.7921300" lon="35.1659700">
<ele>560.349976</ele>
<time>2021-04-14T16:03:56.917Z</time>
</trkpt>
<trkpt lat="31.7920900" lon="35.1660600">
<ele>558.940002</ele>
<time>2021-04-14T16:03:56.917Z</time>
</trkpt>
<trkpt lat="31.7919900" lon="35.1662400">
<ele>554.979980</ele>
<time>2021-04-14T16:03:56.917Z</time>
</trkpt>
<trkpt lat="31.7920600" lon="35.1663000">
<ele>556.719971</ele>
<time>2021-04-14T16:03:56.917Z</time>
</trkpt>
<trkpt lat="31.7921300" lon="35.1663500">
<ele>558.820007</ele>
<time>2021-04-14T16:03:56.917Z</time>
</trkpt>
<trkpt lat="31.7921900" lon="35.1664000">
<ele>560.809998</ele>
<time>2021-04-14T16:03:56.917Z</time>
</trkpt>
<trkpt lat="31.7921900" lon="35.1664700">
<ele>560.649963</ele>
<time>2021-04-14T16:03:56.917Z</time>
</trkpt>
<trkpt lat="31.7920500" lon="35.1665500">
<ele>556.299988</ele>
<time>2021-04-14T16:03:56.917Z</time>
</trkpt>
<trkpt lat="31.7919700" lon="35.1665600">
<ele>553.979980</ele>
<time>2021-04-14T16:03:56.917Z</time>
</trkpt>
<trkpt lat="31.7915800" lon="35.1665500">
<ele>546.510010</ele>
<time>2021-04-14T16:03:56.917Z</time>
</trkpt>
<trkpt lat="31.7910600" lon="35.1665500">
<ele>548.210022</ele>
<time>2021-04-14T16:03:56.917Z</time>
</trkpt>
<trkpt lat="31.7907900" lon="35.1664900">
<ele>549.130005</ele>
<time>2021-04-14T16:03:56.917Z</time>
</trkpt>
<trkpt lat="31.7906700" lon="35.1664400">
<ele>552.519958</ele>
<time>2021-04-14T16:03:56.917Z</time>
</trkpt>
<trkpt lat="31.7903500" lon="35.1663400">
<ele>559.920044</ele>
<time>2021-04-14T16:03:56.917Z</time>
</trkpt>
<trkpt lat="31.7900500" lon="35.1662100">
<ele>559.020020</ele>
<time>2021-04-14T16:03:56.917Z</time>
</trkpt>
<trkpt lat="31.7900200" lon="35.1661900">
<ele>558.649963</ele>
<time>2021-04-14T16:03:56.917Z</time>
</trkpt>
<trkpt lat="31.7897100" lon="35.1659800">
<ele>554.350037</ele>
<time>2021-04-14T16:03:56.917Z</time>
</trkpt>
<trkpt lat="31.7893600" lon="35.1656800">
<ele>559.109985</ele>
<time>2021-04-14T16:03:56.917Z</time>
</trkpt>
<trkpt lat="31.7890800" lon="35.1655300">
<ele>562.570007</ele>
<time>2021-04-14T16:03:56.917Z</time>
</trkpt>
<trkpt lat="31.7890000" lon="35.1654400">
<ele>563.669983</ele>
<time>2021-04-14T16:03:56.917Z</time>
</trkpt>
<trkpt lat="31.7881600" lon="35.1647100">
<ele>567.049988</ele>
<time>2021-04-14T16:03:56.917Z</time>
</trkpt>
<trkpt lat="31.7879800" lon="35.1643800">
<ele>559.669983</ele>
<time>2021-04-14T16:03:56.917Z</time>
</trkpt>
<trkpt lat="31.7878400" lon="35.1641800">
<ele>556.029968</ele>
<time>2021-04-14T16:03:56.917Z</time>
</trkpt>
<trkpt lat="31.7877000" lon="35.1640500">
<ele>556.349976</ele>
<time>2021-04-14T16:03:56.917Z</time>
</trkpt>
<trkpt lat="31.7874000" lon="35.1636200">
<ele>555.160034</ele>
<time>2021-04-14T16:03:56.917Z</time>
</trkpt>
<trkpt lat="31.7870700" lon="35.1630700">
<ele>553.739990</ele>
<time>2021-04-14T16:03:56.918Z</time>
</trkpt>
<trkpt lat="31.7870000" lon="35.1627500">
<ele>552.599976</ele>
<time>2021-04-14T16:03:56.918Z</time>
</trkpt>
<trkpt lat="31.7869600" lon="35.1627100">
<ele>552.739990</ele>
<time>2021-04-14T16:03:56.918Z</time>
</trkpt>
<trkpt lat="31.7869400" lon="35.1626800">
<ele>552.609985</ele>
<time>2021-04-14T16:03:56.918Z</time>
</trkpt>
<trkpt lat="31.7868400" lon="35.1626300">
<ele>552.250000</ele>
<time>2021-04-14T16:03:56.918Z</time>
</trkpt>
<trkpt lat="31.7865500" lon="35.1625800">
<ele>553.830017</ele>
<time>2021-04-14T16:03:56.918Z</time>
</trkpt>
<trkpt lat="31.7863000" lon="35.1624600">
<ele>554.610046</ele>
<time>2021-04-14T16:03:56.918Z</time>
</trkpt>
<trkpt lat="31.7860300" lon="35.1623300">
<ele>554.650024</ele>
<time>2021-04-14T16:03:56.918Z</time>
</trkpt>
<trkpt lat="31.7859700" lon="35.1622200">
<ele>554.520020</ele>
<time>2021-04-14T16:03:56.918Z</time>
</trkpt>
<trkpt lat="31.7859600" lon="35.1621000">
<ele>554.190002</ele>
<time>2021-04-14T16:03:56.918Z</time>
</trkpt>
<trkpt lat="31.7859700" lon="35.1618700">
<ele>553.390015</ele>
<time>2021-04-14T16:03:56.918Z</time>
</trkpt>
<trkpt lat="31.7859900" lon="35.1615100">
<ele>552.549988</ele>
<time>2021-04-14T16:03:56.918Z</time>
</trkpt>
<trkpt lat="31.7860000" lon="35.1613800">
<ele>552.200012</ele>
<time>2021-04-14T16:03:56.918Z</time>
</trkpt>
<trkpt lat="31.7859900" lon="35.1612800">
<ele>552.309998</ele>
<time>2021-04-14T16:03:56.918Z</time>
</trkpt>
<trkpt lat="31.7859200" lon="35.1607500">
<ele>553.219971</ele>
<time>2021-04-14T16:03:56.918Z</time>
</trkpt>
<trkpt lat="31.7854900" lon="35.1591300">
<ele>559.049988</ele>
<time>2021-04-14T16:03:56.918Z</time>
</trkpt>
<trkpt lat="31.7853500" lon="35.1583500">
<ele>552.940002</ele>
<time>2021-04-14T16:03:56.918Z</time>
</trkpt>
<trkpt lat="31.7852400" lon="35.1579000">
<ele>550.889954</ele>
<time>2021-04-14T16:03:56.918Z</time>
</trkpt>
<trkpt lat="31.7850400" lon="35.1572300">
<ele>550.760010</ele>
<time>2021-04-14T16:03:56.918Z</time>
</trkpt>
<trkpt lat="31.7844500" lon="35.1562700">
<ele>550.889954</ele>
<time>2021-04-14T16:03:56.918Z</time>
</trkpt>
<trkpt lat="31.7842800" lon="35.1560900">
<ele>550.159973</ele>
<time>2021-04-14T16:03:56.918Z</time>
</trkpt>
<trkpt lat="31.7838700" lon="35.1557600">
<ele>551.309998</ele>
<time>2021-04-14T16:03:56.918Z</time>
</trkpt>
<trkpt lat="31.7835400" lon="35.1556000">
<ele>550.260010</ele>
<time>2021-04-14T16:03:56.918Z</time>
</trkpt>
<trkpt lat="31.7832700" lon="35.1555200">
<ele>547.460022</ele>
<time>2021-04-14T16:03:56.918Z</time>
</trkpt>
<trkpt lat="31.7830000" lon="35.1555200">
<ele>548.760010</ele>
<time>2021-04-14T16:03:56.918Z</time>
</trkpt>
<trkpt lat="31.7827100" lon="35.1555200">
<ele>550.239990</ele>
<time>2021-04-14T16:03:56.918Z</time>
</trkpt>
<trkpt lat="31.7823100" lon="35.1555600">
<ele>547.030029</ele>
<time>2021-04-14T16:03:56.919Z</time>
</trkpt>
<trkpt lat="31.7820900" lon="35.1556400">
<ele>545.640015</ele>
<time>2021-04-14T16:03:56.919Z</time>
</trkpt>
<trkpt lat="31.7811600" lon="35.1561000">
<ele>546.320007</ele>
<time>2021-04-14T16:03:56.919Z</time>
</trkpt>
<trkpt lat="31.7808300" lon="35.1563200">
<ele>546.179993</ele>
<time>2021-04-14T16:03:56.919Z</time>
</trkpt>
<trkpt lat="31.7804700" lon="35.1566100">
<ele>540.049988</ele>
<time>2021-04-14T16:03:56.919Z</time>
</trkpt>
<trkpt lat="31.7803300" lon="35.1566900">
<ele>537.080017</ele>
<time>2021-04-14T16:03:56.919Z</time>
</trkpt>
<trkpt lat="31.7802700" lon="35.1567300">
<ele>536.460022</ele>
<time>2021-04-14T16:03:56.919Z</time>
</trkpt>
<trkpt lat="31.7791900" lon="35.1571700">
<ele>528.739990</ele>
<time>2021-04-14T16:03:56.919Z</time>
</trkpt>
<trkpt lat="31.7789100" lon="35.1572700">
<ele>524.450012</ele>
<time>2021-04-14T16:03:56.919Z</time>
</trkpt>
<trkpt lat="31.7784500" lon="35.1575100">
<ele>522.260010</ele>
<time>2021-04-14T16:03:56.919Z</time>
</trkpt>
<trkpt lat="31.7781400" lon="35.1576500">
<ele>520.929993</ele>
<time>2021-04-14T16:03:56.919Z</time>
</trkpt>
<trkpt lat="31.7766500" lon="35.1581300">
<ele>518.250000</ele>
<time>2021-04-14T16:03:56.919Z</time>
</trkpt>
<trkpt lat="31.7763600" lon="35.1581700">
<ele>521.419983</ele>
<time>2021-04-14T16:03:56.919Z</time>
</trkpt>
<trkpt lat="31.7760500" lon="35.1582000">
<ele>519.410034</ele>
<time>2021-04-14T16:03:56.919Z</time>
</trkpt>
<trkpt lat="31.7758900" lon="35.1582000">
<ele>519.140015</ele>
<time>2021-04-14T16:03:56.919Z</time>
</trkpt>
<trkpt lat="31.7751100" lon="35.1581200">
<ele>524.210022</ele>
<time>2021-04-14T16:03:56.919Z</time>
</trkpt>
<trkpt lat="31.7748700" lon="35.1580500">
<ele>530.200012</ele>
<time>2021-04-14T16:03:56.919Z</time>
</trkpt>
<trkpt lat="31.7744900" lon="35.1578100">
<ele>538.539978</ele>
<time>2021-04-14T16:03:56.919Z</time>
</trkpt>
<trkpt lat="31.7740400" lon="35.1573600">
<ele>535.399963</ele>
<time>2021-04-14T16:03:56.919Z</time>
</trkpt>
<trkpt lat="31.7739700" lon="35.1572800">
<ele>534.559998</ele>
<time>2021-04-14T16:03:56.919Z</time>
</trkpt>
<trkpt lat="31.7737400" lon="35.1569400">
<ele>529.929993</ele>
<time>2021-04-14T16:03:56.919Z</time>
</trkpt>
<trkpt lat="31.7735700" lon="35.1565500">
<ele>528.580017</ele>
<time>2021-04-14T16:03:56.919Z</time>
</trkpt>
<trkpt lat="31.7734700" lon="35.1562300">
<ele>528.000000</ele>
<time>2021-04-14T16:03:56.919Z</time>
</trkpt>
<trkpt lat="31.7733900" lon="35.1558600">
<ele>527.820007</ele>
<time>2021-04-14T16:03:56.919Z</time>
</trkpt>
<trkpt lat="31.7733700" lon="35.1554400">
<ele>524.789978</ele>
<time>2021-04-14T16:03:56.919Z</time>
</trkpt>
<trkpt lat="31.7733700" lon="35.1549000">
<ele>523.220032</ele>
<time>2021-04-14T16:03:56.919Z</time>
</trkpt>
<trkpt lat="31.7733700" lon="35.1546300">
<ele>523.090027</ele>
<time>2021-04-14T16:03:56.920Z</time>
</trkpt>
<trkpt lat="31.7733800" lon="35.1541400">
<ele>522.239990</ele>
<time>2021-04-14T16:03:56.920Z</time>
</trkpt>
<trkpt lat="31.7734000" lon="35.1541000">
<ele>522.239990</ele>
<time>2021-04-14T16:03:56.920Z</time>
</trkpt>
<trkpt lat="31.7734300" lon="35.1540100">
<ele>522.130005</ele>
<time>2021-04-14T16:03:56.920Z</time>
</trkpt>
<trkpt lat="31.7735300" lon="35.1537300">
<ele>522.010010</ele>
<time>2021-04-14T16:03:56.920Z</time>
</trkpt>
<trkpt lat="31.7735800" lon="35.1536200">
<ele>521.919983</ele>
<time>2021-04-14T16:03:56.920Z</time>
</trkpt>
<trkpt lat="31.7735400" lon="35.1535400">
<ele>521.549988</ele>
<time>2021-04-14T16:03:56.920Z</time>
</trkpt>
<trkpt lat="31.7733600" lon="35.1533600">
<ele>521.010010</ele>
<time>2021-04-14T16:03:56.920Z</time>
</trkpt>
<trkpt lat="31.7728300" lon="35.1537100">
<ele>518.600037</ele>
<time>2021-04-14T16:03:56.920Z</time>
</trkpt>
<trkpt lat="31.7724500" lon="35.1538700">
<ele>521.520020</ele>
<time>2021-04-14T16:03:56.920Z</time>
</trkpt>
<trkpt lat="31.7724100" lon="35.1538700">
<ele>522.049988</ele>
<time>2021-04-14T16:03:56.920Z</time>
</trkpt>
<trkpt lat="31.7720000" lon="35.1538900">
<ele>523.409973</ele>
<time>2021-04-14T16:03:56.920Z</time>
</trkpt>
<trkpt lat="31.7709700" lon="35.1538900">
<ele>534.010010</ele>
<time>2021-04-14T16:03:56.920Z</time>
</trkpt>
<trkpt lat="31.7708000" lon="35.1538900">
<ele>534.010010</ele>
<time>2021-04-14T16:03:56.920Z</time>
</trkpt>
<trkpt lat="31.7706600" lon="35.1539000">
<ele>534.109985</ele>
<time>2021-04-14T16:03:56.920Z</time>
</trkpt>
<trkpt lat="31.7705600" lon="35.1539100">
<ele>534.299988</ele>
<time>2021-04-14T16:03:56.920Z</time>
</trkpt>
<trkpt lat="31.7705000" lon="35.1539400">
<ele>534.700012</ele>
<time>2021-04-14T16:03:56.920Z</time>
</trkpt>
<trkpt lat="31.7704500" lon="35.1539700">
<ele>535.059998</ele>
<time>2021-04-14T16:03:56.920Z</time>
</trkpt>
<trkpt lat="31.7703900" lon="35.1540100">
<ele>535.479980</ele>
<time>2021-04-14T16:03:56.920Z</time>
</trkpt>
<trkpt lat="31.7702200" lon="35.1541200">
<ele>537.049988</ele>
<time>2021-04-14T16:03:56.920Z</time>
</trkpt>
<trkpt lat="31.7701900" lon="35.1541500">
<ele>537.530029</ele>
<time>2021-04-14T16:03:56.920Z</time>
</trkpt>
<trkpt lat="31.7701300" lon="35.1541500">
<ele>538.010010</ele>
<time>2021-04-14T16:03:56.920Z</time>
</trkpt>
<trkpt lat="31.7700800" lon="35.1541500">
<ele>538.409973</ele>
<time>2021-04-14T16:03:56.920Z</time>
</trkpt>
<trkpt lat="31.7699800" lon="35.1541100">
<ele>539.510010</ele>
<time>2021-04-14T16:03:56.920Z</time>
</trkpt>
<trkpt lat="31.7699200" lon="35.1540500">
<ele>540.690002</ele>
<time>2021-04-14T16:03:56.920Z</time>
</trkpt>
<trkpt lat="31.7699000" lon="35.1539900">
<ele>541.299988</ele>
<time>2021-04-14T16:03:56.920Z</time>
</trkpt>
<trkpt lat="31.7698800" lon="35.1538600">
<ele>542.320007</ele>
<time>2021-04-14T16:03:56.921Z</time>
</trkpt>
<trkpt lat="31.7698800" lon="35.1536300">
<ele>543.619995</ele>
<time>2021-04-14T16:03:56.921Z</time>
</trkpt>
<trkpt lat="31.7698900" lon="35.1535200">
<ele>543.710022</ele>
<time>2021-04-14T16:03:56.921Z</time>
</trkpt>
<trkpt lat="31.7699000" lon="35.1534400">
<ele>543.659973</ele>
<time>2021-04-14T16:03:56.921Z</time>
</trkpt>
<trkpt lat="31.7699500" lon="35.1533200">
<ele>543.029968</ele>
<time>2021-04-14T16:03:56.921Z</time>
</trkpt>
<trkpt lat="31.7700100" lon="35.1532100">
<ele>543.269958</ele>
<time>2021-04-14T16:03:56.921Z</time>
</trkpt>
<trkpt lat="31.7700500" lon="35.1531000">
<ele>544.429993</ele>
<time>2021-04-14T16:03:56.921Z</time>
</trkpt>
<trkpt lat="31.7700300" lon="35.1529100">
<ele>545.750000</ele>
<time>2021-04-14T16:03:56.921Z</time>
</trkpt>
<trkpt lat="31.7699500" lon="35.1528400">
<ele>546.040039</ele>
<time>2021-04-14T16:03:56.921Z</time>
</trkpt>
<trkpt lat="31.7700600" lon="35.1526700">
<ele>547.250000</ele>
<time>2021-04-14T16:03:56.921Z</time>
</trkpt>
<trkpt lat="31.7700800" lon="35.1526100">
<ele>547.760010</ele>
<time>2021-04-14T16:03:56.921Z</time>
</trkpt>
<trkpt lat="31.7703700" lon="35.1523200">
<ele>554.869995</ele>
<time>2021-04-14T16:03:56.921Z</time>
</trkpt>
<trkpt lat="31.7705000" lon="35.1520800">
<ele>559.440002</ele>
<time>2021-04-14T16:03:56.921Z</time>
</trkpt>
<trkpt lat="31.7709900" lon="35.1519700">
<ele>560.289978</ele>
<time>2021-04-14T16:03:56.921Z</time>
</trkpt>
<trkpt lat="31.7713000" lon="35.1518300">
<ele>563.809998</ele>
<time>2021-04-14T16:03:56.921Z</time>
</trkpt>
<trkpt lat="31.7713500" lon="35.1517500">
<ele>563.989990</ele>
<time>2021-04-14T16:03:56.921Z</time>
</trkpt>
<trkpt lat="31.7713500" lon="35.1516600">
<ele>564.510010</ele>
<time>2021-04-14T16:03:56.921Z</time>
</trkpt>
<trkpt lat="31.7713500" lon="35.1516200">
<ele>565.019958</ele>
<time>2021-04-14T16:03:56.921Z</time>
</trkpt>
<trkpt lat="31.7713300" lon="35.1515600">
<ele>565.929993</ele>
<time>2021-04-14T16:03:56.921Z</time>
</trkpt>
<trkpt lat="31.7710700" lon="35.1514900">
<ele>567.369995</ele>
<time>2021-04-14T16:03:56.921Z</time>
</trkpt>
<trkpt lat="31.7710100" lon="35.1514000">
<ele>567.890015</ele>
<time>2021-04-14T16:03:56.921Z</time>
</trkpt>
<trkpt lat="31.7709800" lon="35.1512900">
<ele>569.070007</ele>
<time>2021-04-14T16:03:56.921Z</time>
</trkpt>
<trkpt lat="31.7709700" lon="35.1509700">
<ele>573.289978</ele>
<time>2021-04-14T16:03:56.921Z</time>
</trkpt>
<trkpt lat="31.7709500" lon="35.1508400">
<ele>575.469971</ele>
<time>2021-04-14T16:03:56.921Z</time>
</trkpt>
<trkpt lat="31.7709000" lon="35.1507400">
<ele>577.280029</ele>
<time>2021-04-14T16:03:56.921Z</time>
</trkpt>
<trkpt lat="31.7708200" lon="35.1506500">
<ele>579.220032</ele>
<time>2021-04-14T16:03:56.921Z</time>
</trkpt>
<trkpt lat="31.7707600" lon="35.1506300">
<ele>579.200012</ele>
<time>2021-04-14T16:03:56.922Z</time>
</trkpt>
<trkpt lat="31.7706900" lon="35.1506200">
<ele>578.929993</ele>
<time>2021-04-14T16:03:56.922Z</time>
</trkpt>
<trkpt lat="31.7706100" lon="35.1506100">
<ele>578.570007</ele>
<time>2021-04-14T16:03:56.922Z</time>
</trkpt>
<trkpt lat="31.7704500" lon="35.1503900">
<ele>579.600037</ele>
<time>2021-04-14T16:03:56.922Z</time>
</trkpt>
<trkpt lat="31.7704400" lon="35.1501600">
<ele>580.349976</ele>
<time>2021-04-14T16:03:56.922Z</time>
</trkpt>
<trkpt lat="31.7704000" lon="35.1500800">
<ele>580.799988</ele>
<time>2021-04-14T16:03:56.922Z</time>
</trkpt>
<trkpt lat="31.7703800" lon="35.1499100">
<ele>581.260010</ele>
<time>2021-04-14T16:03:56.922Z</time>
</trkpt>
<trkpt lat="31.7703600" lon="35.1498400">
<ele>581.410034</ele>
<time>2021-04-14T16:03:56.922Z</time>
</trkpt>
<trkpt lat="31.7703400" lon="35.1497100">
<ele>581.489990</ele>
<time>2021-04-14T16:03:56.922Z</time>
</trkpt>
<trkpt lat="31.7702500" lon="35.1495800">
<ele>581.690002</ele>
<time>2021-04-14T16:03:56.922Z</time>
</trkpt>
<trkpt lat="31.7699800" lon="35.1490100">
<ele>584.650024</ele>
<time>2021-04-14T16:03:56.922Z</time>
</trkpt>
<trkpt lat="31.7699700" lon="35.1484200">
<ele>584.549988</ele>
<time>2021-04-14T16:03:56.922Z</time>
</trkpt>
<trkpt lat="31.7699600" lon="35.1480900">
<ele>586.630005</ele>
<time>2021-04-14T16:03:56.922Z</time>
</trkpt>
<trkpt lat="31.7699400" lon="35.1476300">
<ele>588.510010</ele>
<time>2021-04-14T16:03:56.922Z</time>
</trkpt>
<trkpt lat="31.7699100" lon="35.1474000">
<ele>589.150024</ele>
<time>2021-04-14T16:03:56.922Z</time>
</trkpt>
<trkpt lat="31.7697900" lon="35.1470400">
<ele>592.029968</ele>
<time>2021-04-14T16:03:56.922Z</time>
</trkpt>
<trkpt lat="31.7695300" lon="35.1467400">
<ele>595.309998</ele>
<time>2021-04-14T16:03:56.922Z</time>
</trkpt>
<trkpt lat="31.7688800" lon="35.1458500">
<ele>598.309998</ele>
<time>2021-04-14T16:03:56.922Z</time>
</trkpt>
<trkpt lat="31.7687500" lon="35.1457200">
<ele>596.140015</ele>
<time>2021-04-14T16:03:56.922Z</time>
</trkpt>
<trkpt lat="31.7684400" lon="35.1454900">
<ele>592.969971</ele>
<time>2021-04-14T16:03:56.922Z</time>
</trkpt>
<trkpt lat="31.7682400" lon="35.1453600">
<ele>592.150024</ele>
<time>2021-04-14T16:03:56.922Z</time>
</trkpt>
<trkpt lat="31.7677300" lon="35.1451700">
<ele>592.950012</ele>
<time>2021-04-14T16:03:56.922Z</time>
</trkpt>
<trkpt lat="31.7673500" lon="35.1450100">
<ele>598.140015</ele>
<time>2021-04-14T16:03:56.922Z</time>
</trkpt>
<trkpt lat="31.7669300" lon="35.1447400">
<ele>599.070007</ele>
<time>2021-04-14T16:03:56.922Z</time>
</trkpt>
<trkpt lat="31.7665000" lon="35.1441500">
<ele>593.260010</ele>
<time>2021-04-14T16:03:56.922Z</time>
</trkpt>
<trkpt lat="31.7664700" lon="35.1440500">
<ele>593.409973</ele>
<time>2021-04-14T16:03:56.922Z</time>
</trkpt>
<trkpt lat="31.7664700" lon="35.1438300">
<ele>592.349976</ele>
<time>2021-04-14T16:03:56.923Z</time>
</trkpt>
<trkpt lat="31.7664500" lon="35.1432800">
<ele>594.639954</ele>
<time>2021-04-14T16:03:56.923Z</time>
</trkpt>
<trkpt lat="31.7664500" lon="35.1428400">
<ele>595.839966</ele>
<time>2021-04-14T16:03:56.923Z</time>
</trkpt>
<trkpt lat="31.7664600" lon="35.1421800">
<ele>595.880005</ele>
<time>2021-04-14T16:03:56.923Z</time>
</trkpt>
<trkpt lat="31.7665200" lon="35.1416300">
<ele>597.160034</ele>
<time>2021-04-14T16:03:56.923Z</time>
</trkpt>
<trkpt lat="31.7668200" lon="35.1406700">
<ele>600.450012</ele>
<time>2021-04-14T16:03:56.923Z</time>
</trkpt>
<trkpt lat="31.7668300" lon="35.1404400">
<ele>598.809998</ele>
<time>2021-04-14T16:03:56.923Z</time>
</trkpt>
<trkpt lat="31.7668300" lon="35.1402000">
<ele>597.840027</ele>
<time>2021-04-14T16:03:56.923Z</time>
</trkpt>
<trkpt lat="31.7667100" lon="35.1395400">
<ele>600.419983</ele>
<time>2021-04-14T16:03:56.923Z</time>
</trkpt>
<trkpt lat="31.7664200" lon="35.1390200">
<ele>597.570007</ele>
<time>2021-04-14T16:03:56.923Z</time>
</trkpt>
<trkpt lat="31.7662700" lon="35.1388900">
<ele>595.450012</ele>
<time>2021-04-14T16:03:56.923Z</time>
</trkpt>
<trkpt lat="31.7657200" lon="35.1387800">
<ele>594.190002</ele>
<time>2021-04-14T16:03:56.923Z</time>
</trkpt>
<trkpt lat="31.7651800" lon="35.1388000">
<ele>584.589966</ele>
<time>2021-04-14T16:03:56.923Z</time>
</trkpt>
<trkpt lat="31.7645400" lon="35.1388800">
<ele>573.530029</ele>
<time>2021-04-14T16:03:56.923Z</time>
</trkpt>
<trkpt lat="31.7643500" lon="35.1389200">
<ele>574.679993</ele>
<time>2021-04-14T16:03:56.923Z</time>
</trkpt>
<trkpt lat="31.7640600" lon="35.1389800">
<ele>578.429993</ele>
<time>2021-04-14T16:03:56.923Z</time>
</trkpt>
<trkpt lat="31.7635500" lon="35.1390200">
<ele>578.109985</ele>
<time>2021-04-14T16:03:56.923Z</time>
</trkpt>
<trkpt lat="31.7635300" lon="35.1390900">
<ele>578.940002</ele>
<time>2021-04-14T16:03:56.923Z</time>
</trkpt>
<trkpt lat="31.7634200" lon="35.1391400">
<ele>578.489990</ele>
<time>2021-04-14T16:03:56.923Z</time>
</trkpt>
<trkpt lat="31.7631800" lon="35.1391700">
<ele>580.789978</ele>
<time>2021-04-14T16:03:56.923Z</time>
</trkpt>
<trkpt lat="31.7626700" lon="35.1393800">
<ele>580.320007</ele>
<time>2021-04-14T16:03:56.923Z</time>
</trkpt>
<trkpt lat="31.7625500" lon="35.1394800">
<ele>581.580017</ele>
<time>2021-04-14T16:03:56.923Z</time>
</trkpt>
<trkpt lat="31.7624600" lon="35.1396000">
<ele>584.140015</ele>
<time>2021-04-14T16:03:56.923Z</time>
</trkpt>
<trkpt lat="31.7624100" lon="35.1397500">
<ele>586.869995</ele>
<time>2021-04-14T16:03:56.923Z</time>
</trkpt>
<trkpt lat="31.7623900" lon="35.1399600">
<ele>589.929993</ele>
<time>2021-04-14T16:03:56.923Z</time>
</trkpt>
<trkpt lat="31.7624000" lon="35.1402000">
<ele>592.020020</ele>
<time>2021-04-14T16:03:56.924Z</time>
</trkpt>
<trkpt lat="31.7626700" lon="35.1425700">
<ele>610.109985</ele>
<time>2021-04-14T16:03:56.924Z</time>
</trkpt>
<trkpt lat="31.7627200" lon="35.1428400">
<ele>613.590027</ele>
<time>2021-04-14T16:03:56.924Z</time>
</trkpt>
<trkpt lat="31.7627500" lon="35.1430100">
<ele>615.919983</ele>
<time>2021-04-14T16:03:56.924Z</time>
</trkpt>
<trkpt lat="31.7628600" lon="35.1433900">
<ele>620.159973</ele>
<time>2021-04-14T16:03:56.924Z</time>
</trkpt>
<trkpt lat="31.7635800" lon="35.1448700">
<ele>633.669983</ele>
<time>2021-04-14T16:03:56.924Z</time>
</trkpt>
<trkpt lat="31.7636400" lon="35.1449400">
<ele>635.150024</ele>
<time>2021-04-14T16:03:56.924Z</time>
</trkpt>
<trkpt lat="31.7637000" lon="35.1449800">
<ele>636.730042</ele>
<time>2021-04-14T16:03:56.924Z</time>
</trkpt>
<trkpt lat="31.7637100" lon="35.1450800">
<ele>638.190002</ele>
<time>2021-04-14T16:03:56.924Z</time>
</trkpt>
<trkpt lat="31.7637300" lon="35.1452600">
<ele>640.910034</ele>
<time>2021-04-14T16:03:56.924Z</time>
</trkpt>
<trkpt lat="31.7637900" lon="35.1454700">
<ele>642.710022</ele>
<time>2021-04-14T16:03:56.924Z</time>
</trkpt>
<trkpt lat="31.7638300" lon="35.1456300">
<ele>643.419983</ele>
<time>2021-04-14T16:03:56.924Z</time>
</trkpt>
<trkpt lat="31.7638400" lon="35.1457000">
<ele>643.559998</ele>
<time>2021-04-14T16:03:56.924Z</time>
</trkpt>
<trkpt lat="31.7638500" lon="35.1457900">
<ele>643.700012</ele>
<time>2021-04-14T16:03:56.924Z</time>
</trkpt>
<trkpt lat="31.7638600" lon="35.1459500">
<ele>644.260010</ele>
<time>2021-04-14T16:03:56.924Z</time>
</trkpt>
<trkpt lat="31.7638600" lon="35.1461900">
<ele>645.970032</ele>
<time>2021-04-14T16:03:56.924Z</time>
</trkpt>
<trkpt lat="31.7638500" lon="35.1462600">
<ele>646.849976</ele>
<time>2021-04-14T16:03:56.924Z</time>
</trkpt>
<trkpt lat="31.7638400" lon="35.1463400">
<ele>647.830017</ele>
<time>2021-04-14T16:03:56.924Z</time>
</trkpt>
<trkpt lat="31.7638100" lon="35.1465000">
<ele>650.889954</ele>
<time>2021-04-14T16:03:56.925Z</time>
</trkpt>
<trkpt lat="31.7637600" lon="35.1467500">
<ele>654.970032</ele>
<time>2021-04-14T16:03:56.925Z</time>
</trkpt>
<trkpt lat="31.7637000" lon="35.1469000">
<ele>655.299988</ele>
<time>2021-04-14T16:03:56.925Z</time>
</trkpt>
<trkpt lat="31.7634700" lon="35.1475400">
<ele>655.210022</ele>
<time>2021-04-14T16:03:56.925Z</time>
</trkpt>
<trkpt lat="31.7633000" lon="35.1479200">
<ele>652.879944</ele>
<time>2021-04-14T16:03:56.925Z</time>
</trkpt>
<trkpt lat="31.7631800" lon="35.1482100">
<ele>654.519958</ele>
<time>2021-04-14T16:03:56.925Z</time>
</trkpt>
<trkpt lat="31.7630600" lon="35.1485000">
<ele>657.460022</ele>
<time>2021-04-14T16:03:56.925Z</time>
</trkpt>
<trkpt lat="31.7630200" lon="35.1485900">
<ele>659.059998</ele>
<time>2021-04-14T16:03:56.925Z</time>
</trkpt>
<trkpt lat="31.7629700" lon="35.1486800">
<ele>661.510010</ele>
<time>2021-04-14T16:03:56.925Z</time>
</trkpt>
<trkpt lat="31.7629200" lon="35.1487500">
<ele>663.480042</ele>
<time>2021-04-14T16:03:56.925Z</time>
</trkpt>
<trkpt lat="31.7628600" lon="35.1488100">
<ele>665.120056</ele>
<time>2021-04-14T16:03:56.925Z</time>
</trkpt>
<trkpt lat="31.7628200" lon="35.1488200">
<ele>665.529968</ele>
<time>2021-04-14T16:03:56.925Z</time>
</trkpt>
<trkpt lat="31.7627800" lon="35.1488200">
<ele>665.750000</ele>
<time>2021-04-14T16:03:56.925Z</time>
</trkpt>
<trkpt lat="31.7627400" lon="35.1488200">
<ele>666.469971</ele>
<time>2021-04-14T16:03:56.925Z</time>
</trkpt>
<trkpt lat="31.7627000" lon="35.1488200">
<ele>667.229980</ele>
<time>2021-04-14T16:03:56.925Z</time>
</trkpt>
<trkpt lat="31.7626500" lon="35.1488100">
<ele>668.009949</ele>
<time>2021-04-14T16:03:56.925Z</time>
</trkpt>
<trkpt lat="31.7625100" lon="35.1486600">
<ele>668.490051</ele>
<time>2021-04-14T16:03:56.925Z</time>
</trkpt>
<trkpt lat="31.7621600" lon="35.1481900">
<ele>671.459961</ele>
<time>2021-04-14T16:03:56.925Z</time>
</trkpt>
<trkpt lat="31.7620300" lon="35.1478500">
<ele>671.210022</ele>
<time>2021-04-14T16:03:56.925Z</time>
</trkpt>
<trkpt lat="31.7617800" lon="35.1470800">
<ele>672.280029</ele>
<time>2021-04-14T16:03:56.925Z</time>
</trkpt>
<trkpt lat="31.7616500" lon="35.1468800">
<ele>673.710022</ele>
<time>2021-04-14T16:03:56.925Z</time>
</trkpt>
<trkpt lat="31.7615600" lon="35.1467900">
<ele>674.509949</ele>
<time>2021-04-14T16:03:56.925Z</time>
</trkpt>
<trkpt lat="31.7614400" lon="35.1467000">
<ele>676.739990</ele>
<time>2021-04-14T16:03:56.925Z</time>
</trkpt>
<trkpt lat="31.7613300" lon="35.1466400">
<ele>677.369995</ele>
<time>2021-04-14T16:03:56.925Z</time>
</trkpt>
<trkpt lat="31.7611700" lon="35.1465900">
<ele>676.479980</ele>
<time>2021-04-14T16:03:56.926Z</time>
</trkpt>
<trkpt lat="31.7610100" lon="35.1465800">
<ele>674.669983</ele>
<time>2021-04-14T16:03:56.926Z</time>
</trkpt>
<trkpt lat="31.7607200" lon="35.1466600">
<ele>669.020020</ele>
<time>2021-04-14T16:03:56.926Z</time>
</trkpt>
<trkpt lat="31.7596000" lon="35.1471500">
<ele>654.380005</ele>
<time>2021-04-14T16:03:56.926Z</time>
</trkpt>
<trkpt lat="31.7592600" lon="35.1472000">
<ele>659.260010</ele>
<time>2021-04-14T16:03:56.926Z</time>
</trkpt>
<trkpt lat="31.7589900" lon="35.1471900">
<ele>668.269958</ele>
<time>2021-04-14T16:03:56.926Z</time>
</trkpt>
<trkpt lat="31.7588700" lon="35.1471500">
<ele>670.369995</ele>
<time>2021-04-14T16:03:56.926Z</time>
</trkpt>
<trkpt lat="31.7588100" lon="35.1471400">
<ele>669.989990</ele>
<time>2021-04-14T16:03:56.926Z</time>
</trkpt>
<trkpt lat="31.7586800" lon="35.1469900">
<ele>667.990051</ele>
<time>2021-04-14T16:03:56.926Z</time>
</trkpt>
<trkpt lat="31.7586200" lon="35.1471600">
<ele>669.590027</ele>
<time>2021-04-14T16:03:56.926Z</time>
</trkpt>
<trkpt lat="31.7582500" lon="35.1474200">
<ele>672.940002</ele>
<time>2021-04-14T16:03:56.926Z</time>
</trkpt>
<trkpt lat="31.7581500" lon="35.1474700">
<ele>672.820007</ele>
<time>2021-04-14T16:03:56.926Z</time>
</trkpt>
<trkpt lat="31.7581200" lon="35.1475000">
<ele>673.000061</ele>
<time>2021-04-14T16:03:56.926Z</time>
</trkpt>
<trkpt lat="31.7580000" lon="35.1476000">
<ele>674.070007</ele>
<time>2021-04-14T16:03:56.926Z</time>
</trkpt>
<trkpt lat="31.7579200" lon="35.1476300">
<ele>673.619995</ele>
<time>2021-04-14T16:03:56.926Z</time>
</trkpt>
<trkpt lat="31.7578600" lon="35.1476300">
<ele>672.850037</ele>
<time>2021-04-14T16:03:56.926Z</time>
</trkpt>
<trkpt lat="31.7577800" lon="35.1476100">
<ele>671.399963</ele>
<time>2021-04-14T16:03:56.926Z</time>
</trkpt>
<trkpt lat="31.7577300" lon="35.1476100">
<ele>672.270020</ele>
<time>2021-04-14T16:03:56.926Z</time>
</trkpt>
<trkpt lat="31.7575700" lon="35.1476300">
<ele>675.599976</ele>
<time>2021-04-14T16:03:56.926Z</time>
</trkpt>
<trkpt lat="31.7574400" lon="35.1476300">
<ele>678.309998</ele>
<time>2021-04-14T16:03:56.926Z</time>
</trkpt>
<trkpt lat="31.7574000" lon="35.1476500">
<ele>679.429993</ele>
<time>2021-04-14T16:03:56.926Z</time>
</trkpt>
<trkpt lat="31.7571300" lon="35.1479600">
<ele>690.930054</ele>
<time>2021-04-14T16:03:56.926Z</time>
</trkpt>
<trkpt lat="31.7569600" lon="35.1482500">
<ele>696.859985</ele>
<time>2021-04-14T16:03:56.926Z</time>
</trkpt>
<trkpt lat="31.7569300" lon="35.1482800">
<ele>697.270020</ele>
<time>2021-04-14T16:03:56.926Z</time>
</trkpt>
<trkpt lat="31.7569300" lon="35.1482800">
<ele>697.270020</ele>
<time>2021-04-14T16:03:56.927Z</time>
</trkpt>
<trkpt lat="31.7569300" lon="35.1482800">
<ele>697.270020</ele>
<time>2021-04-14T16:03:56.927Z</time>
</trkpt>
<trkpt lat="31.7569000" lon="35.1483200">
<ele>697.809998</ele>
<time>2021-04-14T16:03:56.927Z</time>
</trkpt>
<trkpt lat="31.7565200" lon="35.1484700">
<ele>706.359985</ele>
<time>2021-04-14T16:03:56.927Z</time>
</trkpt>
<trkpt lat="31.7563800" lon="35.1485300">
<ele>708.929993</ele>
<time>2021-04-14T16:03:56.927Z</time>
</trkpt>
<trkpt lat="31.7562900" lon="35.1486000">
<ele>711.450012</ele>
<time>2021-04-14T16:03:56.927Z</time>
</trkpt>
<trkpt lat="31.7562400" lon="35.1486600">
<ele>713.010010</ele>
<time>2021-04-14T16:03:56.927Z</time>
</trkpt>
<trkpt lat="31.7562000" lon="35.1487900">
<ele>714.609985</ele>
<time>2021-04-14T16:03:56.927Z</time>
</trkpt>
<trkpt lat="31.7562200" lon="35.1489800">
<ele>715.429993</ele>
<time>2021-04-14T16:03:56.927Z</time>
</trkpt>
<trkpt lat="31.7562000" lon="35.1492000">
<ele>717.559998</ele>
<time>2021-04-14T16:03:56.927Z</time>
</trkpt>
<trkpt lat="31.7560600" lon="35.1495900">
<ele>721.719971</ele>
<time>2021-04-14T16:03:56.927Z</time>
</trkpt>
<trkpt lat="31.7560400" lon="35.1496900">
<ele>722.449951</ele>
<time>2021-04-14T16:03:56.927Z</time>
</trkpt>
<trkpt lat="31.7559600" lon="35.1498600">
<ele>724.719971</ele>
<time>2021-04-14T16:03:56.927Z</time>
</trkpt>
<trkpt lat="31.7559500" lon="35.1499300">
<ele>725.109985</ele>
<time>2021-04-14T16:03:56.927Z</time>
</trkpt>
<trkpt lat="31.7559700" lon="35.1499600">
<ele>724.890015</ele>
<time>2021-04-14T16:03:56.927Z</time>
</trkpt>
<trkpt lat="31.7560000" lon="35.1499900">
<ele>724.559998</ele>
<time>2021-04-14T16:03:56.927Z</time>
</trkpt>
<trkpt lat="31.7560000" lon="35.1499900">
<ele>724.559998</ele>
<time>2021-04-14T16:03:56.927Z</time>
</trkpt>
<trkpt lat="31.7560200" lon="35.1500200">
<ele>724.529968</ele>
<time>2021-04-14T16:03:56.927Z</time>
</trkpt>
<trkpt lat="31.7561400" lon="35.1500800">
<ele>723.059998</ele>
<time>2021-04-14T16:03:56.927Z</time>
</trkpt>
<trkpt lat="31.7563700" lon="35.1501400">
<ele>719.350037</ele>
<time>2021-04-14T16:03:56.927Z</time>
</trkpt>
<trkpt lat="31.7565100" lon="35.1501600">
<ele>720.530029</ele>
<time>2021-04-14T16:03:56.927Z</time>
</trkpt>
<trkpt lat="31.7566300" lon="35.1501000">
<ele>721.080017</ele>
<time>2021-04-14T16:03:56.927Z</time>
</trkpt>
<trkpt lat="31.7566700" lon="35.1500600">
<ele>720.909973</ele>
<time>2021-04-14T16:03:56.928Z</time>
</trkpt>
<trkpt lat="31.7567300" lon="35.1499800">
<ele>720.680054</ele>
<time>2021-04-14T16:03:56.928Z</time>
</trkpt>
<trkpt lat="31.7568300" lon="35.1498500">
<ele>720.409973</ele>
<time>2021-04-14T16:03:56.928Z</time>
</trkpt>
<trkpt lat="31.7568900" lon="35.1497500">
<ele>719.790039</ele>
<time>2021-04-14T16:03:56.928Z</time>
</trkpt>
<trkpt lat="31.7571000" lon="35.1493700">
<ele>716.170044</ele>
<time>2021-04-14T16:03:56.928Z</time>
</trkpt>
<trkpt lat="31.7571400" lon="35.1493700">
<ele>716.419983</ele>
<time>2021-04-14T16:03:56.928Z</time>
</trkpt>
<trkpt lat="31.7571500" lon="35.1494200">
<ele>717.149963</ele>
<time>2021-04-14T16:03:56.928Z</time>
</trkpt>
<trkpt lat="31.7568900" lon="35.1499600">
<ele>722.669983</ele>
<time>2021-04-14T16:03:56.928Z</time>
</trkpt>
<trkpt lat="31.7568300" lon="35.1501200">
<ele>724.329956</ele>
<time>2021-04-14T16:03:56.928Z</time>
</trkpt>
<trkpt lat="31.7566300" lon="35.1504100">
<ele>725.789978</ele>
<time>2021-04-14T16:03:56.928Z</time>
</trkpt>
<trkpt lat="31.7565400" lon="35.1505700">
<ele>726.900024</ele>
<time>2021-04-14T16:03:56.928Z</time>
</trkpt>
<trkpt lat="31.7563900" lon="35.1509100">
<ele>729.400024</ele>
<time>2021-04-14T16:03:56.928Z</time>
</trkpt>
<trkpt lat="31.7563400" lon="35.1510600">
<ele>731.300049</ele>
<time>2021-04-14T16:03:56.928Z</time>
</trkpt>
<trkpt lat="31.7562800" lon="35.1511700">
<ele>732.270020</ele>
<time>2021-04-14T16:03:56.928Z</time>
</trkpt>
<trkpt lat="31.7561100" lon="35.1513900">
<ele>735.010010</ele>
<time>2021-04-14T16:03:56.928Z</time>
</trkpt>
<trkpt lat="31.7560400" lon="35.1514600">
<ele>735.640015</ele>
<time>2021-04-14T16:03:56.928Z</time>
</trkpt>
<trkpt lat="31.7559300" lon="35.1515200">
<ele>735.840027</ele>
<time>2021-04-14T16:03:56.928Z</time>
</trkpt>
<trkpt lat="31.7558700" lon="35.1515700">
<ele>736.570007</ele>
<time>2021-04-14T16:03:56.928Z</time>
</trkpt>
<trkpt lat="31.7560300" lon="35.1516200">
<ele>739.310059</ele>
<time>2021-04-14T16:03:56.928Z</time>
</trkpt>
<trkpt lat="31.7564400" lon="35.1514000">
<ele>739.539978</ele>
<time>2021-04-14T16:03:56.928Z</time>
</trkpt>
<trkpt lat="31.7565100" lon="35.1514300">
<ele>742.000000</ele>
<time>2021-04-14T16:03:56.928Z</time>
</trkpt>
<trkpt lat="31.7565300" lon="35.1514900">
<ele>743.919983</ele>
<time>2021-04-14T16:03:56.928Z</time>
</trkpt>
<trkpt lat="31.7563900" lon="35.1515800">
<ele>742.160034</ele>
<time>2021-04-14T16:03:56.928Z</time>
</trkpt>
<trkpt lat="31.7561600" lon="35.1518300">
<ele>746.340027</ele>
<time>2021-04-14T16:03:56.928Z</time>
</trkpt>
<trkpt lat="31.7559800" lon="35.1520600">
<ele>750.239990</ele>
<time>2021-04-14T16:03:56.929Z</time>
</trkpt>
<trkpt lat="31.7557500" lon="35.1524000">
<ele>755.849976</ele>
<time>2021-04-14T16:03:56.929Z</time>
</trkpt>
<trkpt lat="31.7555700" lon="35.1527500">
<ele>763.510010</ele>
<time>2021-04-14T16:03:56.929Z</time>
</trkpt>
<trkpt lat="31.7554200" lon="35.1530300">
<ele>768.940002</ele>
<time>2021-04-14T16:03:56.929Z</time>
</trkpt>
<trkpt lat="31.7552400" lon="35.1535500">
<ele>780.849976</ele>
<time>2021-04-14T16:03:56.929Z</time>
</trkpt>
<trkpt lat="31.7552300" lon="35.1536400">
<ele>782.979980</ele>
<time>2021-04-14T16:03:56.929Z</time>
</trkpt>
<trkpt lat="31.7552900" lon="35.1536600">
<ele>783.450012</ele>
<time>2021-04-14T16:03:56.929Z</time>
</trkpt>
<trkpt lat="31.7553400" lon="35.1536300">
<ele>783.600037</ele>
<time>2021-04-14T16:03:56.929Z</time>
</trkpt>
<trkpt lat="31.7555900" lon="35.1533500">
<ele>781.300049</ele>
<time>2021-04-14T16:03:56.929Z</time>
</trkpt>
<trkpt lat="31.7556600" lon="35.1533700">
<ele>783.609985</ele>
<time>2021-04-14T16:03:56.929Z</time>
</trkpt>
<trkpt lat="31.7556800" lon="35.1534400">
<ele>786.000000</ele>
<time>2021-04-14T16:03:56.929Z</time>
</trkpt>
<trkpt lat="31.7555500" lon="35.1536900">
<ele>788.889954</ele>
<time>2021-04-14T16:03:56.929Z</time>
</trkpt>
<trkpt lat="31.7554800" lon="35.1539200">
<ele>793.120056</ele>
<time>2021-04-14T16:03:56.929Z</time>
</trkpt>
<trkpt lat="31.7554500" lon="35.1540200">
<ele>794.170044</ele>
<time>2021-04-14T16:03:56.929Z</time>
</trkpt>
<trkpt lat="31.7554400" lon="35.1540800">
<ele>794.960022</ele>
<time>2021-04-14T16:03:56.929Z</time>
</trkpt>
<trkpt lat="31.7554200" lon="35.1541400">
<ele>795.619995</ele>
<time>2021-04-14T16:03:56.929Z</time>
</trkpt>
<trkpt lat="31.7554000" lon="35.1542000">
<ele>796.399963</ele>
<time>2021-04-14T16:03:56.929Z</time>
</trkpt>
<trkpt lat="31.7553900" lon="35.1542600">
<ele>797.369995</ele>
<time>2021-04-14T16:03:56.929Z</time>
</trkpt>
<trkpt lat="31.7553700" lon="35.1543100">
<ele>797.909973</ele>
<time>2021-04-14T16:03:56.929Z</time>
</trkpt>
<trkpt lat="31.7553500" lon="35.1543700">
<ele>798.539978</ele>
<time>2021-04-14T16:03:56.929Z</time>
</trkpt>
<trkpt lat="31.7553300" lon="35.1544200">
<ele>798.909973</ele>
<time>2021-04-14T16:03:56.929Z</time>
</trkpt>
<trkpt lat="31.7553100" lon="35.1544500">
<ele>798.909973</ele>
<time>2021-04-14T16:03:56.929Z</time>
</trkpt>
<trkpt lat="31.7553400" lon="35.1544700">
<ele>800.049988</ele>
<time>2021-04-14T16:03:56.929Z</time>
</trkpt>
<trkpt lat="31.7553500" lon="35.1544900">
<ele>800.679993</ele>
<time>2021-04-14T16:03:56.929Z</time>
</trkpt>
<trkpt lat="31.7553600" lon="35.1545000">
<ele>801.129944</ele>
<time>2021-04-14T16:03:56.929Z</time>
</trkpt>
<trkpt lat="31.7553600" lon="35.1545200">
<ele>801.510010</ele>
<time>2021-04-14T16:03:56.929Z</time>
</trkpt>
<trkpt lat="31.7553700" lon="35.1545400">
<ele>802.160034</ele>
<time>2021-04-14T16:03:56.930Z</time>
</trkpt>
<trkpt lat="31.7553700" lon="35.1545600">
<ele>802.540039</ele>
<time>2021-04-14T16:03:56.930Z</time>
</trkpt>
<trkpt lat="31.7553700" lon="35.1545800">
<ele>802.929993</ele>
<time>2021-04-14T16:03:56.930Z</time>
</trkpt>
<trkpt lat="31.7553700" lon="35.1546100">
<ele>803.500000</ele>
<time>2021-04-14T16:03:56.930Z</time>
</trkpt>
<trkpt lat="31.7553700" lon="35.1546400">
<ele>804.080017</ele>
<time>2021-04-14T16:03:56.930Z</time>
</trkpt>
<trkpt lat="31.7553700" lon="35.1547200">
<ele>805.609985</ele>
<time>2021-04-14T16:03:56.930Z</time>
</trkpt>
<trkpt lat="31.7553700" lon="35.1547400">
<ele>806.000000</ele>
<time>2021-04-14T16:03:56.930Z</time>
</trkpt>
<trkpt lat="31.7553700" lon="35.1547700">
<ele>806.570007</ele>
<time>2021-04-14T16:03:56.930Z</time>
</trkpt>
<trkpt lat="31.7553700" lon="35.1547900">
<ele>806.960022</ele>
<time>2021-04-14T16:03:56.930Z</time>
</trkpt>
<trkpt lat="31.7553700" lon="35.1548200">
<ele>807.530029</ele>
<time>2021-04-14T16:03:56.930Z</time>
</trkpt>
<trkpt lat="31.7553800" lon="35.1548500">
<ele>808.369995</ele>
<time>2021-04-14T16:03:56.930Z</time>
</trkpt>
<trkpt lat="31.7553800" lon="35.1548800">
<ele>808.929993</ele>
<time>2021-04-14T16:03:56.930Z</time>
</trkpt>
<trkpt lat="31.7553900" lon="35.1549100">
<ele>809.739990</ele>
<time>2021-04-14T16:03:56.930Z</time>
</trkpt>
<trkpt lat="31.7554000" lon="35.1549500">
<ele>810.720032</ele>
<time>2021-04-14T16:03:56.930Z</time>
</trkpt>
<trkpt lat="31.7554100" lon="35.1549900">
<ele>811.669983</ele>
<time>2021-04-14T16:03:56.930Z</time>
</trkpt>
<trkpt lat="31.7554300" lon="35.1550300">
<ele>812.390015</ele>
<time>2021-04-14T16:03:56.930Z</time>
</trkpt>
<trkpt lat="31.7554500" lon="35.1550900">
<ele>812.969971</ele>
<time>2021-04-14T16:03:56.930Z</time>
</trkpt>
<trkpt lat="31.7554700" lon="35.1551400">
<ele>813.460022</ele>
<time>2021-04-14T16:03:56.930Z</time>
</trkpt>
<trkpt lat="31.7555000" lon="35.1552000">
<ele>814.089966</ele>
<time>2021-04-14T16:03:56.930Z</time>
</trkpt>
<trkpt lat="31.7555200" lon="35.1552500">
<ele>814.459961</ele>
<time>2021-04-14T16:03:56.930Z</time>
</trkpt>
<trkpt lat="31.7555500" lon="35.1553100">
<ele>814.919983</ele>
<time>2021-04-14T16:03:56.930Z</time>
</trkpt>
<trkpt lat="31.7555700" lon="35.1553600">
<ele>815.349976</ele>
<time>2021-04-14T16:03:56.930Z</time>
</trkpt>
<trkpt lat="31.7555700" lon="35.1553600">
<ele>815.349976</ele>
<time>2021-04-14T16:03:56.930Z</time>
</trkpt>
<trkpt lat="31.7555900" lon="35.1554200">
<ele>815.800049</ele>
<time>2021-04-14T16:03:56.930Z</time>
</trkpt>
<trkpt lat="31.7556200" lon="35.1554700">
<ele>816.460022</ele>
<time>2021-04-14T16:03:56.930Z</time>
</trkpt>
<trkpt lat="31.7556400" lon="35.1555300">
<ele>816.850037</ele>
<time>2021-04-14T16:03:56.930Z</time>
</trkpt>
<trkpt lat="31.7556500" lon="35.1555900">
<ele>816.629944</ele>
<time>2021-04-14T16:03:56.930Z</time>
</trkpt>
<trkpt lat="31.7557100" lon="35.1557600">
<ele>815.720032</ele>
<time>2021-04-14T16:03:56.931Z</time>
</trkpt>
<trkpt lat="31.7557400" lon="35.1558800">
<ele>814.990051</ele>
<time>2021-04-14T16:03:56.931Z</time>
</trkpt>
<trkpt lat="31.7557600" lon="35.1559400">
<ele>814.829956</ele>
<time>2021-04-14T16:03:56.931Z</time>
</trkpt>
<trkpt lat="31.7557700" lon="35.1559500">
<ele>814.890015</ele>
<time>2021-04-14T16:03:56.931Z</time>
</trkpt>
<trkpt lat="31.7557700" lon="35.1559700">
<ele>814.719971</ele>
<time>2021-04-14T16:03:56.931Z</time>
</trkpt>
<trkpt lat="31.7557800" lon="35.1559900">
<ele>814.669983</ele>
<time>2021-04-14T16:03:56.931Z</time>
</trkpt>
<trkpt lat="31.7557800" lon="35.1560100">
<ele>814.500000</ele>
<time>2021-04-14T16:03:56.931Z</time>
</trkpt>
<trkpt lat="31.7557900" lon="35.1560300">
<ele>814.429993</ele>
<time>2021-04-14T16:03:56.931Z</time>
</trkpt>
<trkpt lat="31.7558000" lon="35.1560400">
<ele>814.440063</ele>
<time>2021-04-14T16:03:56.931Z</time>
</trkpt>
<trkpt lat="31.7558100" lon="35.1560600">
<ele>814.340027</ele>
<time>2021-04-14T16:03:56.931Z</time>
</trkpt>
<trkpt lat="31.7558200" lon="35.1560800">
<ele>814.219971</ele>
<time>2021-04-14T16:03:56.931Z</time>
</trkpt>
<trkpt lat="31.7558300" lon="35.1561000">
<ele>814.089966</ele>
<time>2021-04-14T16:03:56.931Z</time>
</trkpt>
<trkpt lat="31.7558400" lon="35.1561300">
<ele>813.679993</ele>
<time>2021-04-14T16:03:56.931Z</time>
</trkpt>
<trkpt lat="31.7558500" lon="35.1561500">
<ele>813.309998</ele>
<time>2021-04-14T16:03:56.931Z</time>
</trkpt>
<trkpt lat="31.7558700" lon="35.1561700">
<ele>812.859985</ele>
<time>2021-04-14T16:03:56.931Z</time>
</trkpt>
<trkpt lat="31.7558800" lon="35.1561900">
<ele>812.479980</ele>
<time>2021-04-14T16:03:56.931Z</time>
</trkpt>
<trkpt lat="31.7558900" lon="35.1562200">
<ele>811.940002</ele>
<time>2021-04-14T16:03:56.931Z</time>
</trkpt>
<trkpt lat="31.7559000" lon="35.1562400">
<ele>811.549988</ele>
<time>2021-04-14T16:03:56.931Z</time>
</trkpt>
<trkpt lat="31.7559100" lon="35.1562600">
<ele>811.160034</ele>
<time>2021-04-14T16:03:56.931Z</time>
</trkpt>
<trkpt lat="31.7559100" lon="35.1562800">
<ele>810.849976</ele>
<time>2021-04-14T16:03:56.931Z</time>
</trkpt>
<trkpt lat="31.7559200" lon="35.1563100">
<ele>810.289978</ele>
<time>2021-04-14T16:03:56.931Z</time>
</trkpt>
<trkpt lat="31.7559300" lon="35.1563300">
<ele>809.880005</ele>
<time>2021-04-14T16:03:56.931Z</time>
</trkpt>
<trkpt lat="31.7559300" lon="35.1563600">
<ele>809.410034</ele>
<time>2021-04-14T16:03:56.931Z</time>
</trkpt>
<trkpt lat="31.7558700" lon="35.1563800">
<ele>809.739990</ele>
<time>2021-04-14T16:03:56.931Z</time>
</trkpt>
<trkpt lat="31.7558400" lon="35.1563900">
<ele>809.900024</ele>
<time>2021-04-14T16:03:56.931Z</time>
</trkpt>
<trkpt lat="31.7558100" lon="35.1564100">
<ele>809.469971</ele>
<time>2021-04-14T16:03:56.931Z</time>
</trkpt>
<trkpt lat="31.7557800" lon="35.1564200">
<ele>809.159973</ele>
<time>2021-04-14T16:03:56.931Z</time>
</trkpt>
<trkpt lat="31.7557400" lon="35.1564400">
<ele>808.619934</ele>
<time>2021-04-14T16:03:56.932Z</time>
</trkpt>
<trkpt lat="31.7557000" lon="35.1564700">
<ele>807.909973</ele>
<time>2021-04-14T16:03:56.932Z</time>
</trkpt>
<trkpt lat="31.7556500" lon="35.1565000">
<ele>807.200012</ele>
<time>2021-04-14T16:03:56.932Z</time>
</trkpt>
<trkpt lat="31.7556000" lon="35.1565300">
<ele>806.540039</ele>
<time>2021-04-14T16:03:56.932Z</time>
</trkpt>
<trkpt lat="31.7555500" lon="35.1565700">
<ele>805.739990</ele>
<time>2021-04-14T16:03:56.932Z</time>
</trkpt>
<trkpt lat="31.7554900" lon="35.1566100">
<ele>805.020020</ele>
<time>2021-04-14T16:03:56.932Z</time>
</trkpt>
<trkpt lat="31.7554300" lon="35.1566600">
<ele>804.119995</ele>
<time>2021-04-14T16:03:56.932Z</time>
</trkpt>
<trkpt lat="31.7553600" lon="35.1567100">
<ele>803.529968</ele>
<time>2021-04-14T16:03:56.932Z</time>
</trkpt>
<trkpt lat="31.7553000" lon="35.1567700">
<ele>802.880005</ele>
<time>2021-04-14T16:03:56.932Z</time>
</trkpt>
<trkpt lat="31.7552300" lon="35.1568200">
<ele>802.329956</ele>
<time>2021-04-14T16:03:56.932Z</time>
</trkpt>
<trkpt lat="31.7551600" lon="35.1568700">
<ele>801.609985</ele>
<time>2021-04-14T16:03:56.932Z</time>
</trkpt>
<trkpt lat="31.7551300" lon="35.1569000">
<ele>801.119995</ele>
<time>2021-04-14T16:03:56.932Z</time>
</trkpt>
<trkpt lat="31.7550900" lon="35.1569200">
<ele>800.709961</ele>
<time>2021-04-14T16:03:56.932Z</time>
</trkpt>
<trkpt lat="31.7550300" lon="35.1569700">
<ele>799.910034</ele>
<time>2021-04-14T16:03:56.932Z</time>
</trkpt>
<trkpt lat="31.7549700" lon="35.1570200">
<ele>799.750061</ele>
<time>2021-04-14T16:03:56.932Z</time>
</trkpt>
<trkpt lat="31.7549100" lon="35.1570700">
<ele>799.919983</ele>
<time>2021-04-14T16:03:56.932Z</time>
</trkpt>
<trkpt lat="31.7548600" lon="35.1571200">
<ele>799.929993</ele>
<time>2021-04-14T16:03:56.932Z</time>
</trkpt>
<trkpt lat="31.7548200" lon="35.1571600">
<ele>799.890015</ele>
<time>2021-04-14T16:03:56.932Z</time>
</trkpt>
<trkpt lat="31.7548500" lon="35.1571900">
<ele>799.369995</ele>
<time>2021-04-14T16:03:56.932Z</time>
</trkpt>
<trkpt lat="31.7548600" lon="35.1572200">
<ele>799.030029</ele>
<time>2021-04-14T16:03:56.932Z</time>
</trkpt>
<trkpt lat="31.7548700" lon="35.1572600">
<ele>798.459961</ele>
<time>2021-04-14T16:03:56.932Z</time>
</trkpt>
<trkpt lat="31.7548800" lon="35.1573000">
<ele>797.900024</ele>
<time>2021-04-14T16:03:56.932Z</time>
</trkpt>
<trkpt lat="31.7548800" lon="35.1573500">
<ele>797.289978</ele>
<time>2021-04-14T16:03:56.932Z</time>
</trkpt>
<trkpt lat="31.7548800" lon="35.1574000">
<ele>796.670044</ele>
<time>2021-04-14T16:03:56.932Z</time>
</trkpt>
<trkpt lat="31.7548700" lon="35.1574500">
<ele>796.089966</ele>
<time>2021-04-14T16:03:56.932Z</time>
</trkpt>
<trkpt lat="31.7548700" lon="35.1575000">
<ele>795.470032</ele>
<time>2021-04-14T16:03:56.932Z</time>
</trkpt>
<trkpt lat="31.7548600" lon="35.1576000">
<ele>792.619995</ele>
<time>2021-04-14T16:03:56.932Z</time>
</trkpt>
<trkpt lat="31.7548700" lon="35.1576000">
<ele>792.609985</ele>
<time>2021-04-14T16:03:56.933Z</time>
</trkpt>
<trkpt lat="31.7549500" lon="35.1576100">
<ele>792.270020</ele>
<time>2021-04-14T16:03:56.933Z</time>
</trkpt>
<trkpt lat="31.7550300" lon="35.1576100">
<ele>792.140015</ele>
<time>2021-04-14T16:03:56.933Z</time>
</trkpt>
<trkpt lat="31.7551000" lon="35.1576000">
<ele>792.219971</ele>
<time>2021-04-14T16:03:56.933Z</time>
</trkpt>
<trkpt lat="31.7551800" lon="35.1575900">
<ele>792.309937</ele>
<time>2021-04-14T16:03:56.933Z</time>
</trkpt>
<trkpt lat="31.7552500" lon="35.1575700">
<ele>792.779968</ele>
<time>2021-04-14T16:03:56.933Z</time>
</trkpt>
<trkpt lat="31.7553200" lon="35.1575300">
<ele>793.399963</ele>
<time>2021-04-14T16:03:56.933Z</time>
</trkpt>
<trkpt lat="31.7553900" lon="35.1574800">
<ele>793.659973</ele>
<time>2021-04-14T16:03:56.933Z</time>
</trkpt>
<trkpt lat="31.7554700" lon="35.1574200">
<ele>793.490051</ele>
<time>2021-04-14T16:03:56.933Z</time>
</trkpt>
<trkpt lat="31.7555500" lon="35.1573500">
<ele>793.760010</ele>
<time>2021-04-14T16:03:56.933Z</time>
</trkpt>
<trkpt lat="31.7556300" lon="35.1572500">
<ele>794.590027</ele>
<time>2021-04-14T16:03:56.933Z</time>
</trkpt>
<trkpt lat="31.7556500" lon="35.1572300">
<ele>794.799988</ele>
<time>2021-04-14T16:03:56.933Z</time>
</trkpt>
<trkpt lat="31.7556700" lon="35.1572100">
<ele>794.980042</ele>
<time>2021-04-14T16:03:56.933Z</time>
</trkpt>
<trkpt lat="31.7556900" lon="35.1571900">
<ele>795.130005</ele>
<time>2021-04-14T16:03:56.933Z</time>
</trkpt>
<trkpt lat="31.7557200" lon="35.1571700">
<ele>795.160034</ele>
<time>2021-04-14T16:03:56.933Z</time>
</trkpt>
<trkpt lat="31.7557400" lon="35.1571500">
<ele>795.309937</ele>
<time>2021-04-14T16:03:56.933Z</time>
</trkpt>
<trkpt lat="31.7557600" lon="35.1571300">
<ele>795.450012</ele>
<time>2021-04-14T16:03:56.933Z</time>
</trkpt>
<trkpt lat="31.7557800" lon="35.1571000">
<ele>795.779968</ele>
<time>2021-04-14T16:03:56.933Z</time>
</trkpt>
<trkpt lat="31.7558000" lon="35.1570800">
<ele>795.919983</ele>
<time>2021-04-14T16:03:56.933Z</time>
</trkpt>
<trkpt lat="31.7558300" lon="35.1570600">
<ele>795.959961</ele>
<time>2021-04-14T16:03:56.933Z</time>
</trkpt>
<trkpt lat="31.7558500" lon="35.1570400">
<ele>796.059998</ele>
<time>2021-04-14T16:03:56.933Z</time>
</trkpt>
<trkpt lat="31.7559400" lon="35.1569800">
<ele>796.349976</ele>
<time>2021-04-14T16:03:56.933Z</time>
</trkpt>
<trkpt lat="31.7560300" lon="35.1569400">
<ele>796.670044</ele>
<time>2021-04-14T16:03:56.933Z</time>
</trkpt>
<trkpt lat="31.7561300" lon="35.1569200">
<ele>796.369995</ele>
<time>2021-04-14T16:03:56.933Z</time>
</trkpt>
<trkpt lat="31.7562300" lon="35.1569200">
<ele>795.970032</ele>
<time>2021-04-14T16:03:56.933Z</time>
</trkpt>
<trkpt lat="31.7563300" lon="35.1569300">
<ele>795.429993</ele>
<time>2021-04-14T16:03:56.933Z</time>
</trkpt>
<trkpt lat="31.7564300" lon="35.1569600">
<ele>793.830017</ele>
<time>2021-04-14T16:03:56.933Z</time>
</trkpt>
<trkpt lat="31.7565200" lon="35.1570000">
<ele>791.289978</ele>
<time>2021-04-14T16:03:56.934Z</time>
</trkpt>
<trkpt lat="31.7566100" lon="35.1570600">
<ele>788.559998</ele>
<time>2021-04-14T16:03:56.934Z</time>
</trkpt>
<trkpt lat="31.7566100" lon="35.1570700">
<ele>788.279968</ele>
<time>2021-04-14T16:03:56.934Z</time>
</trkpt>
<trkpt lat="31.7565500" lon="35.1571200">
<ele>787.190002</ele>
<time>2021-04-14T16:03:56.934Z</time>
</trkpt>
<trkpt lat="31.7564900" lon="35.1571500">
<ele>786.479980</ele>
<time>2021-04-14T16:03:56.934Z</time>
</trkpt>
<trkpt lat="31.7564100" lon="35.1571900">
<ele>785.240051</ele>
<time>2021-04-14T16:03:56.934Z</time>
</trkpt>
<trkpt lat="31.7563400" lon="35.1572200">
<ele>784.440002</ele>
<time>2021-04-14T16:03:56.934Z</time>
</trkpt>
<trkpt lat="31.7562700" lon="35.1572400">
<ele>784.309998</ele>
<time>2021-04-14T16:03:56.934Z</time>
</trkpt>
<trkpt lat="31.7560100" lon="35.1573000">
<ele>786.210022</ele>
<time>2021-04-14T16:03:56.934Z</time>
</trkpt>
<trkpt lat="31.7559600" lon="35.1573200">
<ele>786.799988</ele>
<time>2021-04-14T16:03:56.934Z</time>
</trkpt>
<trkpt lat="31.7559200" lon="35.1573500">
<ele>786.820007</ele>
<time>2021-04-14T16:03:56.934Z</time>
</trkpt>
<trkpt lat="31.7558900" lon="35.1573900">
<ele>786.260010</ele>
<time>2021-04-14T16:03:56.934Z</time>
</trkpt>
<trkpt lat="31.7558600" lon="35.1574600">
<ele>784.709961</ele>
<time>2021-04-14T16:03:56.934Z</time>
</trkpt>
<trkpt lat="31.7557800" lon="35.1576700">
<ele>780.210022</ele>
<time>2021-04-14T16:03:56.934Z</time>
</trkpt>
<trkpt lat="31.7557000" lon="35.1578600">
<ele>776.469971</ele>
<time>2021-04-14T16:03:56.934Z</time>
</trkpt>
<trkpt lat="31.7556400" lon="35.1579900">
<ele>774.659973</ele>
<time>2021-04-14T16:03:56.934Z</time>
</trkpt>
<trkpt lat="31.7555400" lon="35.1581200">
<ele>774.509949</ele>
<time>2021-04-14T16:03:56.934Z</time>
</trkpt>
<trkpt lat="31.7555100" lon="35.1581500">
<ele>774.899963</ele>
<time>2021-04-14T16:03:56.934Z</time>
</trkpt>
<trkpt lat="31.7554200" lon="35.1582400">
<ele>775.919983</ele>
<time>2021-04-14T16:03:56.934Z</time>
</trkpt>
<trkpt lat="31.7553400" lon="35.1582900">
<ele>777.179993</ele>
<time>2021-04-14T16:03:56.934Z</time>
</trkpt>
<trkpt lat="31.7552700" lon="35.1583300">
<ele>778.139954</ele>
<time>2021-04-14T16:03:56.934Z</time>
</trkpt>
<trkpt lat="31.7553500" lon="35.1584200">
<ele>774.239990</ele>
<time>2021-04-14T16:03:56.934Z</time>
</trkpt>
<trkpt lat="31.7554700" lon="35.1584400">
<ele>771.269958</ele>
<time>2021-04-14T16:03:56.934Z</time>
</trkpt>
<trkpt lat="31.7557200" lon="35.1583200">
<ele>768.769958</ele>
<time>2021-04-14T16:03:56.934Z</time>
</trkpt>
<trkpt lat="31.7557600" lon="35.1582800">
<ele>768.540039</ele>
<time>2021-04-14T16:03:56.934Z</time>
</trkpt>
<trkpt lat="31.7558100" lon="35.1582200">
<ele>768.219971</ele>
<time>2021-04-14T16:03:56.934Z</time>
</trkpt>
<trkpt lat="31.7558600" lon="35.1582200">
<ele>767.869995</ele>
<time>2021-04-14T16:03:56.934Z</time>
</trkpt>
<trkpt lat="31.7558800" lon="35.1582600">
<ele>767.650024</ele>
<time>2021-04-14T16:03:56.934Z</time>
</trkpt>
<trkpt lat="31.7558500" lon="35.1583100">
<ele>767.219971</ele>
<time>2021-04-14T16:03:56.935Z</time>
</trkpt>
<trkpt lat="31.7556100" lon="35.1586600">
<ele>766.159973</ele>
<time>2021-04-14T16:03:56.935Z</time>
</trkpt>
<trkpt lat="31.7554100" lon="35.1588900">
<ele>763.940002</ele>
<time>2021-04-14T16:03:56.935Z</time>
</trkpt>
<trkpt lat="31.7551600" lon="35.1590800">
<ele>759.399963</ele>
<time>2021-04-14T16:03:56.935Z</time>
</trkpt>
<trkpt lat="31.7550400" lon="35.1591400">
<ele>757.790039</ele>
<time>2021-04-14T16:03:56.935Z</time>
</trkpt>
<trkpt lat="31.7544500" lon="35.1592900">
<ele>752.929993</ele>
<time>2021-04-14T16:03:56.935Z</time>
</trkpt>
<trkpt lat="31.7540900" lon="35.1593100">
<ele>747.270020</ele>
<time>2021-04-14T16:03:56.935Z</time>
</trkpt>
<trkpt lat="31.7540300" lon="35.1593300">
<ele>745.739990</ele>
<time>2021-04-14T16:03:56.935Z</time>
</trkpt>
<trkpt lat="31.7539700" lon="35.1593700">
<ele>743.390015</ele>
<time>2021-04-14T16:03:56.935Z</time>
</trkpt>
<trkpt lat="31.7539100" lon="35.1594600">
<ele>739.510010</ele>
<time>2021-04-14T16:03:56.935Z</time>
</trkpt>
<trkpt lat="31.7538800" lon="35.1595900">
<ele>739.359985</ele>
<time>2021-04-14T16:03:56.935Z</time>
</trkpt>
<trkpt lat="31.7537800" lon="35.1596900">
<ele>737.320007</ele>
<time>2021-04-14T16:03:56.935Z</time>
</trkpt>
<trkpt lat="31.7537000" lon="35.1597200">
<ele>735.250000</ele>
<time>2021-04-14T16:03:56.935Z</time>
</trkpt>
<trkpt lat="31.7531200" lon="35.1598700">
<ele>727.210022</ele>
<time>2021-04-14T16:03:56.935Z</time>
</trkpt>
<trkpt lat="31.7526400" lon="35.1600200">
<ele>718.580017</ele>
<time>2021-04-14T16:03:56.935Z</time>
</trkpt>
<trkpt lat="31.7517700" lon="35.1605000">
<ele>715.529968</ele>
<time>2021-04-14T16:03:56.935Z</time>
</trkpt>
<trkpt lat="31.7514500" lon="35.1607200">
<ele>712.850037</ele>
<time>2021-04-14T16:03:56.935Z</time>
</trkpt>
<trkpt lat="31.7513600" lon="35.1608000">
<ele>711.109985</ele>
<time>2021-04-14T16:03:56.935Z</time>
</trkpt>
<trkpt lat="31.7512400" lon="35.1609500">
<ele>711.860046</ele>
<time>2021-04-14T16:03:56.935Z</time>
</trkpt>
<trkpt lat="31.7511900" lon="35.1610400">
<ele>712.479980</ele>
<time>2021-04-14T16:03:56.935Z</time>
</trkpt>
<trkpt lat="31.7511500" lon="35.1611800">
<ele>713.140015</ele>
<time>2021-04-14T16:03:56.935Z</time>
</trkpt>
<trkpt lat="31.7511400" lon="35.1612700">
<ele>713.469971</ele>
<time>2021-04-14T16:03:56.935Z</time>
</trkpt>
<trkpt lat="31.7511800" lon="35.1615100">
<ele>715.380066</ele>
<time>2021-04-14T16:03:56.935Z</time>
</trkpt>
<trkpt lat="31.7512300" lon="35.1617000">
<ele>715.540039</ele>
<time>2021-04-14T16:03:56.935Z</time>
</trkpt>
<trkpt lat="31.7513400" lon="35.1619300">
<ele>713.519958</ele>
<time>2021-04-14T16:03:56.935Z</time>
</trkpt>
<trkpt lat="31.7514400" lon="35.1621000">
<ele>713.369934</ele>
<time>2021-04-14T16:03:56.935Z</time>
</trkpt>
<trkpt lat="31.7514500" lon="35.1621800">
<ele>712.280029</ele>
<time>2021-04-14T16:03:56.935Z</time>
</trkpt>
<trkpt lat="31.7514400" lon="35.1622400">
<ele>711.369995</ele>
<time>2021-04-14T16:03:56.935Z</time>
</trkpt>
<trkpt lat="31.7514000" lon="35.1623400">
<ele>711.059998</ele>
<time>2021-04-14T16:03:56.936Z</time>
</trkpt>
<trkpt lat="31.7514000" lon="35.1623400">
<ele>711.059998</ele>
<time>2021-04-14T16:03:56.936Z</time>
</trkpt>
<trkpt lat="31.7514000" lon="35.1623400">
<ele>711.059998</ele>
<time>2021-04-14T16:03:56.936Z</time>
</trkpt>
<trkpt lat="31.7513200" lon="35.1622800">
<ele>709.219971</ele>
<time>2021-04-14T16:03:56.936Z</time>
</trkpt>
<trkpt lat="31.7510800" lon="35.1620500">
<ele>707.190002</ele>
<time>2021-04-14T16:03:56.936Z</time>
</trkpt>
<trkpt lat="31.7509200" lon="35.1618600">
<ele>705.479980</ele>
<time>2021-04-14T16:03:56.936Z</time>
</trkpt>
<trkpt lat="31.7507600" lon="35.1617200">
<ele>703.130005</ele>
<time>2021-04-14T16:03:56.936Z</time>
</trkpt>
<trkpt lat="31.7505800" lon="35.1615000">
<ele>698.489990</ele>
<time>2021-04-14T16:03:56.936Z</time>
</trkpt>
<trkpt lat="31.7505000" lon="35.1613400">
<ele>695.849976</ele>
<time>2021-04-14T16:03:56.936Z</time>
</trkpt>
<trkpt lat="31.7504500" lon="35.1611800">
<ele>693.979980</ele>
<time>2021-04-14T16:03:56.936Z</time>
</trkpt>
<trkpt lat="31.7504400" lon="35.1610400">
<ele>691.950012</ele>
<time>2021-04-14T16:03:56.936Z</time>
</trkpt>
<trkpt lat="31.7504400" lon="35.1608400">
<ele>688.049988</ele>
<time>2021-04-14T16:03:56.936Z</time>
</trkpt>
<trkpt lat="31.7504700" lon="35.1606700">
<ele>684.709961</ele>
<time>2021-04-14T16:03:56.936Z</time>
</trkpt>
<trkpt lat="31.7506500" lon="35.1601600">
<ele>679.240051</ele>
<time>2021-04-14T16:03:56.936Z</time>
</trkpt>
<trkpt lat="31.7507100" lon="35.1600300">
<ele>677.760010</ele>
<time>2021-04-14T16:03:56.936Z</time>
</trkpt>
<trkpt lat="31.7508500" lon="35.1598300">
<ele>678.229980</ele>
<time>2021-04-14T16:03:56.936Z</time>
</trkpt>
<trkpt lat="31.7508900" lon="35.1597100">
<ele>678.150024</ele>
<time>2021-04-14T16:03:56.936Z</time>
</trkpt>
<trkpt lat="31.7508700" lon="35.1596200">
<ele>677.150024</ele>
<time>2021-04-14T16:03:56.936Z</time>
</trkpt>
<trkpt lat="31.7508500" lon="35.1596000">
<ele>676.530029</ele>
<time>2021-04-14T16:03:56.937Z</time>
</trkpt>
<trkpt lat="31.7501300" lon="35.1590500">
<ele>674.679993</ele>
<time>2021-04-14T16:03:56.937Z</time>
</trkpt>
<trkpt lat="31.7500400" lon="35.1590300">
<ele>674.659973</ele>
<time>2021-04-14T16:03:56.937Z</time>
</trkpt>
<trkpt lat="31.7499600" lon="35.1590200">
<ele>673.699951</ele>
<time>2021-04-14T16:03:56.937Z</time>
</trkpt>
<trkpt lat="31.7498600" lon="35.1589400">
<ele>673.500000</ele>
<time>2021-04-14T16:03:56.937Z</time>
</trkpt>
<trkpt lat="31.7497900" lon="35.1588700">
<ele>673.970032</ele>
<time>2021-04-14T16:03:56.937Z</time>
</trkpt>
<trkpt lat="31.7496700" lon="35.1588300">
<ele>672.759949</ele>
<time>2021-04-14T16:03:56.937Z</time>
</trkpt>
<trkpt lat="31.7496200" lon="35.1587900">
<ele>673.010010</ele>
<time>2021-04-14T16:03:56.937Z</time>
</trkpt>
<trkpt lat="31.7495500" lon="35.1586400">
<ele>676.070007</ele>
<time>2021-04-14T16:03:56.937Z</time>
</trkpt>
<trkpt lat="31.7494800" lon="35.1585600">
<ele>676.380005</ele>
<time>2021-04-14T16:03:56.937Z</time>
</trkpt>
<trkpt lat="31.7494000" lon="35.1585100">
<ele>675.760010</ele>
<time>2021-04-14T16:03:56.937Z</time>
</trkpt>
<trkpt lat="31.7492300" lon="35.1583900">
<ele>674.479980</ele>
<time>2021-04-14T16:03:56.937Z</time>
</trkpt>
<trkpt lat="31.7489100" lon="35.1582200">
<ele>670.539978</ele>
<time>2021-04-14T16:03:56.937Z</time>
</trkpt>
<trkpt lat="31.7488500" lon="35.1581500">
<ele>670.049988</ele>
<time>2021-04-14T16:03:56.937Z</time>
</trkpt>
<trkpt lat="31.7487700" lon="35.1579800">
<ele>669.510010</ele>
<time>2021-04-14T16:03:56.937Z</time>
</trkpt>
<trkpt lat="31.7487300" lon="35.1578200">
<ele>669.809998</ele>
<time>2021-04-14T16:03:56.937Z</time>
</trkpt>
<trkpt lat="31.7487200" lon="35.1576300">
<ele>670.820007</ele>
<time>2021-04-14T16:03:56.937Z</time>
</trkpt>
<trkpt lat="31.7487100" lon="35.1573600">
<ele>671.280029</ele>
<time>2021-04-14T16:03:56.937Z</time>
</trkpt>
<trkpt lat="31.7487300" lon="35.1571500">
<ele>671.719971</ele>
<time>2021-04-14T16:03:56.937Z</time>
</trkpt>
<trkpt lat="31.7487500" lon="35.1568000">
<ele>672.759949</ele>
<time>2021-04-14T16:03:56.937Z</time>
</trkpt>
<trkpt lat="31.7486000" lon="35.1566300">
<ele>670.920044</ele>
<time>2021-04-14T16:03:56.937Z</time>
</trkpt>
<trkpt lat="31.7483700" lon="35.1565400">
<ele>668.230042</ele>
<time>2021-04-14T16:03:56.938Z</time>
</trkpt>
<trkpt lat="31.7483600" lon="35.1565400">
<ele>668.089966</ele>
<time>2021-04-14T16:03:56.938Z</time>
</trkpt>
<trkpt lat="31.7481800" lon="35.1564900">
<ele>668.009949</ele>
<time>2021-04-14T16:03:56.938Z</time>
</trkpt>
<trkpt lat="31.7480000" lon="35.1564400">
<ele>669.119995</ele>
<time>2021-04-14T16:03:56.938Z</time>
</trkpt>
<trkpt lat="31.7477800" lon="35.1563300">
<ele>672.909973</ele>
<time>2021-04-14T16:03:56.938Z</time>
</trkpt>
<trkpt lat="31.7476300" lon="35.1561500">
<ele>676.299988</ele>
<time>2021-04-14T16:03:56.938Z</time>
</trkpt>
<trkpt lat="31.7475300" lon="35.1560500">
<ele>676.710022</ele>
<time>2021-04-14T16:03:56.938Z</time>
</trkpt>
<trkpt lat="31.7475300" lon="35.1560500">
<ele>676.710022</ele>
<time>2021-04-14T16:03:56.938Z</time>
</trkpt>
<trkpt lat="31.7475300" lon="35.1560500">
<ele>676.710022</ele>
<time>2021-04-14T16:03:56.938Z</time>
</trkpt>
<trkpt lat="31.7475300" lon="35.1560500">
<ele>676.710022</ele>
<time>2021-04-14T16:03:56.938Z</time>
</trkpt>
<trkpt lat="31.7474300" lon="35.1559700">
<ele>676.530029</ele>
<time>2021-04-14T16:03:56.938Z</time>
</trkpt>
<trkpt lat="31.7475300" lon="35.1560900">
<ele>675.940002</ele>
<time>2021-04-14T16:03:56.938Z</time>
</trkpt>
<trkpt lat="31.7476600" lon="35.1563100">
<ele>672.350037</ele>
<time>2021-04-14T16:03:56.938Z</time>
</trkpt>
<trkpt lat="31.7477800" lon="35.1564700">
<ele>667.790039</ele>
<time>2021-04-14T16:03:56.938Z</time>
</trkpt>
<trkpt lat="31.7479400" lon="35.1565800">
<ele>663.830017</ele>
<time>2021-04-14T16:03:56.938Z</time>
</trkpt>
<trkpt lat="31.7484700" lon="35.1567300">
<ele>667.609985</ele>
<time>2021-04-14T16:03:56.938Z</time>
</trkpt>
<trkpt lat="31.7485600" lon="35.1568000">
<ele>669.330017</ele>
<time>2021-04-14T16:03:56.938Z</time>
</trkpt>
<trkpt lat="31.7486100" lon="35.1568600">
<ele>670.279968</ele>
<time>2021-04-14T16:03:56.938Z</time>
</trkpt>
<trkpt lat="31.7486100" lon="35.1569900">
<ele>669.809998</ele>
<time>2021-04-14T16:03:56.938Z</time>
</trkpt>
<trkpt lat="31.7484500" lon="35.1574300">
<ele>665.689941</ele>
<time>2021-04-14T16:03:56.938Z</time>
</trkpt>
<trkpt lat="31.7483700" lon="35.1578800">
<ele>663.190002</ele>
<time>2021-04-14T16:03:56.938Z</time>
</trkpt>
<trkpt lat="31.7484700" lon="35.1581900">
<ele>662.750000</ele>
<time>2021-04-14T16:03:56.938Z</time>
</trkpt>
<trkpt lat="31.7487300" lon="35.1585700">
<ele>663.010010</ele>
<time>2021-04-14T16:03:56.938Z</time>
</trkpt>
<trkpt lat="31.7491400" lon="35.1589500">
<ele>661.929993</ele>
<time>2021-04-14T16:03:56.938Z</time>
</trkpt>
<trkpt lat="31.7494200" lon="35.1592100">
<ele>659.179993</ele>
<time>2021-04-14T16:03:56.938Z</time>
</trkpt>
<trkpt lat="31.7494900" lon="35.1592800">
<ele>659.130005</ele>
<time>2021-04-14T16:03:56.938Z</time>
</trkpt>
<trkpt lat="31.7497600" lon="35.1595300">
<ele>656.839966</ele>
<time>2021-04-14T16:03:56.938Z</time>
</trkpt>
<trkpt lat="31.7497600" lon="35.1596100">
<ele>655.000000</ele>
<time>2021-04-14T16:03:56.938Z</time>
</trkpt>
<trkpt lat="31.7497600" lon="35.1596100">
<ele>655.000000</ele>
<time>2021-04-14T16:03:56.938Z</time>
</trkpt>
<trkpt lat="31.7497600" lon="35.1596800">
<ele>653.380005</ele>
<time>2021-04-14T16:03:56.938Z</time>
</trkpt>
<trkpt lat="31.7497300" lon="35.1598200">
<ele>651.770020</ele>
<time>2021-04-14T16:03:56.938Z</time>
</trkpt>
<trkpt lat="31.7494500" lon="35.1599800">
<ele>650.229980</ele>
<time>2021-04-14T16:03:56.938Z</time>
</trkpt>
<trkpt lat="31.7493300" lon="35.1600300">
<ele>650.929993</ele>
<time>2021-04-14T16:03:56.938Z</time>
</trkpt>
<trkpt lat="31.7491800" lon="35.1601900">
<ele>653.099976</ele>
<time>2021-04-14T16:03:56.938Z</time>
</trkpt>
<trkpt lat="31.7491300" lon="35.1603200">
<ele>653.619995</ele>
<time>2021-04-14T16:03:56.938Z</time>
</trkpt>
<trkpt lat="31.7490400" lon="35.1602500">
<ele>651.779968</ele>
<time>2021-04-14T16:03:56.938Z</time>
</trkpt>
<trkpt lat="31.7489400" lon="35.1602000">
<ele>649.440002</ele>
<time>2021-04-14T16:03:56.938Z</time>
</trkpt>
<trkpt lat="31.7488900" lon="35.1602000">
<ele>648.619995</ele>
<time>2021-04-14T16:03:56.938Z</time>
</trkpt>
<trkpt lat="31.7487600" lon="35.1602600">
<ele>646.000000</ele>
<time>2021-04-14T16:03:56.938Z</time>
</trkpt>
<trkpt lat="31.7487600" lon="35.1602600">
<ele>646.000000</ele>
<time>2021-04-14T16:03:56.938Z</time>
</trkpt>
<trkpt lat="31.7487600" lon="35.1602600">
<ele>646.000000</ele>
<time>2021-04-14T16:03:56.938Z</time>
</trkpt>
<trkpt lat="31.7486900" lon="35.1602800">
<ele>644.300049</ele>
<time>2021-04-14T16:03:56.938Z</time>
</trkpt>
<trkpt lat="31.7484700" lon="35.1603100">
<ele>639.919983</ele>
<time>2021-04-14T16:03:56.938Z</time>
</trkpt>
<trkpt lat="31.7484000" lon="35.1603600">
<ele>639.229980</ele>
<time>2021-04-14T16:03:56.939Z</time>
</trkpt>
<trkpt lat="31.7483300" lon="35.1605100">
<ele>639.450012</ele>
<time>2021-04-14T16:03:56.939Z</time>
</trkpt>
<trkpt lat="31.7482700" lon="35.1605500">
<ele>638.809998</ele>
<time>2021-04-14T16:03:56.939Z</time>
</trkpt>
<trkpt lat="31.7482400" lon="35.1604700">
<ele>637.709961</ele>
<time>2021-04-14T16:03:56.939Z</time>
</trkpt>
<trkpt lat="31.7482800" lon="35.1603800">
<ele>637.510010</ele>
<time>2021-04-14T16:03:56.939Z</time>
</trkpt>
<trkpt lat="31.7483000" lon="35.1603200">
<ele>637.159973</ele>
<time>2021-04-14T16:03:56.939Z</time>
</trkpt>
<trkpt lat="31.7482900" lon="35.1602300">
<ele>636.030029</ele>
<time>2021-04-14T16:03:56.939Z</time>
</trkpt>
<trkpt lat="31.7482400" lon="35.1602300">
<ele>635.700012</ele>
<time>2021-04-14T16:03:56.939Z</time>
</trkpt>
<trkpt lat="31.7481700" lon="35.1602700">
<ele>635.729980</ele>
<time>2021-04-14T16:03:56.939Z</time>
</trkpt>
<trkpt lat="31.7481600" lon="35.1604400">
<ele>636.409973</ele>
<time>2021-04-14T16:03:56.939Z</time>
</trkpt>
<trkpt lat="31.7481700" lon="35.1605800">
<ele>636.970032</ele>
<time>2021-04-14T16:03:56.939Z</time>
</trkpt>
<trkpt lat="31.7481300" lon="35.1606600">
<ele>635.959961</ele>
<time>2021-04-14T16:03:56.939Z</time>
</trkpt>
<trkpt lat="31.7480700" lon="35.1606700">
<ele>634.850037</ele>
<time>2021-04-14T16:03:56.939Z</time>
</trkpt>
<trkpt lat="31.7480200" lon="35.1605900">
<ele>634.349976</ele>
<time>2021-04-14T16:03:56.939Z</time>
</trkpt>
<trkpt lat="31.7480600" lon="35.1604400">
<ele>635.059998</ele>
<time>2021-04-14T16:03:56.939Z</time>
</trkpt>
<trkpt lat="31.7480900" lon="35.1602700">
<ele>635.159973</ele>
<time>2021-04-14T16:03:56.939Z</time>
</trkpt>
<trkpt lat="31.7480800" lon="35.1602100">
<ele>634.419983</ele>
<time>2021-04-14T16:03:56.939Z</time>
</trkpt>
<trkpt lat="31.7480400" lon="35.1600900">
<ele>632.729980</ele>
<time>2021-04-14T16:03:56.939Z</time>
</trkpt>
<trkpt lat="31.7479900" lon="35.1601400">
<ele>632.450012</ele>
<time>2021-04-14T16:03:56.939Z</time>
</trkpt>
<trkpt lat="31.7479600" lon="35.1601800">
<ele>632.350037</ele>
<time>2021-04-14T16:03:56.939Z</time>
</trkpt>
<trkpt lat="31.7479600" lon="35.1601800">
<ele>632.350037</ele>
<time>2021-04-14T16:03:56.939Z</time>
</trkpt>
<trkpt lat="31.7479600" lon="35.1601800">
<ele>632.350037</ele>
<time>2021-04-14T16:03:56.939Z</time>
</trkpt>
<trkpt lat="31.7479600" lon="35.1601800">
<ele>632.350037</ele>
<time>2021-04-14T16:03:56.939Z</time>
</trkpt>
<trkpt lat="31.7479100" lon="35.1602400">
<ele>632.039978</ele>
<time>2021-04-14T16:03:56.939Z</time>
</trkpt>
<trkpt lat="31.7478500" lon="35.1604400">
<ele>631.729980</ele>
<time>2021-04-14T16:03:56.939Z</time>
</trkpt>
<trkpt lat="31.7478300" lon="35.1606000">
<ele>631.460022</ele>
<time>2021-04-14T16:03:56.939Z</time>
</trkpt>
<trkpt lat="31.7478500" lon="35.1607100">
<ele>631.070007</ele>
<time>2021-04-14T16:03:56.939Z</time>
</trkpt>
<trkpt lat="31.7479300" lon="35.1608500">
<ele>631.510010</ele>
<time>2021-04-14T16:03:56.940Z</time>
</trkpt>
<trkpt lat="31.7482500" lon="35.1612600">
<ele>635.580017</ele>
<time>2021-04-14T16:03:56.940Z</time>
</trkpt>
<trkpt lat="31.7482700" lon="35.1613500">
<ele>636.299988</ele>
<time>2021-04-14T16:03:56.940Z</time>
</trkpt>
<trkpt lat="31.7482300" lon="35.1614400">
<ele>635.880005</ele>
<time>2021-04-14T16:03:56.940Z</time>
</trkpt>
<trkpt lat="31.7481300" lon="35.1615100">
<ele>633.860046</ele>
<time>2021-04-14T16:03:56.940Z</time>
</trkpt>
<trkpt lat="31.7475700" lon="35.1616800">
<ele>624.549988</ele>
<time>2021-04-14T16:03:56.940Z</time>
</trkpt>
<trkpt lat="31.7472600" lon="35.1618200">
<ele>626.240051</ele>
<time>2021-04-14T16:03:56.940Z</time>
</trkpt>
<trkpt lat="31.7471600" lon="35.1618800">
<ele>627.559998</ele>
<time>2021-04-14T16:03:56.940Z</time>
</trkpt>
<trkpt lat="31.7470600" lon="35.1619800">
<ele>629.469971</ele>
<time>2021-04-14T16:03:56.940Z</time>
</trkpt>
<trkpt lat="31.7467000" lon="35.1625600">
<ele>632.129944</ele>
<time>2021-04-14T16:03:56.940Z</time>
</trkpt>
<trkpt lat="31.7464700" lon="35.1631100">
<ele>635.309998</ele>
<time>2021-04-14T16:03:56.940Z</time>
</trkpt>
<trkpt lat="31.7463600" lon="35.1632800">
<ele>633.879944</ele>
<time>2021-04-14T16:03:56.940Z</time>
</trkpt>
<trkpt lat="31.7462200" lon="35.1634000">
<ele>630.719971</ele>
<time>2021-04-14T16:03:56.940Z</time>
</trkpt>
<trkpt lat="31.7461300" lon="35.1634700">
<ele>629.380005</ele>
<time>2021-04-14T16:03:56.940Z</time>
</trkpt>
<trkpt lat="31.7461100" lon="35.1634400">
<ele>628.510010</ele>
<time>2021-04-14T16:03:56.940Z</time>
</trkpt>
<trkpt lat="31.7460800" lon="35.1634200">
<ele>627.600037</ele>
<time>2021-04-14T16:03:56.940Z</time>
</trkpt>
<trkpt lat="31.7460400" lon="35.1634100">
<ele>626.589966</ele>
<time>2021-04-14T16:03:56.940Z</time>
</trkpt>
<trkpt lat="31.7460100" lon="35.1634200">
<ele>626.149963</ele>
<time>2021-04-14T16:03:56.940Z</time>
</trkpt>
<trkpt lat="31.7459800" lon="35.1634400">
<ele>625.960022</ele>
<time>2021-04-14T16:03:56.940Z</time>
</trkpt>
<trkpt lat="31.7459600" lon="35.1634600">
<ele>626.010010</ele>
<time>2021-04-14T16:03:56.940Z</time>
</trkpt>
<trkpt lat="31.7459400" lon="35.1635000">
<ele>626.570007</ele>
<time>2021-04-14T16:03:56.940Z</time>
</trkpt>
<trkpt lat="31.7459400" lon="35.1635400">
<ele>627.500000</ele>
<time>2021-04-14T16:03:56.940Z</time>
</trkpt>
<trkpt lat="31.7459500" lon="35.1635800">
<ele>628.549988</ele>
<time>2021-04-14T16:03:56.940Z</time>
</trkpt>
<trkpt lat="31.7456900" lon="35.1638000">
<ele>628.859985</ele>
<time>2021-04-14T16:03:56.941Z</time>
</trkpt>
<trkpt lat="31.7445200" lon="35.1649800">
<ele>631.000000</ele>
<time>2021-04-14T16:03:56.941Z</time>
</trkpt>
<trkpt lat="31.7443400" lon="35.1651900">
<ele>632.539978</ele>
<time>2021-04-14T16:03:56.941Z</time>
</trkpt>
<trkpt lat="31.7442300" lon="35.1653500">
<ele>633.089966</ele>
<time>2021-04-14T16:03:56.941Z</time>
</trkpt>
<trkpt lat="31.7440300" lon="35.1658100">
<ele>635.229980</ele>
<time>2021-04-14T16:03:56.941Z</time>
</trkpt>
<trkpt lat="31.7439800" lon="35.1659800">
<ele>636.390015</ele>
<time>2021-04-14T16:03:56.941Z</time>
</trkpt>
<trkpt lat="31.7439500" lon="35.1661300">
<ele>637.200012</ele>
<time>2021-04-14T16:03:56.941Z</time>
</trkpt>
<trkpt lat="31.7439100" lon="35.1666400">
<ele>638.369995</ele>
<time>2021-04-14T16:03:56.941Z</time>
</trkpt>
<trkpt lat="31.7439000" lon="35.1669100">
<ele>638.200012</ele>
<time>2021-04-14T16:03:56.941Z</time>
</trkpt>
<trkpt lat="31.7439000" lon="35.1671000">
<ele>638.200012</ele>
<time>2021-04-14T16:03:56.941Z</time>
</trkpt>
<trkpt lat="31.7439000" lon="35.1673200">
<ele>638.539978</ele>
<time>2021-04-14T16:03:56.941Z</time>
</trkpt>
<trkpt lat="31.7438900" lon="35.1677500">
<ele>639.010010</ele>
<time>2021-04-14T16:03:56.941Z</time>
</trkpt>
<trkpt lat="31.7438600" lon="35.1681800">
<ele>638.820007</ele>
<time>2021-04-14T16:03:56.941Z</time>
</trkpt>
<trkpt lat="31.7436900" lon="35.1691300">
<ele>638.090027</ele>
<time>2021-04-14T16:03:56.941Z</time>
</trkpt>
<trkpt lat="31.7436800" lon="35.1691900">
<ele>637.960022</ele>
<time>2021-04-14T16:03:56.941Z</time>
</trkpt>
<trkpt lat="31.7436000" lon="35.1701600">
<ele>644.559998</ele>
<time>2021-04-14T16:03:56.942Z</time>
</trkpt>
<trkpt lat="31.7436100" lon="35.1704300">
<ele>643.320007</ele>
<time>2021-04-14T16:03:56.942Z</time>
</trkpt>
<trkpt lat="31.7437000" lon="35.1709100">
<ele>641.960022</ele>
<time>2021-04-14T16:03:56.942Z</time>
</trkpt>
<trkpt lat="31.7437100" lon="35.1711800">
<ele>641.330017</ele>
<time>2021-04-14T16:03:56.942Z</time>
</trkpt>
<trkpt lat="31.7436300" lon="35.1722500">
<ele>642.530029</ele>
<time>2021-04-14T16:03:56.942Z</time>
</trkpt>
<trkpt lat="31.7436300" lon="35.1724800">
<ele>643.529968</ele>
<time>2021-04-14T16:03:56.942Z</time>
</trkpt>
<trkpt lat="31.7435700" lon="35.1739300">
<ele>644.690002</ele>
<time>2021-04-14T16:03:56.942Z</time>
</trkpt>
<trkpt lat="31.7437000" lon="35.1746100">
<ele>644.260010</ele>
<time>2021-04-14T16:03:56.942Z</time>
</trkpt>
<trkpt lat="31.7437500" lon="35.1747800">
<ele>643.789978</ele>
<time>2021-04-14T16:03:56.942Z</time>
</trkpt>
<trkpt lat="31.7438100" lon="35.1749400">
<ele>644.510010</ele>
<time>2021-04-14T16:03:56.942Z</time>
</trkpt>
<trkpt lat="31.7439000" lon="35.1751000">
<ele>645.450012</ele>
<time>2021-04-14T16:03:56.942Z</time>
</trkpt>
<trkpt lat="31.7441700" lon="35.1755900">
<ele>644.099976</ele>
<time>2021-04-14T16:03:56.942Z</time>
</trkpt>
<trkpt lat="31.7442800" lon="35.1757300">
<ele>646.390015</ele>
<time>2021-04-14T16:03:56.942Z</time>
</trkpt>
<trkpt lat="31.7445300" lon="35.1759200">
<ele>646.840027</ele>
<time>2021-04-14T16:03:56.942Z</time>
</trkpt>
<trkpt lat="31.7445800" lon="35.1759900">
<ele>645.869995</ele>
<time>2021-04-14T16:03:56.942Z</time>
</trkpt>
<trkpt lat="31.7447600" lon="35.1762200">
<ele>643.809998</ele>
<time>2021-04-14T16:03:56.942Z</time>
</trkpt>
<trkpt lat="31.7447000" lon="35.1762800">
<ele>642.279968</ele>
<time>2021-04-14T16:03:56.942Z</time>
</trkpt>
<trkpt lat="31.7445700" lon="35.1761200">
<ele>643.210022</ele>
<time>2021-04-14T16:03:56.942Z</time>
</trkpt>
<trkpt lat="31.7445500" lon="35.1761300">
<ele>642.829956</ele>
<time>2021-04-14T16:03:56.942Z</time>
</trkpt>
<trkpt lat="31.7445500" lon="35.1761400">
<ele>642.660034</ele>
<time>2021-04-14T16:03:56.942Z</time>
</trkpt>
<trkpt lat="31.7445500" lon="35.1761400">
<ele>642.660034</ele>
<time>2021-04-14T16:03:56.942Z</time>
</trkpt>
<trkpt lat="31.7446800" lon="35.1763200">
<ele>641.419983</ele>
<time>2021-04-14T16:03:56.942Z</time>
</trkpt>
<trkpt lat="31.7447000" lon="35.1764300">
<ele>640.109985</ele>
<time>2021-04-14T16:03:56.942Z</time>
</trkpt>
<trkpt lat="31.7445900" lon="35.1765200">
<ele>637.659973</ele>
<time>2021-04-14T16:03:56.942Z</time>
</trkpt>
<trkpt lat="31.7445900" lon="35.1765200">
<ele>637.659973</ele>
<time>2021-04-14T16:03:56.943Z</time>
</trkpt>
<trkpt lat="31.7445900" lon="35.1765200">
<ele>637.659973</ele>
<time>2021-04-14T16:03:56.943Z</time>
</trkpt>
<trkpt lat="31.7446700" lon="35.1767500">
<ele>635.779968</ele>
<time>2021-04-14T16:03:56.943Z</time>
</trkpt>
<trkpt lat="31.7447500" lon="35.1772000">
<ele>634.709961</ele>
<time>2021-04-14T16:03:56.943Z</time>
</trkpt>
<trkpt lat="31.7447200" lon="35.1772100">
<ele>633.990051</ele>
<time>2021-04-14T16:03:56.943Z</time>
</trkpt>
<trkpt lat="31.7446800" lon="35.1770700">
<ele>633.849976</ele>
<time>2021-04-14T16:03:56.943Z</time>
</trkpt>
<trkpt lat="31.7447000" lon="35.1770600">
<ele>633.919983</ele>
<time>2021-04-14T16:03:56.943Z</time>
</trkpt>
<trkpt lat="31.7447000" lon="35.1770600">
<ele>633.919983</ele>
<time>2021-04-14T16:03:56.943Z</time>
</trkpt>
<trkpt lat="31.7447000" lon="35.1771700">
<ele>633.919983</ele>
<time>2021-04-14T16:03:56.943Z</time>
</trkpt>
<trkpt lat="31.7446500" lon="35.1769900">
<ele>633.739990</ele>
<time>2021-04-14T16:03:56.943Z</time>
</trkpt>
<trkpt lat="31.7446500" lon="35.1769900">
<ele>633.739990</ele>
<time>2021-04-14T16:03:56.943Z</time>
</trkpt>
<trkpt lat="31.7445500" lon="35.1765900">
<ele>636.520020</ele>
<time>2021-04-14T16:03:56.943Z</time>
</trkpt>
<trkpt lat="31.7445100" lon="35.1766000">
<ele>636.069946</ele>
<time>2021-04-14T16:03:56.943Z</time>
</trkpt>
<trkpt lat="31.7444400" lon="35.1766400">
<ele>635.190002</ele>
<time>2021-04-14T16:03:56.943Z</time>
</trkpt>
<trkpt lat="31.7443400" lon="35.1767000">
<ele>634.850037</ele>
<time>2021-04-14T16:03:56.943Z</time>
</trkpt>
<trkpt lat="31.7442000" lon="35.1767500">
<ele>634.930054</ele>
<time>2021-04-14T16:03:56.943Z</time>
</trkpt>
<trkpt lat="31.7441400" lon="35.1767800">
<ele>635.099976</ele>
<time>2021-04-14T16:03:56.943Z</time>
</trkpt>
<trkpt lat="31.7441100" lon="35.1767900">
<ele>635.200012</ele>
<time>2021-04-14T16:03:56.943Z</time>
</trkpt>
<trkpt lat="31.7438400" lon="35.1768900">
<ele>636.489990</ele>
<time>2021-04-14T16:03:56.943Z</time>
</trkpt>
<trkpt lat="31.7438700" lon="35.1770000">
<ele>636.390015</ele>
<time>2021-04-14T16:03:56.943Z</time>
</trkpt>
<trkpt lat="31.7438300" lon="35.1771000">
<ele>637.080017</ele>
<time>2021-04-14T16:03:56.943Z</time>
</trkpt>
<trkpt lat="31.7438300" lon="35.1772800">
<ele>637.630005</ele>
<time>2021-04-14T16:03:56.943Z</time>
</trkpt>
<trkpt lat="31.7438900" lon="35.1777000">
<ele>639.429993</ele>
<time>2021-04-14T16:03:56.943Z</time>
</trkpt>
<trkpt lat="31.7440200" lon="35.1783100">
<ele>640.969971</ele>
<time>2021-04-14T16:03:56.944Z</time>
</trkpt>
<trkpt lat="31.7440600" lon="35.1785100">
<ele>642.279968</ele>
<time>2021-04-14T16:03:56.944Z</time>
</trkpt>
<trkpt lat="31.7441500" lon="35.1788400">
<ele>643.979980</ele>
<time>2021-04-14T16:03:56.944Z</time>
</trkpt>
<trkpt lat="31.7444100" lon="35.1795700">
<ele>645.049988</ele>
<time>2021-04-14T16:03:56.944Z</time>
</trkpt>
<trkpt lat="31.7445800" lon="35.1801500">
<ele>647.070007</ele>
<time>2021-04-14T16:03:56.944Z</time>
</trkpt>
<trkpt lat="31.7446500" lon="35.1803300">
<ele>648.149963</ele>
<time>2021-04-14T16:03:56.944Z</time>
</trkpt>
<trkpt lat="31.7448900" lon="35.1809900">
<ele>649.580017</ele>
<time>2021-04-14T16:03:56.944Z</time>
</trkpt>
<trkpt lat="31.7450400" lon="35.1812500">
<ele>649.789978</ele>
<time>2021-04-14T16:03:56.944Z</time>
</trkpt>
<trkpt lat="31.7451000" lon="35.1813600">
<ele>650.049988</ele>
<time>2021-04-14T16:03:56.944Z</time>
</trkpt>
<trkpt lat="31.7452500" lon="35.1815500">
<ele>652.960022</ele>
<time>2021-04-14T16:03:56.944Z</time>
</trkpt>
<trkpt lat="31.7454800" lon="35.1818000">
<ele>653.280029</ele>
<time>2021-04-14T16:03:56.944Z</time>
</trkpt>
<trkpt lat="31.7455600" lon="35.1818800">
<ele>650.640015</ele>
<time>2021-04-14T16:03:56.944Z</time>
</trkpt>
<trkpt lat="31.7456800" lon="35.1819500">
<ele>648.359985</ele>
<time>2021-04-14T16:03:56.944Z</time>
</trkpt>
<trkpt lat="31.7457700" lon="35.1820000">
<ele>647.880005</ele>
<time>2021-04-14T16:03:56.945Z</time>
</trkpt>
<trkpt lat="31.7459600" lon="35.1820900">
<ele>647.119995</ele>
<time>2021-04-14T16:03:56.945Z</time>
</trkpt>
<trkpt lat="31.7463300" lon="35.1823300">
<ele>651.320007</ele>
<time>2021-04-14T16:03:56.945Z</time>
</trkpt>
<trkpt lat="31.7464300" lon="35.1823600">
<ele>651.790039</ele>
<time>2021-04-14T16:03:56.945Z</time>
</trkpt>
<trkpt lat="31.7466500" lon="35.1823800">
<ele>653.330017</ele>
<time>2021-04-14T16:03:56.945Z</time>
</trkpt>
<trkpt lat="31.7467500" lon="35.1824200">
<ele>655.310059</ele>
<time>2021-04-14T16:03:56.945Z</time>
</trkpt>
<trkpt lat="31.7468900" lon="35.1825600">
<ele>655.979980</ele>
<time>2021-04-14T16:03:56.945Z</time>
</trkpt>
<trkpt lat="31.7470700" lon="35.1827100">
<ele>656.510010</ele>
<time>2021-04-14T16:03:56.945Z</time>
</trkpt>
<trkpt lat="31.7472200" lon="35.1828700">
<ele>655.639954</ele>
<time>2021-04-14T16:03:56.945Z</time>
</trkpt>
<trkpt lat="31.7472700" lon="35.1830200">
<ele>653.229980</ele>
<time>2021-04-14T16:03:56.945Z</time>
</trkpt>
<trkpt lat="31.7473200" lon="35.1833400">
<ele>651.119995</ele>
<time>2021-04-14T16:03:56.945Z</time>
</trkpt>
<trkpt lat="31.7473300" lon="35.1834200">
<ele>651.400024</ele>
<time>2021-04-14T16:03:56.945Z</time>
</trkpt>
<trkpt lat="31.7472900" lon="35.1834400">
<ele>650.659973</ele>
<time>2021-04-14T16:03:56.945Z</time>
</trkpt>
<trkpt lat="31.7472700" lon="35.1834800">
<ele>650.380005</ele>
<time>2021-04-14T16:03:56.945Z</time>
</trkpt>
<trkpt lat="31.7472600" lon="35.1835600">
<ele>650.410034</ele>
<time>2021-04-14T16:03:56.945Z</time>
</trkpt>
<trkpt lat="31.7472600" lon="35.1837400">
<ele>651.469971</ele>
<time>2021-04-14T16:03:56.945Z</time>
</trkpt>
<trkpt lat="31.7472600" lon="35.1838100">
<ele>651.979980</ele>
<time>2021-04-14T16:03:56.945Z</time>
</trkpt>
<trkpt lat="31.7472700" lon="35.1839000">
<ele>652.830017</ele>
<time>2021-04-14T16:03:56.945Z</time>
</trkpt>
<trkpt lat="31.7472800" lon="35.1839300">
<ele>653.359985</ele>
<time>2021-04-14T16:03:56.945Z</time>
</trkpt>
<trkpt lat="31.7472900" lon="35.1839900">
<ele>654.250000</ele>
<time>2021-04-14T16:03:56.945Z</time>
</trkpt>
<trkpt lat="31.7473600" lon="35.1840800">
<ele>656.049988</ele>
<time>2021-04-14T16:03:56.946Z</time>
</trkpt>
<trkpt lat="31.7474500" lon="35.1842500">
<ele>659.300049</ele>
<time>2021-04-14T16:03:56.946Z</time>
</trkpt>
<trkpt lat="31.7475400" lon="35.1844100">
<ele>661.710022</ele>
<time>2021-04-14T16:03:56.946Z</time>
</trkpt>
<trkpt lat="31.7475800" lon="35.1844800">
<ele>661.380005</ele>
<time>2021-04-14T16:03:56.946Z</time>
</trkpt>
<trkpt lat="31.7476500" lon="35.1848100">
<ele>659.670044</ele>
<time>2021-04-14T16:03:56.946Z</time>
</trkpt>
<trkpt lat="31.7476600" lon="35.1849500">
<ele>659.969971</ele>
<time>2021-04-14T16:03:56.946Z</time>
</trkpt>
<trkpt lat="31.7476400" lon="35.1849700">
<ele>660.370056</ele>
<time>2021-04-14T16:03:56.946Z</time>
</trkpt>
<trkpt lat="31.7476100" lon="35.1849700">
<ele>660.889954</ele>
<time>2021-04-14T16:03:56.946Z</time>
</trkpt>
<trkpt lat="31.7475600" lon="35.1849700">
<ele>661.750000</ele>
<time>2021-04-14T16:03:56.946Z</time>
</trkpt>
<trkpt lat="31.7473000" lon="35.1847200">
<ele>664.589966</ele>
<time>2021-04-14T16:03:56.946Z</time>
</trkpt>
<trkpt lat="31.7472200" lon="35.1846600">
<ele>665.529968</ele>
<time>2021-04-14T16:03:56.946Z</time>
</trkpt>
<trkpt lat="31.7472200" lon="35.1847000">
<ele>665.819946</ele>
<time>2021-04-14T16:03:56.946Z</time>
</trkpt>
<trkpt lat="31.7473100" lon="35.1848600">
<ele>665.070007</ele>
<time>2021-04-14T16:03:56.946Z</time>
</trkpt>
<trkpt lat="31.7473400" lon="35.1848800">
<ele>664.690002</ele>
<time>2021-04-14T16:03:56.946Z</time>
</trkpt>
<trkpt lat="31.7474500" lon="35.1850700">
<ele>663.859985</ele>
<time>2021-04-14T16:03:56.946Z</time>
</trkpt>
<trkpt lat="31.7476700" lon="35.1855700">
<ele>657.720032</ele>
<time>2021-04-14T16:03:56.946Z</time>
</trkpt>
<trkpt lat="31.7477600" lon="35.1858500">
<ele>654.820007</ele>
<time>2021-04-14T16:03:56.946Z</time>
</trkpt>
<trkpt lat="31.7477700" lon="35.1859800">
<ele>655.849976</ele>
<time>2021-04-14T16:03:56.946Z</time>
</trkpt>
<trkpt lat="31.7477700" lon="35.1861900">
<ele>657.539978</ele>
<time>2021-04-14T16:03:56.946Z</time>
</trkpt>
<trkpt lat="31.7477600" lon="35.1863100">
<ele>658.340027</ele>
<time>2021-04-14T16:03:56.946Z</time>
</trkpt>
<trkpt lat="31.7476400" lon="35.1870800">
<ele>657.739990</ele>
<time>2021-04-14T16:03:56.946Z</time>
</trkpt>
<trkpt lat="31.7475700" lon="35.1875300">
<ele>656.520020</ele>
<time>2021-04-14T16:03:56.946Z</time>
</trkpt>
<trkpt lat="31.7474600" lon="35.1880100">
<ele>659.479980</ele>
<time>2021-04-14T16:03:56.946Z</time>
</trkpt>
<trkpt lat="31.7473400" lon="35.1881700">
<ele>658.310059</ele>
<time>2021-04-14T16:03:56.946Z</time>
</trkpt>
<trkpt lat="31.7472800" lon="35.1882700">
<ele>656.739990</ele>
<time>2021-04-14T16:03:56.946Z</time>
</trkpt>
<trkpt lat="31.7473100" lon="35.1883000">
<ele>657.099976</ele>
<time>2021-04-14T16:03:56.946Z</time>
</trkpt>
<trkpt lat="31.7473500" lon="35.1882900">
<ele>657.939941</ele>
<time>2021-04-14T16:03:56.946Z</time>
</trkpt>
<trkpt lat="31.7473200" lon="35.1883700">
<ele>657.110046</ele>
<time>2021-04-14T16:03:56.946Z</time>
</trkpt>
<trkpt lat="31.7472900" lon="35.1884000">
<ele>656.460022</ele>
<time>2021-04-14T16:03:56.947Z</time>
</trkpt>
<trkpt lat="31.7471800" lon="35.1884500">
<ele>655.659973</ele>
<time>2021-04-14T16:03:56.947Z</time>
</trkpt>
<trkpt lat="31.7470900" lon="35.1885200">
<ele>656.579956</ele>
<time>2021-04-14T16:03:56.947Z</time>
</trkpt>
<trkpt lat="31.7471000" lon="35.1885500">
<ele>656.269958</ele>
<time>2021-04-14T16:03:56.947Z</time>
</trkpt>
<trkpt lat="31.7471400" lon="35.1885600">
<ele>655.809998</ele>
<time>2021-04-14T16:03:56.947Z</time>
</trkpt>
<trkpt lat="31.7472300" lon="35.1885700">
<ele>655.169983</ele>
<time>2021-04-14T16:03:56.947Z</time>
</trkpt>
<trkpt lat="31.7472400" lon="35.1886400">
<ele>655.479980</ele>
<time>2021-04-14T16:03:56.947Z</time>
</trkpt>
<trkpt lat="31.7472400" lon="35.1887400">
<ele>655.820007</ele>
<time>2021-04-14T16:03:56.947Z</time>
</trkpt>
<trkpt lat="31.7472400" lon="35.1888200">
<ele>656.090027</ele>
<time>2021-04-14T16:03:56.947Z</time>
</trkpt>
<trkpt lat="31.7472200" lon="35.1889000">
<ele>656.059998</ele>
<time>2021-04-14T16:03:56.947Z</time>
</trkpt>
<trkpt lat="31.7471400" lon="35.1890000">
<ele>655.970032</ele>
<time>2021-04-14T16:03:56.947Z</time>
</trkpt>
<trkpt lat="31.7469900" lon="35.1891400">
<ele>654.619995</ele>
<time>2021-04-14T16:03:56.947Z</time>
</trkpt>
<trkpt lat="31.7469500" lon="35.1892100">
<ele>654.240051</ele>
<time>2021-04-14T16:03:56.947Z</time>
</trkpt>
<trkpt lat="31.7469100" lon="35.1894400">
<ele>654.989990</ele>
<time>2021-04-14T16:03:56.947Z</time>
</trkpt>
<trkpt lat="31.7468900" lon="35.1895000">
<ele>654.840027</ele>
<time>2021-04-14T16:03:56.947Z</time>
</trkpt>
<trkpt lat="31.7466500" lon="35.1897200">
<ele>654.880005</ele>
<time>2021-04-14T16:03:56.947Z</time>
</trkpt>
<trkpt lat="31.7465400" lon="35.1899700">
<ele>654.570007</ele>
<time>2021-04-14T16:03:56.947Z</time>
</trkpt>
<trkpt lat="31.7464800" lon="35.1901200">
<ele>654.270020</ele>
<time>2021-04-14T16:03:56.947Z</time>
</trkpt>
<trkpt lat="31.7463400" lon="35.1906400">
<ele>656.460022</ele>
<time>2021-04-14T16:03:56.947Z</time>
</trkpt>
<trkpt lat="31.7462200" lon="35.1910700">
<ele>659.670044</ele>
<time>2021-04-14T16:03:56.947Z</time>
</trkpt>
<trkpt lat="31.7462100" lon="35.1913400">
<ele>660.539978</ele>
<time>2021-04-14T16:03:56.947Z</time>
</trkpt>
<trkpt lat="31.7462100" lon="35.1914700">
<ele>660.900024</ele>
<time>2021-04-14T16:03:56.947Z</time>
</trkpt>
<trkpt lat="31.7462100" lon="35.1915700">
<ele>661.130005</ele>
<time>2021-04-14T16:03:56.947Z</time>
</trkpt>
<trkpt lat="31.7462400" lon="35.1916900">
<ele>661.589966</ele>
<time>2021-04-14T16:03:56.947Z</time>
</trkpt>
<trkpt lat="31.7462600" lon="35.1917900">
<ele>662.219971</ele>
<time>2021-04-14T16:03:56.947Z</time>
</trkpt>
<trkpt lat="31.7464800" lon="35.1920100">
<ele>665.349976</ele>
<time>2021-04-14T16:03:56.947Z</time>
</trkpt>
<trkpt lat="31.7467200" lon="35.1920700">
<ele>666.510010</ele>
<time>2021-04-14T16:03:56.948Z</time>
</trkpt>
<trkpt lat="31.7468000" lon="35.1921100">
<ele>665.969971</ele>
<time>2021-04-14T16:03:56.948Z</time>
</trkpt>
<trkpt lat="31.7470400" lon="35.1922200">
<ele>664.630005</ele>
<time>2021-04-14T16:03:56.948Z</time>
</trkpt>
<trkpt lat="31.7475900" lon="35.1926100">
<ele>668.109985</ele>
<time>2021-04-14T16:03:56.948Z</time>
</trkpt>
<trkpt lat="31.7486400" lon="35.1939900">
<ele>669.740051</ele>
<time>2021-04-14T16:03:56.948Z</time>
</trkpt>
<trkpt lat="31.7488800" lon="35.1942500">
<ele>670.640015</ele>
<time>2021-04-14T16:03:56.948Z</time>
</trkpt>
<trkpt lat="31.7490800" lon="35.1944200">
<ele>673.950012</ele>
<time>2021-04-14T16:03:56.948Z</time>
</trkpt>
<trkpt lat="31.7496100" lon="35.1948000">
<ele>677.760010</ele>
<time>2021-04-14T16:03:56.948Z</time>
</trkpt>
<trkpt lat="31.7496500" lon="35.1948200">
<ele>677.940002</ele>
<time>2021-04-14T16:03:56.948Z</time>
</trkpt>
<trkpt lat="31.7497000" lon="35.1948300">
<ele>678.000000</ele>
<time>2021-04-14T16:03:56.948Z</time>
</trkpt>
<trkpt lat="31.7498600" lon="35.1948300">
<ele>677.119995</ele>
<time>2021-04-14T16:03:56.948Z</time>
</trkpt>
<trkpt lat="31.7499200" lon="35.1948600">
<ele>676.580017</ele>
<time>2021-04-14T16:03:56.948Z</time>
</trkpt>
<trkpt lat="31.7500100" lon="35.1949700">
<ele>675.209961</ele>
<time>2021-04-14T16:03:56.948Z</time>
</trkpt>
<trkpt lat="31.7502000" lon="35.1950800">
<ele>674.419983</ele>
<time>2021-04-14T16:03:56.948Z</time>
</trkpt>
<trkpt lat="31.7503200" lon="35.1951100">
<ele>674.329956</ele>
<time>2021-04-14T16:03:56.948Z</time>
</trkpt>
<trkpt lat="31.7504000" lon="35.1951200">
<ele>674.520020</ele>
<time>2021-04-14T16:03:56.948Z</time>
</trkpt>
<trkpt lat="31.7507500" lon="35.1952500">
<ele>674.299988</ele>
<time>2021-04-14T16:03:56.948Z</time>
</trkpt>
<trkpt lat="31.7508800" lon="35.1953400">
<ele>674.059998</ele>
<time>2021-04-14T16:03:56.948Z</time>
</trkpt>
<trkpt lat="31.7509800" lon="35.1954100">
<ele>673.950012</ele>
<time>2021-04-14T16:03:56.948Z</time>
</trkpt>
<trkpt lat="31.7511400" lon="35.1955300">
<ele>673.810059</ele>
<time>2021-04-14T16:03:56.948Z</time>
</trkpt>
<trkpt lat="31.7512500" lon="35.1956900">
<ele>673.979980</ele>
<time>2021-04-14T16:03:56.948Z</time>
</trkpt>
<trkpt lat="31.7514000" lon="35.1960600">
<ele>672.220032</ele>
<time>2021-04-14T16:03:56.948Z</time>
</trkpt>
<trkpt lat="31.7515200" lon="35.1963300">
<ele>671.679993</ele>
<time>2021-04-14T16:03:56.948Z</time>
</trkpt>
<trkpt lat="31.7516400" lon="35.1967400">
<ele>670.950012</ele>
<time>2021-04-14T16:03:56.948Z</time>
</trkpt>
<trkpt lat="31.7516900" lon="35.1969400">
<ele>671.000000</ele>
<time>2021-04-14T16:03:56.948Z</time>
</trkpt>
<trkpt lat="31.7516900" lon="35.1970500">
<ele>672.040039</ele>
<time>2021-04-14T16:03:56.948Z</time>
</trkpt>
<trkpt lat="31.7516600" lon="35.1973100">
<ele>673.409973</ele>
<time>2021-04-14T16:03:56.948Z</time>
</trkpt>
<trkpt lat="31.7516600" lon="35.1974200">
<ele>672.649963</ele>
<time>2021-04-14T16:03:56.948Z</time>
</trkpt>
<trkpt lat="31.7516300" lon="35.1979600">
<ele>672.700012</ele>
<time>2021-04-14T16:03:56.949Z</time>
</trkpt>
<trkpt lat="31.7515500" lon="35.1982100">
<ele>677.210022</ele>
<time>2021-04-14T16:03:56.949Z</time>
</trkpt>
<trkpt lat="31.7514100" lon="35.1984600">
<ele>682.849976</ele>
<time>2021-04-14T16:03:56.949Z</time>
</trkpt>
<trkpt lat="31.7511900" lon="35.1987400">
<ele>687.440002</ele>
<time>2021-04-14T16:03:56.949Z</time>
</trkpt>
<trkpt lat="31.7505700" lon="35.1992000">
<ele>681.040039</ele>
<time>2021-04-14T16:03:56.949Z</time>
</trkpt>
<trkpt lat="31.7497800" lon="35.1997400">
<ele>678.969971</ele>
<time>2021-04-14T16:03:56.949Z</time>
</trkpt>
<trkpt lat="31.7496400" lon="35.1997900">
<ele>678.300049</ele>
<time>2021-04-14T16:03:56.949Z</time>
</trkpt>
<trkpt lat="31.7495900" lon="35.1998100">
<ele>677.849976</ele>
<time>2021-04-14T16:03:56.949Z</time>
</trkpt>
<trkpt lat="31.7495300" lon="35.1998600">
<ele>677.899963</ele>
<time>2021-04-14T16:03:56.949Z</time>
</trkpt>
<trkpt lat="31.7494300" lon="35.1999800">
<ele>679.420044</ele>
<time>2021-04-14T16:03:56.949Z</time>
</trkpt>
<trkpt lat="31.7488700" lon="35.2003700">
<ele>683.349976</ele>
<time>2021-04-14T16:03:56.949Z</time>
</trkpt>
<trkpt lat="31.7486600" lon="35.2005200">
<ele>683.539978</ele>
<time>2021-04-14T16:03:56.949Z</time>
</trkpt>
<trkpt lat="31.7483400" lon="35.2008000">
<ele>686.619995</ele>
<time>2021-04-14T16:03:56.949Z</time>
</trkpt>
<trkpt lat="31.7482200" lon="35.2009500">
<ele>686.860046</ele>
<time>2021-04-14T16:03:56.949Z</time>
</trkpt>
<trkpt lat="31.7481200" lon="35.2011200">
<ele>687.080017</ele>
<time>2021-04-14T16:03:56.949Z</time>
</trkpt>
<trkpt lat="31.7480600" lon="35.2012600">
<ele>689.239990</ele>
<time>2021-04-14T16:03:56.949Z</time>
</trkpt>
<trkpt lat="31.7480000" lon="35.2014400">
<ele>691.000000</ele>
<time>2021-04-14T16:03:56.949Z</time>
</trkpt>
<trkpt lat="31.7479700" lon="35.2015200">
<ele>691.190063</ele>
<time>2021-04-14T16:03:56.949Z</time>
</trkpt>
<trkpt lat="31.7479500" lon="35.2016800">
<ele>692.640015</ele>
<time>2021-04-14T16:03:56.949Z</time>
</trkpt>
<trkpt lat="31.7479400" lon="35.2018400">
<ele>693.000000</ele>
<time>2021-04-14T16:03:56.949Z</time>
</trkpt>
<trkpt lat="31.7479400" lon="35.2019500">
<ele>693.249939</ele>
<time>2021-04-14T16:03:56.949Z</time>
</trkpt>
<trkpt lat="31.7479400" lon="35.2020100">
<ele>693.230042</ele>
<time>2021-04-14T16:03:56.949Z</time>
</trkpt>
<trkpt lat="31.7479600" lon="35.2021600">
<ele>693.249939</ele>
<time>2021-04-14T16:03:56.949Z</time>
</trkpt>
<trkpt lat="31.7479900" lon="35.2022600">
<ele>693.659973</ele>
<time>2021-04-14T16:03:56.949Z</time>
</trkpt>
<trkpt lat="31.7480600" lon="35.2025900">
<ele>695.660034</ele>
<time>2021-04-14T16:03:56.949Z</time>
</trkpt>
<trkpt lat="31.7481900" lon="35.2028600">
<ele>698.259949</ele>
<time>2021-04-14T16:03:56.949Z</time>
</trkpt>
<trkpt lat="31.7482600" lon="35.2029600">
<ele>699.130005</ele>
<time>2021-04-14T16:03:56.949Z</time>
</trkpt>
<trkpt lat="31.7484800" lon="35.2032000">
<ele>699.529968</ele>
<time>2021-04-14T16:03:56.950Z</time>
</trkpt>
<trkpt lat="31.7485300" lon="35.2032600">
<ele>699.490051</ele>
<time>2021-04-14T16:03:56.950Z</time>
</trkpt>
<trkpt lat="31.7488900" lon="35.2036600">
<ele>697.649963</ele>
<time>2021-04-14T16:03:56.950Z</time>
</trkpt>
<trkpt lat="31.7491200" lon="35.2039800">
<ele>697.049988</ele>
<time>2021-04-14T16:03:56.950Z</time>
</trkpt>
<trkpt lat="31.7492800" lon="35.2043400">
<ele>695.940002</ele>
<time>2021-04-14T16:03:56.950Z</time>
</trkpt>
<trkpt lat="31.7493100" lon="35.2044300">
<ele>695.070007</ele>
<time>2021-04-14T16:03:56.950Z</time>
</trkpt>
<trkpt lat="31.7496000" lon="35.2052500">
<ele>692.160034</ele>
<time>2021-04-14T16:03:56.950Z</time>
</trkpt>
<trkpt lat="31.7497500" lon="35.2055600">
<ele>698.129944</ele>
<time>2021-04-14T16:03:56.950Z</time>
</trkpt>
<trkpt lat="31.7498800" lon="35.2057400">
<ele>699.140015</ele>
<time>2021-04-14T16:03:56.950Z</time>
</trkpt>
<trkpt lat="31.7502000" lon="35.2060800">
<ele>701.019958</ele>
<time>2021-04-14T16:03:56.950Z</time>
</trkpt>
<trkpt lat="31.7514200" lon="35.2071300">
<ele>715.309998</ele>
<time>2021-04-14T16:03:56.950Z</time>
</trkpt>
<trkpt lat="31.7522500" lon="35.2078600">
<ele>724.849976</ele>
<time>2021-04-14T16:03:56.950Z</time>
</trkpt>
<trkpt lat="31.7526400" lon="35.2082300">
<ele>718.919983</ele>
<time>2021-04-14T16:03:56.950Z</time>
</trkpt>
<trkpt lat="31.7528200" lon="35.2085100">
<ele>717.580017</ele>
<time>2021-04-14T16:03:56.950Z</time>
</trkpt>
<trkpt lat="31.7528400" lon="35.2085500">
<ele>717.409973</ele>
<time>2021-04-14T16:03:56.950Z</time>
</trkpt>
<trkpt lat="31.7533200" lon="35.2095100">
<ele>713.729980</ele>
<time>2021-04-14T16:03:56.950Z</time>
</trkpt>
<trkpt lat="31.7533900" lon="35.2096100">
<ele>716.090027</ele>
<time>2021-04-14T16:03:56.950Z</time>
</trkpt>
<trkpt lat="31.7535700" lon="35.2098800">
<ele>718.200012</ele>
<time>2021-04-14T16:03:56.950Z</time>
</trkpt>
<trkpt lat="31.7538500" lon="35.2101300">
<ele>715.089966</ele>
<time>2021-04-14T16:03:56.950Z</time>
</trkpt>
<trkpt lat="31.7541500" lon="35.2103100">
<ele>712.750000</ele>
<time>2021-04-14T16:03:56.950Z</time>
</trkpt>
<trkpt lat="31.7546900" lon="35.2106600">
<ele>715.609985</ele>
<time>2021-04-14T16:03:56.950Z</time>
</trkpt>
<trkpt lat="31.7554400" lon="35.2111300">
<ele>722.410034</ele>
<time>2021-04-14T16:03:56.951Z</time>
</trkpt>
<trkpt lat="31.7555100" lon="35.2111800">
<ele>723.619995</ele>
<time>2021-04-14T16:03:56.951Z</time>
</trkpt>
<trkpt lat="31.7556500" lon="35.2112800">
<ele>725.300049</ele>
<time>2021-04-14T16:03:56.951Z</time>
</trkpt>
<trkpt lat="31.7560000" lon="35.2115900">
<ele>727.450012</ele>
<time>2021-04-14T16:03:56.951Z</time>
</trkpt>
<trkpt lat="31.7564600" lon="35.2120100">
<ele>725.040039</ele>
<time>2021-04-14T16:03:56.951Z</time>
</trkpt>
<trkpt lat="31.7577200" lon="35.2132200">
<ele>732.959961</ele>
<time>2021-04-14T16:03:56.951Z</time>
</trkpt>
<trkpt lat="31.7579000" lon="35.2134000">
<ele>734.559937</ele>
<time>2021-04-14T16:03:56.951Z</time>
</trkpt>
<trkpt lat="31.7582000" lon="35.2137600">
<ele>731.119995</ele>
<time>2021-04-14T16:03:56.951Z</time>
</trkpt>
<trkpt lat="31.7583200" lon="35.2139200">
<ele>728.500000</ele>
<time>2021-04-14T16:03:56.951Z</time>
</trkpt>
<trkpt lat="31.7588000" lon="35.2146300">
<ele>729.140015</ele>
<time>2021-04-14T16:03:56.951Z</time>
</trkpt>
<trkpt lat="31.7589900" lon="35.2149200">
<ele>731.269958</ele>
<time>2021-04-14T16:03:56.951Z</time>
</trkpt>
<trkpt lat="31.7590900" lon="35.2150400">
<ele>731.479980</ele>
<time>2021-04-14T16:03:56.951Z</time>
</trkpt>
<trkpt lat="31.7592300" lon="35.2151400">
<ele>731.890015</ele>
<time>2021-04-14T16:03:56.951Z</time>
</trkpt>
<trkpt lat="31.7593400" lon="35.2151300">
<ele>731.640015</ele>
<time>2021-04-14T16:03:56.951Z</time>
</trkpt>
<trkpt lat="31.7594000" lon="35.2151700">
<ele>731.709961</ele>
<time>2021-04-14T16:03:56.951Z</time>
</trkpt>
<trkpt lat="31.7594200" lon="35.2151900">
<ele>731.739990</ele>
<time>2021-04-14T16:03:56.951Z</time>
</trkpt>
<trkpt lat="31.7594500" lon="35.2152600">
<ele>731.929993</ele>
<time>2021-04-14T16:03:56.951Z</time>
</trkpt>
<trkpt lat="31.7593500" lon="35.2153200">
<ele>732.389954</ele>
<time>2021-04-14T16:03:56.951Z</time>
</trkpt>
<trkpt lat="31.7601400" lon="35.2166100">
<ele>749.890015</ele>
<time>2021-04-14T16:03:56.951Z</time>
</trkpt>
<trkpt lat="31.7603500" lon="35.2169200">
<ele>752.160034</ele>
<time>2021-04-14T16:03:56.951Z</time>
</trkpt>
<trkpt lat="31.7604500" lon="35.2170700">
<ele>750.260010</ele>
<time>2021-04-14T16:03:56.951Z</time>
</trkpt>
<trkpt lat="31.7607900" lon="35.2175600">
<ele>744.000000</ele>
<time>2021-04-14T16:03:56.951Z</time>
</trkpt>
<trkpt lat="31.7611200" lon="35.2180600">
<ele>740.969971</ele>
<time>2021-04-14T16:03:56.951Z</time>
</trkpt>
<trkpt lat="31.7616000" lon="35.2187500">
<ele>740.360046</ele>
<time>2021-04-14T16:03:56.951Z</time>
</trkpt>
<trkpt lat="31.7618500" lon="35.2191100">
<ele>737.260010</ele>
<time>2021-04-14T16:03:56.952Z</time>
</trkpt>
<trkpt lat="31.7619600" lon="35.2192800">
<ele>735.090027</ele>
<time>2021-04-14T16:03:56.952Z</time>
</trkpt>
<trkpt lat="31.7622600" lon="35.2197500">
<ele>739.559998</ele>
<time>2021-04-14T16:03:56.952Z</time>
</trkpt>
<trkpt lat="31.7624500" lon="35.2200700">
<ele>745.940002</ele>
<time>2021-04-14T16:03:56.952Z</time>
</trkpt>
<trkpt lat="31.7626100" lon="35.2204000">
<ele>748.439941</ele>
<time>2021-04-14T16:03:56.952Z</time>
</trkpt>
<trkpt lat="31.7627000" lon="35.2206600">
<ele>748.829956</ele>
<time>2021-04-14T16:03:56.952Z</time>
</trkpt>
<trkpt lat="31.7627900" lon="35.2210500">
<ele>747.809998</ele>
<time>2021-04-14T16:03:56.952Z</time>
</trkpt>
<trkpt lat="31.7628500" lon="35.2213400">
<ele>747.820007</ele>
<time>2021-04-14T16:03:56.952Z</time>
</trkpt>
<trkpt lat="31.7628800" lon="35.2215100">
<ele>748.829956</ele>
<time>2021-04-14T16:03:56.952Z</time>
</trkpt>
<trkpt lat="31.7629000" lon="35.2215700">
<ele>749.100037</ele>
<time>2021-04-14T16:03:56.952Z</time>
</trkpt>
<trkpt lat="31.7630300" lon="35.2231400">
<ele>753.980042</ele>
<time>2021-04-14T16:03:56.952Z</time>
</trkpt>
<trkpt lat="31.7630400" lon="35.2231700">
<ele>754.489990</ele>
<time>2021-04-14T16:03:56.952Z</time>
</trkpt>
<trkpt lat="31.7630700" lon="35.2232700">
<ele>756.260010</ele>
<time>2021-04-14T16:03:56.952Z</time>
</trkpt>
<trkpt lat="31.7631300" lon="35.2234600">
<ele>757.770020</ele>
<time>2021-04-14T16:03:56.952Z</time>
</trkpt>
<trkpt lat="31.7632200" lon="35.2236600">
<ele>757.059998</ele>
<time>2021-04-14T16:03:56.952Z</time>
</trkpt>
<trkpt lat="31.7633000" lon="35.2237700">
<ele>755.979980</ele>
<time>2021-04-14T16:03:56.952Z</time>
</trkpt>
<trkpt lat="31.7633500" lon="35.2238400">
<ele>755.169983</ele>
<time>2021-04-14T16:03:56.952Z</time>
</trkpt>
<trkpt lat="31.7634300" lon="35.2239500">
<ele>753.449951</ele>
<time>2021-04-14T16:03:56.952Z</time>
</trkpt>
<trkpt lat="31.7635800" lon="35.2241400">
<ele>751.229980</ele>
<time>2021-04-14T16:03:56.952Z</time>
</trkpt>
<trkpt lat="31.7637400" lon="35.2243200">
<ele>747.740051</ele>
<time>2021-04-14T16:03:56.952Z</time>
</trkpt>
<trkpt lat="31.7638600" lon="35.2244100">
<ele>745.569946</ele>
<time>2021-04-14T16:03:56.952Z</time>
</trkpt>
<trkpt lat="31.7640000" lon="35.2244600">
<ele>744.900024</ele>
<time>2021-04-14T16:03:56.952Z</time>
</trkpt>
<trkpt lat="31.7641400" lon="35.2245200">
<ele>744.239990</ele>
<time>2021-04-14T16:03:56.952Z</time>
</trkpt>
<trkpt lat="31.7643300" lon="35.2245500">
<ele>742.680054</ele>
<time>2021-04-14T16:03:56.952Z</time>
</trkpt>
<trkpt lat="31.7644800" lon="35.2245700">
<ele>741.549988</ele>
<time>2021-04-14T16:03:56.952Z</time>
</trkpt>
<trkpt lat="31.7646500" lon="35.2245700">
<ele>741.099976</ele>
<time>2021-04-14T16:03:56.952Z</time>
</trkpt>
<trkpt lat="31.7647600" lon="35.2245600">
<ele>741.220032</ele>
<time>2021-04-14T16:03:56.952Z</time>
</trkpt>
<trkpt lat="31.7649000" lon="35.2245300">
<ele>742.290039</ele>
<time>2021-04-14T16:03:56.952Z</time>
</trkpt>
<trkpt lat="31.7654300" lon="35.2244100">
<ele>744.929993</ele>
<time>2021-04-14T16:03:56.953Z</time>
</trkpt>
<trkpt lat="31.7657900" lon="35.2243300">
<ele>743.590027</ele>
<time>2021-04-14T16:03:56.953Z</time>
</trkpt>
<trkpt lat="31.7659700" lon="35.2243000">
<ele>742.660034</ele>
<time>2021-04-14T16:03:56.953Z</time>
</trkpt>
<trkpt lat="31.7663200" lon="35.2242200">
<ele>742.790039</ele>
<time>2021-04-14T16:03:56.953Z</time>
</trkpt>
<trkpt lat="31.7668100" lon="35.2241200">
<ele>740.239990</ele>
<time>2021-04-14T16:03:56.953Z</time>
</trkpt>
<trkpt lat="31.7668500" lon="35.2241100">
<ele>740.230042</ele>
<time>2021-04-14T16:03:56.953Z</time>
</trkpt>
<trkpt lat="31.7671900" lon="35.2240700">
<ele>742.160034</ele>
<time>2021-04-14T16:03:56.953Z</time>
</trkpt>
<trkpt lat="31.7674900" lon="35.2240300">
<ele>741.040039</ele>
<time>2021-04-14T16:03:56.953Z</time>
</trkpt>
<trkpt lat="31.7677000" lon="35.2240100">
<ele>739.950012</ele>
<time>2021-04-14T16:03:56.953Z</time>
</trkpt>
<trkpt lat="31.7677400" lon="35.2239900">
<ele>739.660034</ele>
<time>2021-04-14T16:03:56.953Z</time>
</trkpt>
<trkpt lat="31.7679700" lon="35.2239700">
<ele>738.110046</ele>
<time>2021-04-14T16:03:56.953Z</time>
</trkpt>
<trkpt lat="31.7681100" lon="35.2239400">
<ele>737.529968</ele>
<time>2021-04-14T16:03:56.953Z</time>
</trkpt>
<trkpt lat="31.7681800" lon="35.2239300">
<ele>737.679993</ele>
<time>2021-04-14T16:03:56.953Z</time>
</trkpt>
<trkpt lat="31.7682500" lon="35.2239300">
<ele>737.890015</ele>
<time>2021-04-14T16:03:56.953Z</time>
</trkpt>
<trkpt lat="31.7683700" lon="35.2239500">
<ele>738.750000</ele>
<time>2021-04-14T16:03:56.953Z</time>
</trkpt>
<trkpt lat="31.7690000" lon="35.2241100">
<ele>744.159973</ele>
<time>2021-04-14T16:03:56.953Z</time>
</trkpt>
<trkpt lat="31.7690700" lon="35.2241500">
<ele>744.079956</ele>
<time>2021-04-14T16:03:56.953Z</time>
</trkpt>
<trkpt lat="31.7693100" lon="35.2242500">
<ele>744.449951</ele>
<time>2021-04-14T16:03:56.953Z</time>
</trkpt>
<trkpt lat="31.7693400" lon="35.2242600">
<ele>744.549988</ele>
<time>2021-04-14T16:03:56.953Z</time>
</trkpt>
<trkpt lat="31.7693700" lon="35.2242700">
<ele>744.640015</ele>
<time>2021-04-14T16:03:56.953Z</time>
</trkpt>
<trkpt lat="31.7694000" lon="35.2242900">
<ele>744.820007</ele>
<time>2021-04-14T16:03:56.953Z</time>
</trkpt>
<trkpt lat="31.7694100" lon="35.2243300">
<ele>745.099976</ele>
<time>2021-04-14T16:03:56.953Z</time>
</trkpt>
<trkpt lat="31.7694200" lon="35.2243800">
<ele>745.470032</ele>
<time>2021-04-14T16:03:56.953Z</time>
</trkpt>
<trkpt lat="31.7697000" lon="35.2244700">
<ele>745.070007</ele>
<time>2021-04-14T16:03:56.953Z</time>
</trkpt>
<trkpt lat="31.7697200" lon="35.2245100">
<ele>745.010010</ele>
<time>2021-04-14T16:03:56.953Z</time>
</trkpt>
<trkpt lat="31.7697400" lon="35.2245500">
<ele>745.019958</ele>
<time>2021-04-14T16:03:56.954Z</time>
</trkpt>
<trkpt lat="31.7697600" lon="35.2245600">
<ele>745.019958</ele>
<time>2021-04-14T16:03:56.954Z</time>
</trkpt>
<trkpt lat="31.7697900" lon="35.2245700">
<ele>745.019958</ele>
<time>2021-04-14T16:03:56.954Z</time>
</trkpt>
<trkpt lat="31.7698300" lon="35.2245700">
<ele>745.039978</ele>
<time>2021-04-14T16:03:56.954Z</time>
</trkpt>
<trkpt lat="31.7698600" lon="35.2245700">
<ele>745.049988</ele>
<time>2021-04-14T16:03:56.954Z</time>
</trkpt>
<trkpt lat="31.7698900" lon="35.2245600">
<ele>745.099976</ele>
<time>2021-04-14T16:03:56.954Z</time>
</trkpt>
<trkpt lat="31.7699100" lon="35.2245300">
<ele>745.260010</ele>
<time>2021-04-14T16:03:56.954Z</time>
</trkpt>
<trkpt lat="31.7699200" lon="35.2245000">
<ele>745.429993</ele>
<time>2021-04-14T16:03:56.954Z</time>
</trkpt>
<trkpt lat="31.7700300" lon="35.2244200">
<ele>746.360046</ele>
<time>2021-04-14T16:03:56.954Z</time>
</trkpt>
<trkpt lat="31.7701800" lon="35.2241200">
<ele>748.389954</ele>
<time>2021-04-14T16:03:56.954Z</time>
</trkpt>
<trkpt lat="31.7702700" lon="35.2240300">
<ele>748.909973</ele>
<time>2021-04-14T16:03:56.954Z</time>
</trkpt>
<trkpt lat="31.7703700" lon="35.2240000">
<ele>749.529968</ele>
<time>2021-04-14T16:03:56.954Z</time>
</trkpt>
<trkpt lat="31.7706200" lon="35.2240100">
<ele>751.099976</ele>
<time>2021-04-14T16:03:56.954Z</time>
</trkpt>
<trkpt lat="31.7706900" lon="35.2239900">
<ele>750.700012</ele>
<time>2021-04-14T16:03:56.954Z</time>
</trkpt>
<trkpt lat="31.7707700" lon="35.2239500">
<ele>750.280029</ele>
<time>2021-04-14T16:03:56.954Z</time>
</trkpt>
<trkpt lat="31.7710400" lon="35.2236600">
<ele>751.279968</ele>
<time>2021-04-14T16:03:56.954Z</time>
</trkpt>
<trkpt lat="31.7711000" lon="35.2235600">
<ele>751.160034</ele>
<time>2021-04-14T16:03:56.954Z</time>
</trkpt>
<trkpt lat="31.7712000" lon="35.2235500">
<ele>753.500000</ele>
<time>2021-04-14T16:03:56.954Z</time>
</trkpt>
<trkpt lat="31.7713400" lon="35.2235500">
<ele>757.250000</ele>
<time>2021-04-14T16:03:56.954Z</time>
</trkpt>
<trkpt lat="31.7714700" lon="35.2235400">
<ele>759.510010</ele>
<time>2021-04-14T16:03:56.954Z</time>
</trkpt>
<trkpt lat="31.7715800" lon="35.2235400">
<ele>760.900024</ele>
<time>2021-04-14T16:03:56.954Z</time>
</trkpt>
<trkpt lat="31.7718400" lon="35.2235200">
<ele>761.789978</ele>
<time>2021-04-14T16:03:56.954Z</time>
</trkpt>
<trkpt lat="31.7723700" lon="35.2235000">
<ele>765.739990</ele>
<time>2021-04-14T16:03:56.954Z</time>
</trkpt>
<trkpt lat="31.7724200" lon="35.2235100">
<ele>765.969971</ele>
<time>2021-04-14T16:03:56.954Z</time>
</trkpt>
<trkpt lat="31.7724700" lon="35.2235300">
<ele>766.150024</ele>
<time>2021-04-14T16:03:56.954Z</time>
</trkpt>
<trkpt lat="31.7725000" lon="35.2235700">
<ele>766.150024</ele>
<time>2021-04-14T16:03:56.954Z</time>
</trkpt>
<trkpt lat="31.7726000" lon="35.2236500">
<ele>765.039978</ele>
<time>2021-04-14T16:03:56.954Z</time>
</trkpt>
<trkpt lat="31.7726300" lon="35.2236900">
<ele>764.510010</ele>
<time>2021-04-14T16:03:56.954Z</time>
</trkpt>
<trkpt lat="31.7726700" lon="35.2238400">
<ele>762.940002</ele>
<time>2021-04-14T16:03:56.954Z</time>
</trkpt>
<trkpt lat="31.7727700" lon="35.2238900">
<ele>761.109985</ele>
<time>2021-04-14T16:03:56.955Z</time>
</trkpt>
<trkpt lat="31.7730000" lon="35.2239200">
<ele>761.780029</ele>
<time>2021-04-14T16:03:56.955Z</time>
</trkpt>
<trkpt lat="31.7731700" lon="35.2239100">
<ele>761.910034</ele>
<time>2021-04-14T16:03:56.955Z</time>
</trkpt>
<trkpt lat="31.7733400" lon="35.2239100">
<ele>761.820007</ele>
<time>2021-04-14T16:03:56.955Z</time>
</trkpt>
<trkpt lat="31.7735000" lon="35.2239300">
<ele>762.579956</ele>
<time>2021-04-14T16:03:56.955Z</time>
</trkpt>
<trkpt lat="31.7738000" lon="35.2239500">
<ele>763.880005</ele>
<time>2021-04-14T16:03:56.955Z</time>
</trkpt>
<trkpt lat="31.7740500" lon="35.2239900">
<ele>764.860046</ele>
<time>2021-04-14T16:03:56.955Z</time>
</trkpt>
<trkpt lat="31.7741900" lon="35.2240900">
<ele>764.390015</ele>
<time>2021-04-14T16:03:56.955Z</time>
</trkpt>
<trkpt lat="31.7743600" lon="35.2243400">
<ele>765.780029</ele>
<time>2021-04-14T16:03:56.955Z</time>
</trkpt>
<trkpt lat="31.7743900" lon="35.2244800">
<ele>766.190002</ele>
<time>2021-04-14T16:03:56.955Z</time>
</trkpt>
<trkpt lat="31.7744000" lon="35.2247600">
<ele>765.809998</ele>
<time>2021-04-14T16:03:56.955Z</time>
</trkpt>
<trkpt lat="31.7746400" lon="35.2247700">
<ele>766.020020</ele>
<time>2021-04-14T16:03:56.955Z</time>
</trkpt>
<trkpt lat="31.7747100" lon="35.2247800">
<ele>765.819946</ele>
<time>2021-04-14T16:03:56.955Z</time>
</trkpt>
<trkpt lat="31.7748300" lon="35.2247800">
<ele>766.570007</ele>
<time>2021-04-14T16:03:56.955Z</time>
</trkpt>
<trkpt lat="31.7748700" lon="35.2247800">
<ele>766.859985</ele>
<time>2021-04-14T16:03:56.955Z</time>
</trkpt>
<trkpt lat="31.7749800" lon="35.2247800">
<ele>767.650024</ele>
<time>2021-04-14T16:03:56.955Z</time>
</trkpt>
<trkpt lat="31.7750400" lon="35.2247800">
<ele>767.680054</ele>
<time>2021-04-14T16:03:56.955Z</time>
</trkpt>
<trkpt lat="31.7751400" lon="35.2247700">
<ele>767.409973</ele>
<time>2021-04-14T16:03:56.955Z</time>
</trkpt>
<trkpt lat="31.7753700" lon="35.2247700">
<ele>766.000000</ele>
<time>2021-04-14T16:03:56.955Z</time>
</trkpt>
<trkpt lat="31.7755000" lon="35.2247600">
<ele>764.600037</ele>
<time>2021-04-14T16:03:56.955Z</time>
</trkpt>
<trkpt lat="31.7755600" lon="35.2247300">
<ele>763.900024</ele>
<time>2021-04-14T16:03:56.955Z</time>
</trkpt>
<trkpt lat="31.7756600" lon="35.2246200">
<ele>762.760010</ele>
<time>2021-04-14T16:03:56.955Z</time>
</trkpt>
<trkpt lat="31.7757800" lon="35.2244400">
<ele>762.839966</ele>
<time>2021-04-14T16:03:56.955Z</time>
</trkpt>
<trkpt lat="31.7758900" lon="35.2242900">
<ele>764.369995</ele>
<time>2021-04-14T16:03:56.955Z</time>
</trkpt>
<trkpt lat="31.7759600" lon="35.2242000">
<ele>765.489990</ele>
<time>2021-04-14T16:03:56.955Z</time>
</trkpt>
<trkpt lat="31.7760900" lon="35.2240200">
<ele>769.220032</ele>
<time>2021-04-14T16:03:56.955Z</time>
</trkpt>
<trkpt lat="31.7761200" lon="35.2239900">
<ele>770.080017</ele>
<time>2021-04-14T16:03:56.955Z</time>
</trkpt>
<trkpt lat="31.7762200" lon="35.2238800">
<ele>772.590027</ele>
<time>2021-04-14T16:03:56.955Z</time>
</trkpt>
<trkpt lat="31.7763900" lon="35.2237100">
<ele>771.989990</ele>
<time>2021-04-14T16:03:56.955Z</time>
</trkpt>
<trkpt lat="31.7765500" lon="35.2235600">
<ele>771.269958</ele>
<time>2021-04-14T16:03:56.956Z</time>
</trkpt>
<trkpt lat="31.7766300" lon="35.2233700">
<ele>773.279968</ele>
<time>2021-04-14T16:03:56.956Z</time>
</trkpt>
<trkpt lat="31.7767000" lon="35.2230300">
<ele>779.080017</ele>
<time>2021-04-14T16:03:56.956Z</time>
</trkpt>
<trkpt lat="31.7767600" lon="35.2226300">
<ele>783.500000</ele>
<time>2021-04-14T16:03:56.956Z</time>
</trkpt>
<trkpt lat="31.7768400" lon="35.2225900">
<ele>784.109985</ele>
<time>2021-04-14T16:03:56.956Z</time>
</trkpt>
<trkpt lat="31.7769400" lon="35.2225900">
<ele>784.940002</ele>
<time>2021-04-14T16:03:56.956Z</time>
</trkpt>
<trkpt lat="31.7771500" lon="35.2226600">
<ele>783.310059</ele>
<time>2021-04-14T16:03:56.956Z</time>
</trkpt>
<trkpt lat="31.7775000" lon="35.2227900">
<ele>779.090027</ele>
<time>2021-04-14T16:03:56.956Z</time>
</trkpt>
<trkpt lat="31.7775900" lon="35.2228300">
<ele>778.020020</ele>
<time>2021-04-14T16:03:56.956Z</time>
</trkpt>
<trkpt lat="31.7776400" lon="35.2228500">
<ele>777.369995</ele>
<time>2021-04-14T16:03:56.956Z</time>
</trkpt>
<trkpt lat="31.7777000" lon="35.2228700">
<ele>776.539978</ele>
<time>2021-04-14T16:03:56.956Z</time>
</trkpt>
<trkpt lat="31.7777500" lon="35.2228800">
<ele>775.799988</ele>
<time>2021-04-14T16:03:56.956Z</time>
</trkpt>
<trkpt lat="31.7778700" lon="35.2229100">
<ele>774.969971</ele>
<time>2021-04-14T16:03:56.956Z</time>
</trkpt>
<trkpt lat="31.7779900" lon="35.2229400">
<ele>774.500000</ele>
<time>2021-04-14T16:03:56.956Z</time>
</trkpt>
<trkpt lat="31.7780700" lon="35.2229900">
<ele>774.580017</ele>
<time>2021-04-14T16:03:56.956Z</time>
</trkpt>
<trkpt lat="31.7781400" lon="35.2230500">
<ele>775.260010</ele>
<time>2021-04-14T16:03:56.956Z</time>
</trkpt>
<trkpt lat="31.7782200" lon="35.2231700">
<ele>776.900024</ele>
<time>2021-04-14T16:03:56.956Z</time>
</trkpt>
<trkpt lat="31.7783200" lon="35.2233300">
<ele>779.809937</ele>
<time>2021-04-14T16:03:56.956Z</time>
</trkpt>
<trkpt lat="31.7784200" lon="35.2235100">
<ele>782.959961</ele>
<time>2021-04-14T16:03:56.956Z</time>
</trkpt>
<trkpt lat="31.7784700" lon="35.2236900">
<ele>784.619995</ele>
<time>2021-04-14T16:03:56.956Z</time>
</trkpt>
<trkpt lat="31.7785900" lon="35.2241100">
<ele>785.169983</ele>
<time>2021-04-14T16:03:56.956Z</time>
</trkpt>
<trkpt lat="31.7786600" lon="35.2243500">
<ele>786.019958</ele>
<time>2021-04-14T16:03:56.956Z</time>
</trkpt>
<trkpt lat="31.7787200" lon="35.2245700">
<ele>786.390015</ele>
<time>2021-04-14T16:03:56.956Z</time>
</trkpt>
<trkpt lat="31.7787900" lon="35.2247300">
<ele>786.640015</ele>
<time>2021-04-14T16:03:56.956Z</time>
</trkpt>
<trkpt lat="31.7788500" lon="35.2248600">
<ele>786.860046</ele>
<time>2021-04-14T16:03:56.956Z</time>
</trkpt>
<trkpt lat="31.7788800" lon="35.2249300">
<ele>786.970032</ele>
<time>2021-04-14T16:03:56.956Z</time>
</trkpt>
<trkpt lat="31.7789000" lon="35.2249600">
<ele>786.990051</ele>
<time>2021-04-14T16:03:56.956Z</time>
</trkpt>
<trkpt lat="31.7789200" lon="35.2250000">
<ele>787.000000</ele>
<time>2021-04-14T16:03:56.956Z</time>
</trkpt>
<trkpt lat="31.7789400" lon="35.2250300">
<ele>787.130005</ele>
<time>2021-04-14T16:03:56.956Z</time>
</trkpt>
<trkpt lat="31.7789900" lon="35.2251400">
<ele>787.689941</ele>
<time>2021-04-14T16:03:56.956Z</time>
</trkpt>
<trkpt lat="31.7790200" lon="35.2251900">
<ele>788.010010</ele>
<time>2021-04-14T16:03:56.957Z</time>
</trkpt>
<trkpt lat="31.7791200" lon="35.2253800">
<ele>789.630005</ele>
<time>2021-04-14T16:03:56.957Z</time>
</trkpt>
<trkpt lat="31.7793100" lon="35.2257400">
<ele>792.349976</ele>
<time>2021-04-14T16:03:56.957Z</time>
</trkpt>
<trkpt lat="31.7795000" lon="35.2260900">
<ele>792.140015</ele>
<time>2021-04-14T16:03:56.957Z</time>
</trkpt>
<trkpt lat="31.7797700" lon="35.2265500">
<ele>787.659973</ele>
<time>2021-04-14T16:03:56.957Z</time>
</trkpt>
<trkpt lat="31.7801100" lon="35.2271500">
<ele>777.639954</ele>
<time>2021-04-14T16:03:56.957Z</time>
</trkpt>
<trkpt lat="31.7802800" lon="35.2275000">
<ele>771.000000</ele>
<time>2021-04-14T16:03:56.957Z</time>
</trkpt>
<trkpt lat="31.7803800" lon="35.2276300">
<ele>769.889954</ele>
<time>2021-04-14T16:03:56.957Z</time>
</trkpt>
<trkpt lat="31.7804700" lon="35.2277800">
<ele>768.289978</ele>
<time>2021-04-14T16:03:56.957Z</time>
</trkpt>
<trkpt lat="31.7805700" lon="35.2278700">
<ele>766.409973</ele>
<time>2021-04-14T16:03:56.957Z</time>
</trkpt>
<trkpt lat="31.7806500" lon="35.2279500">
<ele>763.820007</ele>
<time>2021-04-14T16:03:56.957Z</time>
</trkpt>
<trkpt lat="31.7807500" lon="35.2280300">
<ele>760.869995</ele>
<time>2021-04-14T16:03:56.957Z</time>
</trkpt>
<trkpt lat="31.7808500" lon="35.2280700">
<ele>758.600037</ele>
<time>2021-04-14T16:03:56.957Z</time>
</trkpt>
<trkpt lat="31.7809800" lon="35.2281200">
<ele>756.139954</ele>
<time>2021-04-14T16:03:56.957Z</time>
</trkpt>
<trkpt lat="31.7811000" lon="35.2281400">
<ele>754.179993</ele>
<time>2021-04-14T16:03:56.957Z</time>
</trkpt>
<trkpt lat="31.7811600" lon="35.2281500">
<ele>753.469971</ele>
<time>2021-04-14T16:03:56.957Z</time>
</trkpt>
<trkpt lat="31.7812000" lon="35.2281500">
<ele>753.040039</ele>
<time>2021-04-14T16:03:56.957Z</time>
</trkpt>
<trkpt lat="31.7812400" lon="35.2281500">
<ele>752.609985</ele>
<time>2021-04-14T16:03:56.957Z</time>
</trkpt>
<trkpt lat="31.7814000" lon="35.2281500">
<ele>751.030029</ele>
<time>2021-04-14T16:03:56.957Z</time>
</trkpt>
<trkpt lat="31.7814500" lon="35.2281500">
<ele>751.149963</ele>
<time>2021-04-14T16:03:56.957Z</time>
</trkpt>
<trkpt lat="31.7814900" lon="35.2281400">
<ele>751.250000</ele>
<time>2021-04-14T16:03:56.957Z</time>
</trkpt>
<trkpt lat="31.7815600" lon="35.2281300">
<ele>751.450012</ele>
<time>2021-04-14T16:03:56.957Z</time>
</trkpt>
<trkpt lat="31.7816100" lon="35.2281200">
<ele>751.609985</ele>
<time>2021-04-14T16:03:56.957Z</time>
</trkpt>
<trkpt lat="31.7816800" lon="35.2281100">
<ele>751.779968</ele>
<time>2021-04-14T16:03:56.957Z</time>
</trkpt>
<trkpt lat="31.7817500" lon="35.2280800">
<ele>751.690002</ele>
<time>2021-04-14T16:03:56.957Z</time>
</trkpt>
<trkpt lat="31.7818500" lon="35.2280300">
<ele>751.279968</ele>
<time>2021-04-14T16:03:56.957Z</time>
</trkpt>
<trkpt lat="31.7820100" lon="35.2279400">
<ele>751.369995</ele>
<time>2021-04-14T16:03:56.957Z</time>
</trkpt>
<trkpt lat="31.7827800" lon="35.2274800">
<ele>753.659973</ele>
<time>2021-04-14T16:03:56.957Z</time>
</trkpt>
<trkpt lat="31.7828400" lon="35.2274300">
<ele>753.300049</ele>
<time>2021-04-14T16:03:56.958Z</time>
</trkpt>
<trkpt lat="31.7829000" lon="35.2274000">
<ele>753.399963</ele>
<time>2021-04-14T16:03:56.958Z</time>
</trkpt>
<trkpt lat="31.7829700" lon="35.2273700">
<ele>753.690002</ele>
<time>2021-04-14T16:03:56.958Z</time>
</trkpt>
<trkpt lat="31.7830000" lon="35.2273500">
<ele>753.760010</ele>
<time>2021-04-14T16:03:56.958Z</time>
</trkpt>
<trkpt lat="31.7831000" lon="35.2273100">
<ele>754.489990</ele>
<time>2021-04-14T16:03:56.958Z</time>
</trkpt>
<trkpt lat="31.7831800" lon="35.2273000">
<ele>755.380005</ele>
<time>2021-04-14T16:03:56.958Z</time>
</trkpt>
<trkpt lat="31.7832200" lon="35.2272900">
<ele>755.809998</ele>
<time>2021-04-14T16:03:56.958Z</time>
</trkpt>
<trkpt lat="31.7832600" lon="35.2272900">
<ele>756.319946</ele>
<time>2021-04-14T16:03:56.958Z</time>
</trkpt>
<trkpt lat="31.7833400" lon="35.2272900">
<ele>757.409973</ele>
<time>2021-04-14T16:03:56.958Z</time>
</trkpt>
<trkpt lat="31.7834300" lon="35.2272900">
<ele>759.599976</ele>
<time>2021-04-14T16:03:56.958Z</time>
</trkpt>
<trkpt lat="31.7834600" lon="35.2273000">
<ele>760.339966</ele>
<time>2021-04-14T16:03:56.958Z</time>
</trkpt>
<trkpt lat="31.7835400" lon="35.2273100">
<ele>762.289978</ele>
<time>2021-04-14T16:03:56.958Z</time>
</trkpt>
<trkpt lat="31.7836500" lon="35.2273400">
<ele>764.479980</ele>
<time>2021-04-14T16:03:56.958Z</time>
</trkpt>
<trkpt lat="31.7839300" lon="35.2273900">
<ele>768.139954</ele>
<time>2021-04-14T16:03:56.958Z</time>
</trkpt>
<trkpt lat="31.7840900" lon="35.2274100">
<ele>770.340027</ele>
<time>2021-04-14T16:03:56.958Z</time>
</trkpt>
<trkpt lat="31.7845800" lon="35.2275000">
<ele>770.539978</ele>
<time>2021-04-14T16:03:56.958Z</time>
</trkpt>
<trkpt lat="31.7847900" lon="35.2275200">
<ele>768.609985</ele>
<time>2021-04-14T16:03:56.958Z</time>
</trkpt>
<trkpt lat="31.7848500" lon="35.2275300">
<ele>768.109985</ele>
<time>2021-04-14T16:03:56.958Z</time>
</trkpt>
<trkpt lat="31.7849100" lon="35.2275300">
<ele>767.439941</ele>
<time>2021-04-14T16:03:56.958Z</time>
</trkpt>
<trkpt lat="31.7850200" lon="35.2275200">
<ele>766.280029</ele>
<time>2021-04-14T16:03:56.958Z</time>
</trkpt>
<trkpt lat="31.7852200" lon="35.2275000">
<ele>766.000000</ele>
<time>2021-04-14T16:03:56.958Z</time>
</trkpt>
<trkpt lat="31.7853800" lon="35.2274700">
<ele>766.389954</ele>
<time>2021-04-14T16:03:56.958Z</time>
</trkpt>
<trkpt lat="31.7854900" lon="35.2274500">
<ele>766.440002</ele>
<time>2021-04-14T16:03:56.958Z</time>
</trkpt>
<trkpt lat="31.7862300" lon="35.2272900">
<ele>772.599976</ele>
<time>2021-04-14T16:03:56.958Z</time>
</trkpt>
<trkpt lat="31.7862900" lon="35.2272700">
<ele>772.109985</ele>
<time>2021-04-14T16:03:56.958Z</time>
</trkpt>
<trkpt lat="31.7864000" lon="35.2272400">
<ele>771.150024</ele>
<time>2021-04-14T16:03:56.958Z</time>
</trkpt>
<trkpt lat="31.7866400" lon="35.2272000">
<ele>770.179993</ele>
<time>2021-04-14T16:03:56.958Z</time>
</trkpt>
<trkpt lat="31.7867400" lon="35.2271800">
<ele>770.309998</ele>
<time>2021-04-14T16:03:56.958Z</time>
</trkpt>
<trkpt lat="31.7869000" lon="35.2271500">
<ele>771.130005</ele>
<time>2021-04-14T16:03:56.959Z</time>
</trkpt>
<trkpt lat="31.7873300" lon="35.2270700">
<ele>769.690002</ele>
<time>2021-04-14T16:03:56.959Z</time>
</trkpt>
<trkpt lat="31.7874100" lon="35.2270500">
<ele>769.339966</ele>
<time>2021-04-14T16:03:56.959Z</time>
</trkpt>
<trkpt lat="31.7877100" lon="35.2269900">
<ele>759.919983</ele>
<time>2021-04-14T16:03:56.959Z</time>
</trkpt>
<trkpt lat="31.7879800" lon="35.2269300">
<ele>751.680054</ele>
<time>2021-04-14T16:03:56.959Z</time>
</trkpt>
<trkpt lat="31.7884000" lon="35.2268300">
<ele>742.119995</ele>
<time>2021-04-14T16:03:56.959Z</time>
</trkpt>
<trkpt lat="31.7885700" lon="35.2268000">
<ele>741.190063</ele>
<time>2021-04-14T16:03:56.959Z</time>
</trkpt>
<trkpt lat="31.7888100" lon="35.2267600">
<ele>741.389954</ele>
<time>2021-04-14T16:03:56.959Z</time>
</trkpt>
<trkpt lat="31.7890600" lon="35.2267400">
<ele>742.470032</ele>
<time>2021-04-14T16:03:56.959Z</time>
</trkpt>
<trkpt lat="31.7893400" lon="35.2267300">
<ele>746.940002</ele>
<time>2021-04-14T16:03:56.959Z</time>
</trkpt>
<trkpt lat="31.7894100" lon="35.2267200">
<ele>748.359985</ele>
<time>2021-04-14T16:03:56.959Z</time>
</trkpt>
<trkpt lat="31.7895100" lon="35.2267100">
<ele>749.570007</ele>
<time>2021-04-14T16:03:56.959Z</time>
</trkpt>
<trkpt lat="31.7897900" lon="35.2266900">
<ele>750.300049</ele>
<time>2021-04-14T16:03:56.959Z</time>
</trkpt>
<trkpt lat="31.7898500" lon="35.2266800">
<ele>749.289978</ele>
<time>2021-04-14T16:03:56.959Z</time>
</trkpt>
<trkpt lat="31.7902300" lon="35.2266700">
<ele>742.880005</ele>
<time>2021-04-14T16:03:56.959Z</time>
</trkpt>
<trkpt lat="31.7911400" lon="35.2266100">
<ele>735.849976</ele>
<time>2021-04-14T16:03:56.959Z</time>
</trkpt>
<trkpt lat="31.7918500" lon="35.2265700">
<ele>738.060059</ele>
<time>2021-04-14T16:03:56.959Z</time>
</trkpt>
<trkpt lat="31.7926000" lon="35.2265500">
<ele>747.549988</ele>
<time>2021-04-14T16:03:56.959Z</time>
</trkpt>
<trkpt lat="31.7930000" lon="35.2265500">
<ele>753.799988</ele>
<time>2021-04-14T16:03:56.960Z</time>
</trkpt>
<trkpt lat="31.7933000" lon="35.2266000">
<ele>760.489990</ele>
<time>2021-04-14T16:03:56.960Z</time>
</trkpt>
<trkpt lat="31.7934400" lon="35.2266500">
<ele>764.059998</ele>
<time>2021-04-14T16:03:56.960Z</time>
</trkpt>
<trkpt lat="31.7937300" lon="35.2267600">
<ele>769.610046</ele>
<time>2021-04-14T16:03:56.960Z</time>
</trkpt>
<trkpt lat="31.7939400" lon="35.2268800">
<ele>771.260010</ele>
<time>2021-04-14T16:03:56.960Z</time>
</trkpt>
<trkpt lat="31.7940400" lon="35.2269300">
<ele>772.740051</ele>
<time>2021-04-14T16:03:56.960Z</time>
</trkpt>
<trkpt lat="31.7941600" lon="35.2270400">
<ele>775.549988</ele>
<time>2021-04-14T16:03:56.960Z</time>
</trkpt>
<trkpt lat="31.7942800" lon="35.2271300">
<ele>775.650024</ele>
<time>2021-04-14T16:03:56.960Z</time>
</trkpt>
<trkpt lat="31.7944100" lon="35.2272300">
<ele>774.390015</ele>
<time>2021-04-14T16:03:56.960Z</time>
</trkpt>
<trkpt lat="31.7945100" lon="35.2273300">
<ele>773.589966</ele>
<time>2021-04-14T16:03:56.960Z</time>
</trkpt>
<trkpt lat="31.7945700" lon="35.2273900">
<ele>772.969971</ele>
<time>2021-04-14T16:03:56.960Z</time>
</trkpt>
<trkpt lat="31.7946600" lon="35.2275000">
<ele>771.899963</ele>
<time>2021-04-14T16:03:56.960Z</time>
</trkpt>
<trkpt lat="31.7947900" lon="35.2276700">
<ele>772.090027</ele>
<time>2021-04-14T16:03:56.960Z</time>
</trkpt>
<trkpt lat="31.7958400" lon="35.2288700">
<ele>782.010010</ele>
<time>2021-04-14T16:03:56.960Z</time>
</trkpt>
<trkpt lat="31.7965000" lon="35.2296200">
<ele>783.960022</ele>
<time>2021-04-14T16:03:56.960Z</time>
</trkpt>
<trkpt lat="31.7972400" lon="35.2304700">
<ele>780.000000</ele>
<time>2021-04-14T16:03:56.960Z</time>
</trkpt>
<trkpt lat="31.7972900" lon="35.2305400">
<ele>780.000000</ele>
<time>2021-04-14T16:03:56.960Z</time>
</trkpt>
<trkpt lat="31.7975000" lon="35.2306900">
<ele>781.449951</ele>
<time>2021-04-14T16:03:56.960Z</time>
</trkpt>
<trkpt lat="31.7975700" lon="35.2306300">
<ele>781.309998</ele>
<time>2021-04-14T16:03:56.960Z</time>
</trkpt>
<trkpt lat="31.7976100" lon="35.2306000">
<ele>781.269958</ele>
<time>2021-04-14T16:03:56.960Z</time>
</trkpt>
<trkpt lat="31.7976400" lon="35.2305800">
<ele>781.269958</ele>
<time>2021-04-14T16:03:56.960Z</time>
</trkpt>
<trkpt lat="31.7976800" lon="35.2305300">
<ele>781.239990</ele>
<time>2021-04-14T16:03:56.960Z</time>
</trkpt>
<trkpt lat="31.7977800" lon="35.2304000">
<ele>781.449951</ele>
<time>2021-04-14T16:03:56.960Z</time>
</trkpt>
<trkpt lat="31.7978600" lon="35.2302700">
<ele>781.619995</ele>
<time>2021-04-14T16:03:56.960Z</time>
</trkpt>
<trkpt lat="31.7979100" lon="35.2301800">
<ele>782.299988</ele>
<time>2021-04-14T16:03:56.960Z</time>
</trkpt>
<trkpt lat="31.7979400" lon="35.2300900">
<ele>782.840027</ele>
<time>2021-04-14T16:03:56.960Z</time>
</trkpt>
<trkpt lat="31.7979600" lon="35.2299800">
<ele>783.409973</ele>
<time>2021-04-14T16:03:56.960Z</time>
</trkpt>
<trkpt lat="31.7979700" lon="35.2298600">
<ele>783.970032</ele>
<time>2021-04-14T16:03:56.960Z</time>
</trkpt>
<trkpt lat="31.7980700" lon="35.2298500">
<ele>783.500000</ele>
<time>2021-04-14T16:03:56.960Z</time>
</trkpt>
<trkpt lat="31.7981300" lon="35.2298400">
<ele>783.609985</ele>
<time>2021-04-14T16:03:56.961Z</time>
</trkpt>
<trkpt lat="31.7981700" lon="35.2298500">
<ele>783.809998</ele>
<time>2021-04-14T16:03:56.961Z</time>
</trkpt>
<trkpt lat="31.7982000" lon="35.2298800">
<ele>784.229980</ele>
<time>2021-04-14T16:03:56.961Z</time>
</trkpt>
<trkpt lat="31.7982100" lon="35.2299200">
<ele>784.739990</ele>
<time>2021-04-14T16:03:56.961Z</time>
</trkpt>
<trkpt lat="31.7982100" lon="35.2299800">
<ele>785.440002</ele>
<time>2021-04-14T16:03:56.961Z</time>
</trkpt>
<trkpt lat="31.7982100" lon="35.2300300">
<ele>785.559998</ele>
<time>2021-04-14T16:03:56.961Z</time>
</trkpt>
<trkpt lat="31.7981400" lon="35.2301700">
<ele>784.300049</ele>
<time>2021-04-14T16:03:56.961Z</time>
</trkpt>
<trkpt lat="31.7980800" lon="35.2302900">
<ele>783.219971</ele>
<time>2021-04-14T16:03:56.961Z</time>
</trkpt>
<trkpt lat="31.7980600" lon="35.2303400">
<ele>782.820007</ele>
<time>2021-04-14T16:03:56.961Z</time>
</trkpt>
<trkpt lat="31.7980400" lon="35.2304000">
<ele>782.500061</ele>
<time>2021-04-14T16:03:56.961Z</time>
</trkpt>
<trkpt lat="31.7980300" lon="35.2304500">
<ele>782.309998</ele>
<time>2021-04-14T16:03:56.961Z</time>
</trkpt>
<trkpt lat="31.7980300" lon="35.2305500">
<ele>782.019958</ele>
<time>2021-04-14T16:03:56.961Z</time>
</trkpt>
<trkpt lat="31.7980300" lon="35.2306300">
<ele>782.320007</ele>
<time>2021-04-14T16:03:56.961Z</time>
</trkpt>
<trkpt lat="31.7980300" lon="35.2307100">
<ele>782.660034</ele>
<time>2021-04-14T16:03:56.961Z</time>
</trkpt>
<trkpt lat="31.7980500" lon="35.2308100">
<ele>782.950012</ele>
<time>2021-04-14T16:03:56.961Z</time>
</trkpt>
<trkpt lat="31.7981000" lon="35.2309100">
<ele>784.250000</ele>
<time>2021-04-14T16:03:56.961Z</time>
</trkpt>
<trkpt lat="31.7981500" lon="35.2309700">
<ele>784.980042</ele>
<time>2021-04-14T16:03:56.961Z</time>
</trkpt>
<trkpt lat="31.7981700" lon="35.2310000">
<ele>785.240051</ele>
<time>2021-04-14T16:03:56.961Z</time>
</trkpt>
<trkpt lat="31.7982900" lon="35.2311100">
<ele>785.309998</ele>
<time>2021-04-14T16:03:56.961Z</time>
</trkpt>
<trkpt lat="31.7983400" lon="35.2311600">
<ele>785.480042</ele>
<time>2021-04-14T16:03:56.961Z</time>
</trkpt>
<trkpt lat="31.7984900" lon="35.2313300">
<ele>786.239990</ele>
<time>2021-04-14T16:03:56.961Z</time>
</trkpt>
<trkpt lat="31.7985300" lon="35.2313600">
<ele>786.270020</ele>
<time>2021-04-14T16:03:56.961Z</time>
</trkpt>
<trkpt lat="31.7988300" lon="35.2316300">
<ele>786.109985</ele>
<time>2021-04-14T16:03:56.961Z</time>
</trkpt>
<trkpt lat="31.7989900" lon="35.2317700">
<ele>786.100037</ele>
<time>2021-04-14T16:03:56.961Z</time>
</trkpt>
<trkpt lat="31.7993700" lon="35.2320700">
<ele>781.590027</ele>
<time>2021-04-14T16:03:56.961Z</time>
</trkpt>
<trkpt lat="31.7994900" lon="35.2321600">
<ele>781.460022</ele>
<time>2021-04-14T16:03:56.961Z</time>
</trkpt>
<trkpt lat="31.7995500" lon="35.2322200">
<ele>781.609985</ele>
<time>2021-04-14T16:03:56.961Z</time>
</trkpt>
<trkpt lat="31.7995700" lon="35.2322400">
<ele>781.609985</ele>
<time>2021-04-14T16:03:56.961Z</time>
</trkpt>
<trkpt lat="31.7998100" lon="35.2324400">
<ele>785.729980</ele>
<time>2021-04-14T16:03:56.961Z</time>
</trkpt>
<trkpt lat="31.8003200" lon="35.2327400">
<ele>798.279968</ele>
<time>2021-04-14T16:03:56.961Z</time>
</trkpt>
<trkpt lat="31.8004900" lon="35.2328200">
<ele>800.250000</ele>
<time>2021-04-14T16:03:56.961Z</time>
</trkpt>
<trkpt lat="31.8006500" lon="35.2329000">
<ele>801.690002</ele>
<time>2021-04-14T16:03:56.962Z</time>
</trkpt>
<trkpt lat="31.8007300" lon="35.2329600">
<ele>802.840027</ele>
<time>2021-04-14T16:03:56.962Z</time>
</trkpt>
<trkpt lat="31.8010000" lon="35.2331900">
<ele>807.649963</ele>
<time>2021-04-14T16:03:56.962Z</time>
</trkpt>
<trkpt lat="31.8015100" lon="35.2335400">
<ele>816.740051</ele>
<time>2021-04-14T16:03:56.962Z</time>
</trkpt>
<trkpt lat="31.8015700" lon="35.2335800">
<ele>817.600037</ele>
<time>2021-04-14T16:03:56.962Z</time>
</trkpt>
<trkpt lat="31.8022000" lon="35.2339700">
<ele>819.079956</ele>
<time>2021-04-14T16:03:56.962Z</time>
</trkpt>
<trkpt lat="31.8024400" lon="35.2341200">
<ele>819.850037</ele>
<time>2021-04-14T16:03:56.962Z</time>
</trkpt>
<trkpt lat="31.8027300" lon="35.2342300">
<ele>823.799988</ele>
<time>2021-04-14T16:03:56.962Z</time>
</trkpt>
<trkpt lat="31.8031600" lon="35.2343100">
<ele>819.079956</ele>
<time>2021-04-14T16:03:56.962Z</time>
</trkpt>
<trkpt lat="31.8033900" lon="35.2343500">
<ele>813.010010</ele>
<time>2021-04-14T16:03:56.962Z</time>
</trkpt>
<trkpt lat="31.8034400" lon="35.2343100">
<ele>811.169983</ele>
<time>2021-04-14T16:03:56.962Z</time>
</trkpt>
<trkpt lat="31.8034900" lon="35.2343400">
<ele>810.059998</ele>
<time>2021-04-14T16:03:56.962Z</time>
</trkpt>
<trkpt lat="31.8035800" lon="35.2343700">
<ele>807.649963</ele>
<time>2021-04-14T16:03:56.962Z</time>
</trkpt>
<trkpt lat="31.8036900" lon="35.2343900">
<ele>805.100037</ele>
<time>2021-04-14T16:03:56.962Z</time>
</trkpt>
<trkpt lat="31.8037900" lon="35.2344000">
<ele>802.979980</ele>
<time>2021-04-14T16:03:56.962Z</time>
</trkpt>
<trkpt lat="31.8039100" lon="35.2344000">
<ele>800.330017</ele>
<time>2021-04-14T16:03:56.962Z</time>
</trkpt>
<trkpt lat="31.8040000" lon="35.2344000">
<ele>798.169983</ele>
<time>2021-04-14T16:03:56.962Z</time>
</trkpt>
<trkpt lat="31.8040500" lon="35.2343900">
<ele>796.969971</ele>
<time>2021-04-14T16:03:56.962Z</time>
</trkpt>
<trkpt lat="31.8041100" lon="35.2343600">
<ele>795.609985</ele>
<time>2021-04-14T16:03:56.962Z</time>
</trkpt>
<trkpt lat="31.8041500" lon="35.2343400">
<ele>794.750000</ele>
<time>2021-04-14T16:03:56.962Z</time>
</trkpt>
<trkpt lat="31.8042200" lon="35.2343300">
<ele>793.960022</ele>
<time>2021-04-14T16:03:56.962Z</time>
</trkpt>
<trkpt lat="31.8043000" lon="35.2343200">
<ele>793.390015</ele>
<time>2021-04-14T16:03:56.962Z</time>
</trkpt>
<trkpt lat="31.8044100" lon="35.2343000">
<ele>792.840027</ele>
<time>2021-04-14T16:03:56.962Z</time>
</trkpt>
<trkpt lat="31.8044700" lon="35.2342900">
<ele>792.809998</ele>
<time>2021-04-14T16:03:56.962Z</time>
</trkpt>
<trkpt lat="31.8045300" lon="35.2342600">
<ele>793.320007</ele>
<time>2021-04-14T16:03:56.962Z</time>
</trkpt>
<trkpt lat="31.8044800" lon="35.2342100">
<ele>794.150024</ele>
<time>2021-04-14T16:03:56.962Z</time>
</trkpt>
<trkpt lat="31.8045100" lon="35.2341200">
<ele>795.530029</ele>
<time>2021-04-14T16:03:56.962Z</time>
</trkpt>
<trkpt lat="31.8045700" lon="35.2339100">
<ele>797.590027</ele>
<time>2021-04-14T16:03:56.962Z</time>
</trkpt>
<trkpt lat="31.8046000" lon="35.2338400">
<ele>797.430054</ele>
<time>2021-04-14T16:03:56.962Z</time>
</trkpt>
<trkpt lat="31.8046400" lon="35.2337900">
<ele>796.780029</ele>
<time>2021-04-14T16:03:56.962Z</time>
</trkpt>
<trkpt lat="31.8046700" lon="35.2337600">
<ele>796.239990</ele>
<time>2021-04-14T16:03:56.962Z</time>
</trkpt>
<trkpt lat="31.8047100" lon="35.2337400">
<ele>795.380005</ele>
<time>2021-04-14T16:03:56.962Z</time>
</trkpt>
<trkpt lat="31.8046400" lon="35.2337000">
<ele>797.430054</ele>
<time>2021-04-14T16:03:56.963Z</time>
</trkpt>
<trkpt lat="31.8046200" lon="35.2336400">
<ele>798.369995</ele>
<time>2021-04-14T16:03:56.963Z</time>
</trkpt>
<trkpt lat="31.8046200" lon="35.2334800">
<ele>798.699951</ele>
<time>2021-04-14T16:03:56.963Z</time>
</trkpt>
<trkpt lat="31.8045700" lon="35.2332800">
<ele>799.360046</ele>
<time>2021-04-14T16:03:56.963Z</time>
</trkpt>
<trkpt lat="31.8045000" lon="35.2331000">
<ele>799.320007</ele>
<time>2021-04-14T16:03:56.963Z</time>
</trkpt>
<trkpt lat="31.8045000" lon="35.2328400">
<ele>795.739990</ele>
<time>2021-04-14T16:03:56.963Z</time>
</trkpt>
<trkpt lat="31.8045000" lon="35.2328000">
<ele>795.140015</ele>
<time>2021-04-14T16:03:56.963Z</time>
</trkpt>
<trkpt lat="31.8045800" lon="35.2327900">
<ele>793.269958</ele>
<time>2021-04-14T16:03:56.963Z</time>
</trkpt>
<trkpt lat="31.8047000" lon="35.2328000">
<ele>790.869995</ele>
<time>2021-04-14T16:03:56.963Z</time>
</trkpt>
<trkpt lat="31.8048100" lon="35.2327600">
<ele>787.109985</ele>
<time>2021-04-14T16:03:56.963Z</time>
</trkpt>
<trkpt lat="31.8048300" lon="35.2327000">
<ele>785.320007</ele>
<time>2021-04-14T16:03:56.963Z</time>
</trkpt>
<trkpt lat="31.8048200" lon="35.2326200">
<ele>783.979980</ele>
<time>2021-04-14T16:03:56.963Z</time>
</trkpt>
<trkpt lat="31.8048300" lon="35.2325600">
<ele>782.500061</ele>
<time>2021-04-14T16:03:56.963Z</time>
</trkpt>
<trkpt lat="31.8047000" lon="35.2323700">
<ele>783.320007</ele>
<time>2021-04-14T16:03:56.963Z</time>
</trkpt>
<trkpt lat="31.8047600" lon="35.2322500">
<ele>779.979980</ele>
<time>2021-04-14T16:03:56.963Z</time>
</trkpt>
<trkpt lat="31.8048800" lon="35.2322900">
<ele>776.469971</ele>
<time>2021-04-14T16:03:56.963Z</time>
</trkpt>
<trkpt lat="31.8051100" lon="35.2322500">
<ele>770.210022</ele>
<time>2021-04-14T16:03:56.963Z</time>
</trkpt>
<trkpt lat="31.8053800" lon="35.2322700">
<ele>768.670044</ele>
<time>2021-04-14T16:03:56.963Z</time>
</trkpt>
<trkpt lat="31.8054300" lon="35.2322700">
<ele>768.910034</ele>
<time>2021-04-14T16:03:56.963Z</time>
</trkpt>
<trkpt lat="31.8054600" lon="35.2322000">
<ele>768.549988</ele>
<time>2021-04-14T16:03:56.963Z</time>
</trkpt>
<trkpt lat="31.8054600" lon="35.2320800">
<ele>767.970032</ele>
<time>2021-04-14T16:03:56.963Z</time>
</trkpt>
<trkpt lat="31.8054200" lon="35.2320100">
<ele>767.380005</ele>
<time>2021-04-14T16:03:56.963Z</time>
</trkpt>
<trkpt lat="31.8053000" lon="35.2319900">
<ele>766.469971</ele>
<time>2021-04-14T16:03:56.963Z</time>
</trkpt>
<trkpt lat="31.8052400" lon="35.2319600">
<ele>766.649963</ele>
<time>2021-04-14T16:03:56.963Z</time>
</trkpt>
<trkpt lat="31.8052400" lon="35.2318800">
<ele>766.109985</ele>
<time>2021-04-14T16:03:56.963Z</time>
</trkpt>
<trkpt lat="31.8053500" lon="35.2317800">
<ele>765.179993</ele>
<time>2021-04-14T16:03:56.963Z</time>
</trkpt>
<trkpt lat="31.8053700" lon="35.2316600">
<ele>764.279968</ele>
<time>2021-04-14T16:03:56.963Z</time>
</trkpt>
<trkpt lat="31.8053700" lon="35.2316200">
<ele>763.940002</ele>
<time>2021-04-14T16:03:56.963Z</time>
</trkpt>
<trkpt lat="31.8051600" lon="35.2314400">
<ele>764.829956</ele>
<time>2021-04-14T16:03:56.963Z</time>
</trkpt>
<trkpt lat="31.8051400" lon="35.2313400">
<ele>764.799988</ele>
<time>2021-04-14T16:03:56.963Z</time>
</trkpt>
<trkpt lat="31.8051200" lon="35.2309800">
<ele>763.130005</ele>
<time>2021-04-14T16:03:56.963Z</time>
</trkpt>
<trkpt lat="31.8050500" lon="35.2300200">
<ele>751.810059</ele>
<time>2021-04-14T16:03:56.963Z</time>
</trkpt>
<trkpt lat="31.8050400" lon="35.2295700">
<ele>743.210022</ele>
<time>2021-04-14T16:03:56.964Z</time>
</trkpt>
<trkpt lat="31.8050400" lon="35.2292900">
<ele>740.109985</ele>
<time>2021-04-14T16:03:56.964Z</time>
</trkpt>
<trkpt lat="31.8050200" lon="35.2289100">
<ele>736.510010</ele>
<time>2021-04-14T16:03:56.964Z</time>
</trkpt>
<trkpt lat="31.8049700" lon="35.2284000">
<ele>732.510010</ele>
<time>2021-04-14T16:03:56.964Z</time>
</trkpt>
<trkpt lat="31.8047400" lon="35.2274400">
<ele>726.820007</ele>
<time>2021-04-14T16:03:56.964Z</time>
</trkpt>
<trkpt lat="31.8047000" lon="35.2271800">
<ele>724.459961</ele>
<time>2021-04-14T16:03:56.964Z</time>
</trkpt>
<trkpt lat="31.8046600" lon="35.2267400">
<ele>720.710022</ele>
<time>2021-04-14T16:03:56.964Z</time>
</trkpt>
<trkpt lat="31.8046400" lon="35.2266100">
<ele>720.110046</ele>
<time>2021-04-14T16:03:56.964Z</time>
</trkpt>
<trkpt lat="31.8045900" lon="35.2264700">
<ele>719.570007</ele>
<time>2021-04-14T16:03:56.964Z</time>
</trkpt>
<trkpt lat="31.8045400" lon="35.2263900">
<ele>719.029968</ele>
<time>2021-04-14T16:03:56.964Z</time>
</trkpt>
<trkpt lat="31.8042200" lon="35.2260200">
<ele>719.000000</ele>
<time>2021-04-14T16:03:56.964Z</time>
</trkpt>
<trkpt lat="31.8040600" lon="35.2257900">
<ele>717.750000</ele>
<time>2021-04-14T16:03:56.964Z</time>
</trkpt>
<trkpt lat="31.8040100" lon="35.2257100">
<ele>715.659973</ele>
<time>2021-04-14T16:03:56.964Z</time>
</trkpt>
<trkpt lat="31.8040000" lon="35.2255500">
<ele>711.910034</ele>
<time>2021-04-14T16:03:56.964Z</time>
</trkpt>
<trkpt lat="31.8039900" lon="35.2253600">
<ele>708.749939</ele>
<time>2021-04-14T16:03:56.964Z</time>
</trkpt>
<trkpt lat="31.8040000" lon="35.2251200">
<ele>706.579956</ele>
<time>2021-04-14T16:03:56.964Z</time>
</trkpt>
<trkpt lat="31.8042100" lon="35.2241000">
<ele>702.789978</ele>
<time>2021-04-14T16:03:56.964Z</time>
</trkpt>
<trkpt lat="31.8045400" lon="35.2231900">
<ele>694.369995</ele>
<time>2021-04-14T16:03:56.964Z</time>
</trkpt>
<trkpt lat="31.8046000" lon="35.2229600">
<ele>694.460022</ele>
<time>2021-04-14T16:03:56.964Z</time>
</trkpt>
<trkpt lat="31.8046700" lon="35.2224800">
<ele>694.130005</ele>
<time>2021-04-14T16:03:56.964Z</time>
</trkpt>
<trkpt lat="31.8047000" lon="35.2223000">
<ele>693.360046</ele>
<time>2021-04-14T16:03:56.964Z</time>
</trkpt>
<trkpt lat="31.8047200" lon="35.2221000">
<ele>691.669983</ele>
<time>2021-04-14T16:03:56.964Z</time>
</trkpt>
<trkpt lat="31.8047800" lon="35.2216300">
<ele>690.839966</ele>
<time>2021-04-14T16:03:56.964Z</time>
</trkpt>
<trkpt lat="31.8048000" lon="35.2205100">
<ele>682.750000</ele>
<time>2021-04-14T16:03:56.964Z</time>
</trkpt>
<trkpt lat="31.8048000" lon="35.2200100">
<ele>680.719971</ele>
<time>2021-04-14T16:03:56.964Z</time>
</trkpt>
<trkpt lat="31.8048100" lon="35.2195900">
<ele>682.079956</ele>
<time>2021-04-14T16:03:56.964Z</time>
</trkpt>
<trkpt lat="31.8048200" lon="35.2192500">
<ele>680.809998</ele>
<time>2021-04-14T16:03:56.964Z</time>
</trkpt>
<trkpt lat="31.8048300" lon="35.2191100">
<ele>679.510010</ele>
<time>2021-04-14T16:03:56.964Z</time>
</trkpt>
<trkpt lat="31.8048900" lon="35.2189500">
<ele>677.970032</ele>
<time>2021-04-14T16:03:56.964Z</time>
</trkpt>
<trkpt lat="31.8051700" lon="35.2184400">
<ele>676.479980</ele>
<time>2021-04-14T16:03:56.964Z</time>
</trkpt>
<trkpt lat="31.8052000" lon="35.2183100">
<ele>675.380005</ele>
<time>2021-04-14T16:03:56.964Z</time>
</trkpt>
<trkpt lat="31.8052200" lon="35.2182500">
<ele>674.700012</ele>
<time>2021-04-14T16:03:56.965Z</time>
</trkpt>
<trkpt lat="31.8052600" lon="35.2179100">
<ele>670.290039</ele>
<time>2021-04-14T16:03:56.965Z</time>
</trkpt>
<trkpt lat="31.8052700" lon="35.2172300">
<ele>667.200012</ele>
<time>2021-04-14T16:03:56.965Z</time>
</trkpt>
<trkpt lat="31.8053100" lon="35.2169600">
<ele>667.739990</ele>
<time>2021-04-14T16:03:56.965Z</time>
</trkpt>
<trkpt lat="31.8053600" lon="35.2167500">
<ele>666.709961</ele>
<time>2021-04-14T16:03:56.965Z</time>
</trkpt>
<trkpt lat="31.8056200" lon="35.2160800">
<ele>663.209961</ele>
<time>2021-04-14T16:03:56.965Z</time>
</trkpt>
<trkpt lat="31.8057600" lon="35.2153900">
<ele>655.899963</ele>
<time>2021-04-14T16:03:56.965Z</time>
</trkpt>
<trkpt lat="31.8058200" lon="35.2151300">
<ele>653.869995</ele>
<time>2021-04-14T16:03:56.965Z</time>
</trkpt>
<trkpt lat="31.8058800" lon="35.2147000">
<ele>651.820007</ele>
<time>2021-04-14T16:03:56.965Z</time>
</trkpt>
<trkpt lat="31.8059600" lon="35.2144400">
<ele>650.799988</ele>
<time>2021-04-14T16:03:56.965Z</time>
</trkpt>
<trkpt lat="31.8060500" lon="35.2142100">
<ele>649.669983</ele>
<time>2021-04-14T16:03:56.965Z</time>
</trkpt>
<trkpt lat="31.8063700" lon="35.2136700">
<ele>650.820007</ele>
<time>2021-04-14T16:03:56.965Z</time>
</trkpt>
<trkpt lat="31.8064500" lon="35.2134500">
<ele>655.230042</ele>
<time>2021-04-14T16:03:56.965Z</time>
</trkpt>
<trkpt lat="31.8066700" lon="35.2124200">
<ele>648.940063</ele>
<time>2021-04-14T16:03:56.965Z</time>
</trkpt>
<trkpt lat="31.8068100" lon="35.2119000">
<ele>646.849976</ele>
<time>2021-04-14T16:03:56.965Z</time>
</trkpt>
<trkpt lat="31.8069000" lon="35.2110500">
<ele>648.049988</ele>
<time>2021-04-14T16:03:56.965Z</time>
</trkpt>
<trkpt lat="31.8069500" lon="35.2108700">
<ele>649.820007</ele>
<time>2021-04-14T16:03:56.965Z</time>
</trkpt>
<trkpt lat="31.8070000" lon="35.2107800">
<ele>650.839966</ele>
<time>2021-04-14T16:03:56.965Z</time>
</trkpt>
<trkpt lat="31.8070900" lon="35.2106700">
<ele>652.399963</ele>
<time>2021-04-14T16:03:56.965Z</time>
</trkpt>
<trkpt lat="31.8071800" lon="35.2105400">
<ele>654.309998</ele>
<time>2021-04-14T16:03:56.965Z</time>
</trkpt>
<trkpt lat="31.8071900" lon="35.2104600">
<ele>654.840027</ele>
<time>2021-04-14T16:03:56.965Z</time>
</trkpt>
<trkpt lat="31.8071900" lon="35.2101900">
<ele>656.000000</ele>
<time>2021-04-14T16:03:56.965Z</time>
</trkpt>
<trkpt lat="31.8071700" lon="35.2099600">
<ele>656.650024</ele>
<time>2021-04-14T16:03:56.965Z</time>
</trkpt>
<trkpt lat="31.8070800" lon="35.2097700">
<ele>656.399963</ele>
<time>2021-04-14T16:03:56.965Z</time>
</trkpt>
<trkpt lat="31.8068400" lon="35.2094500">
<ele>656.809998</ele>
<time>2021-04-14T16:03:56.965Z</time>
</trkpt>
<trkpt lat="31.8067800" lon="35.2092800">
<ele>658.219971</ele>
<time>2021-04-14T16:03:56.965Z</time>
</trkpt>
<trkpt lat="31.8067500" lon="35.2090500">
<ele>660.460022</ele>
<time>2021-04-14T16:03:56.965Z</time>
</trkpt>
<trkpt lat="31.8067700" lon="35.2089100">
<ele>661.030029</ele>
<time>2021-04-14T16:03:56.965Z</time>
</trkpt>
<trkpt lat="31.8067800" lon="35.2088400">
<ele>661.140015</ele>
<time>2021-04-14T16:03:56.965Z</time>
</trkpt>
<trkpt lat="31.8068000" lon="35.2087200">
<ele>661.210022</ele>
<time>2021-04-14T16:03:56.965Z</time>
</trkpt>
<trkpt lat="31.8068300" lon="35.2086600">
<ele>660.880005</ele>
<time>2021-04-14T16:03:56.965Z</time>
</trkpt>
<trkpt lat="31.8068900" lon="35.2085800">
<ele>660.179993</ele>
<time>2021-04-14T16:03:56.965Z</time>
</trkpt>
<trkpt lat="31.8070200" lon="35.2085900">
<ele>657.020020</ele>
<time>2021-04-14T16:03:56.966Z</time>
</trkpt>
<trkpt lat="31.8071200" lon="35.2087100">
<ele>654.039978</ele>
<time>2021-04-14T16:03:56.966Z</time>
</trkpt>
<trkpt lat="31.8072600" lon="35.2087400">
<ele>650.779968</ele>
<time>2021-04-14T16:03:56.966Z</time>
</trkpt>
<trkpt lat="31.8073600" lon="35.2087400">
<ele>648.979980</ele>
<time>2021-04-14T16:03:56.966Z</time>
</trkpt>
<trkpt lat="31.8075200" lon="35.2087200">
<ele>646.650024</ele>
<time>2021-04-14T16:03:56.966Z</time>
</trkpt>
<trkpt lat="31.8076000" lon="35.2086500">
<ele>647.529968</ele>
<time>2021-04-14T16:03:56.966Z</time>
</trkpt>
<trkpt lat="31.8076700" lon="35.2085400">
<ele>648.649963</ele>
<time>2021-04-14T16:03:56.966Z</time>
</trkpt>
<trkpt lat="31.8077000" lon="35.2084600">
<ele>649.179993</ele>
<time>2021-04-14T16:03:56.966Z</time>
</trkpt>
<trkpt lat="31.8077200" lon="35.2081400">
<ele>650.709961</ele>
<time>2021-04-14T16:03:56.966Z</time>
</trkpt>
<trkpt lat="31.8078000" lon="35.2075000">
<ele>649.360046</ele>
<time>2021-04-14T16:03:56.966Z</time>
</trkpt>
<trkpt lat="31.8078000" lon="35.2071200">
<ele>642.349976</ele>
<time>2021-04-14T16:03:56.966Z</time>
</trkpt>
<trkpt lat="31.8078000" lon="35.2068100">
<ele>636.940002</ele>
<time>2021-04-14T16:03:56.966Z</time>
</trkpt>
<trkpt lat="31.8077400" lon="35.2063700">
<ele>632.750000</ele>
<time>2021-04-14T16:03:56.966Z</time>
</trkpt>
<trkpt lat="31.8076500" lon="35.2061800">
<ele>631.729980</ele>
<time>2021-04-14T16:03:56.966Z</time>
</trkpt>
<trkpt lat="31.8075800" lon="35.2061000">
<ele>631.670044</ele>
<time>2021-04-14T16:03:56.966Z</time>
</trkpt>
<trkpt lat="31.8075100" lon="35.2060200">
<ele>631.640015</ele>
<time>2021-04-14T16:03:56.966Z</time>
</trkpt>
<trkpt lat="31.8074200" lon="35.2059500">
<ele>632.359985</ele>
<time>2021-04-14T16:03:56.966Z</time>
</trkpt>
<trkpt lat="31.8067000" lon="35.2056200">
<ele>641.510010</ele>
<time>2021-04-14T16:03:56.966Z</time>
</trkpt>
<trkpt lat="31.8065800" lon="35.2055500">
<ele>641.729980</ele>
<time>2021-04-14T16:03:56.966Z</time>
</trkpt>
<trkpt lat="31.8064600" lon="35.2054600">
<ele>641.799988</ele>
<time>2021-04-14T16:03:56.966Z</time>
</trkpt>
<trkpt lat="31.8063000" lon="35.2051900">
<ele>638.669983</ele>
<time>2021-04-14T16:03:56.966Z</time>
</trkpt>
<trkpt lat="31.8062700" lon="35.2049400">
<ele>636.039978</ele>
<time>2021-04-14T16:03:56.966Z</time>
</trkpt>
<trkpt lat="31.8062700" lon="35.2048400">
<ele>635.629944</ele>
<time>2021-04-14T16:03:56.966Z</time>
</trkpt>
<trkpt lat="31.8062700" lon="35.2043300">
<ele>631.109985</ele>
<time>2021-04-14T16:03:56.966Z</time>
</trkpt>
<trkpt lat="31.8062700" lon="35.2042600">
<ele>630.390015</ele>
<time>2021-04-14T16:03:56.966Z</time>
</trkpt>
<trkpt lat="31.8063100" lon="35.2041900">
<ele>629.500061</ele>
<time>2021-04-14T16:03:56.966Z</time>
</trkpt>
<trkpt lat="31.8063900" lon="35.2041000">
<ele>628.020020</ele>
<time>2021-04-14T16:03:56.966Z</time>
</trkpt>
<trkpt lat="31.8064100" lon="35.2038800">
<ele>624.580017</ele>
<time>2021-04-14T16:03:56.966Z</time>
</trkpt>
<trkpt lat="31.8064400" lon="35.2037100">
<ele>622.039978</ele>
<time>2021-04-14T16:03:56.967Z</time>
</trkpt>
<trkpt lat="31.8064400" lon="35.2036500">
<ele>621.299988</ele>
<time>2021-04-14T16:03:56.967Z</time>
</trkpt>
<trkpt lat="31.8062700" lon="35.2035600">
<ele>622.109985</ele>
<time>2021-04-14T16:03:56.967Z</time>
</trkpt>
<trkpt lat="31.8062500" lon="35.2034900">
<ele>621.470032</ele>
<time>2021-04-14T16:03:56.967Z</time>
</trkpt>
<trkpt lat="31.8062400" lon="35.2032300">
<ele>618.940002</ele>
<time>2021-04-14T16:03:56.967Z</time>
</trkpt>
<trkpt lat="31.8062700" lon="35.2031900">
<ele>618.770020</ele>
<time>2021-04-14T16:03:56.967Z</time>
</trkpt>
<trkpt lat="31.8063100" lon="35.2031900">
<ele>618.839966</ele>
<time>2021-04-14T16:03:56.967Z</time>
</trkpt>
<trkpt lat="31.8063400" lon="35.2031800">
<ele>618.880005</ele>
<time>2021-04-14T16:03:56.967Z</time>
</trkpt>
<trkpt lat="31.8063700" lon="35.2031700">
<ele>618.950012</ele>
<time>2021-04-14T16:03:56.967Z</time>
</trkpt>
<trkpt lat="31.8064300" lon="35.2030900">
<ele>619.130005</ele>
<time>2021-04-14T16:03:56.967Z</time>
</trkpt>
<trkpt lat="31.8064600" lon="35.2029700">
<ele>619.109985</ele>
<time>2021-04-14T16:03:56.967Z</time>
</trkpt>
<trkpt lat="31.8064800" lon="35.2027600">
<ele>618.959961</ele>
<time>2021-04-14T16:03:56.967Z</time>
</trkpt>
<trkpt lat="31.8064800" lon="35.2025500">
<ele>618.700012</ele>
<time>2021-04-14T16:03:56.967Z</time>
</trkpt>
<trkpt lat="31.8064200" lon="35.2022100">
<ele>619.690002</ele>
<time>2021-04-14T16:03:56.967Z</time>
</trkpt>
<trkpt lat="31.8063100" lon="35.2018900">
<ele>620.920044</ele>
<time>2021-04-14T16:03:56.967Z</time>
</trkpt>
<trkpt lat="31.8062300" lon="35.2017200">
<ele>620.289978</ele>
<time>2021-04-14T16:03:56.967Z</time>
</trkpt>
<trkpt lat="31.8061200" lon="35.2015200">
<ele>619.760010</ele>
<time>2021-04-14T16:03:56.967Z</time>
</trkpt>
<trkpt lat="31.8056900" lon="35.2009100">
<ele>622.489990</ele>
<time>2021-04-14T16:03:56.967Z</time>
</trkpt>
<trkpt lat="31.8052700" lon="35.2004300">
<ele>624.369995</ele>
<time>2021-04-14T16:03:56.967Z</time>
</trkpt>
<trkpt lat="31.8048300" lon="35.2000600">
<ele>625.599976</ele>
<time>2021-04-14T16:03:56.967Z</time>
</trkpt>
<trkpt lat="31.8043300" lon="35.1996900">
<ele>620.890015</ele>
<time>2021-04-14T16:03:56.967Z</time>
</trkpt>
<trkpt lat="31.8039700" lon="35.1995000">
<ele>620.179993</ele>
<time>2021-04-14T16:03:56.967Z</time>
</trkpt>
<trkpt lat="31.8037100" lon="35.1993200">
<ele>620.500000</ele>
<time>2021-04-14T16:03:56.967Z</time>
</trkpt>
<trkpt lat="31.8032400" lon="35.1989900">
<ele>622.349976</ele>
<time>2021-04-14T16:03:56.967Z</time>
</trkpt>
<trkpt lat="31.8029800" lon="35.1988300">
<ele>621.340027</ele>
<time>2021-04-14T16:03:56.967Z</time>
</trkpt>
<trkpt lat="31.8026700" lon="35.1987400">
<ele>618.119995</ele>
<time>2021-04-14T16:03:56.967Z</time>
</trkpt>
<trkpt lat="31.8022500" lon="35.1987000">
<ele>615.239990</ele>
<time>2021-04-14T16:03:56.967Z</time>
</trkpt>
<trkpt lat="31.8021100" lon="35.1986800">
<ele>616.059998</ele>
<time>2021-04-14T16:03:56.967Z</time>
</trkpt>
<trkpt lat="31.8020200" lon="35.1986500">
<ele>616.720032</ele>
<time>2021-04-14T16:03:56.967Z</time>
</trkpt>
<trkpt lat="31.8012600" lon="35.1981000">
<ele>625.570007</ele>
<time>2021-04-14T16:03:56.967Z</time>
</trkpt>
<trkpt lat="31.8010900" lon="35.1980300">
<ele>624.000000</ele>
<time>2021-04-14T16:03:56.968Z</time>
</trkpt>
<trkpt lat="31.8009900" lon="35.1979500">
<ele>623.059998</ele>
<time>2021-04-14T16:03:56.968Z</time>
</trkpt>
<trkpt lat="31.8008700" lon="35.1978100">
<ele>620.200012</ele>
<time>2021-04-14T16:03:56.968Z</time>
</trkpt>
<trkpt lat="31.8007900" lon="35.1976500">
<ele>619.000000</ele>
<time>2021-04-14T16:03:56.968Z</time>
</trkpt>
<trkpt lat="31.8007400" lon="35.1975600">
<ele>619.000000</ele>
<time>2021-04-14T16:03:56.968Z</time>
</trkpt>
<trkpt lat="31.8003700" lon="35.1970100">
<ele>618.429993</ele>
<time>2021-04-14T16:03:56.968Z</time>
</trkpt>
<trkpt lat="31.8001600" lon="35.1966800">
<ele>617.029968</ele>
<time>2021-04-14T16:03:56.968Z</time>
</trkpt>
<trkpt lat="31.7998900" lon="35.1963000">
<ele>615.849976</ele>
<time>2021-04-14T16:03:56.968Z</time>
</trkpt>
<trkpt lat="31.7995600" lon="35.1957500">
<ele>614.070007</ele>
<time>2021-04-14T16:03:56.968Z</time>
</trkpt>
<trkpt lat="31.7993100" lon="35.1953900">
<ele>612.969971</ele>
<time>2021-04-14T16:03:56.968Z</time>
</trkpt>
<trkpt lat="31.7991400" lon="35.1952600">
<ele>613.840027</ele>
<time>2021-04-14T16:03:56.968Z</time>
</trkpt>
<trkpt lat="31.7990800" lon="35.1951400">
<ele>613.190002</ele>
<time>2021-04-14T16:03:56.968Z</time>
</trkpt>
<trkpt lat="31.7989500" lon="35.1948100">
<ele>610.470032</ele>
<time>2021-04-14T16:03:56.968Z</time>
</trkpt>
<trkpt lat="31.7988300" lon="35.1943200">
<ele>605.659973</ele>
<time>2021-04-14T16:03:56.968Z</time>
</trkpt>
<trkpt lat="31.7988100" lon="35.1940700">
<ele>603.799988</ele>
<time>2021-04-14T16:03:56.968Z</time>
</trkpt>
<trkpt lat="31.7988000" lon="35.1939900">
<ele>603.589966</ele>
<time>2021-04-14T16:03:56.968Z</time>
</trkpt>
<trkpt lat="31.7988000" lon="35.1937500">
<ele>604.019958</ele>
<time>2021-04-14T16:03:56.968Z</time>
</trkpt>
<trkpt lat="31.7988000" lon="35.1934500">
<ele>605.070007</ele>
<time>2021-04-14T16:03:56.968Z</time>
</trkpt>
<trkpt lat="31.7988800" lon="35.1928400">
<ele>605.070007</ele>
<time>2021-04-14T16:03:56.968Z</time>
</trkpt>
<trkpt lat="31.7989000" lon="35.1920100">
<ele>609.510010</ele>
<time>2021-04-14T16:03:56.968Z</time>
</trkpt>
<trkpt lat="31.7989900" lon="35.1917900">
<ele>611.619995</ele>
<time>2021-04-14T16:03:56.968Z</time>
</trkpt>
<trkpt lat="31.7990400" lon="35.1913600">
<ele>607.619995</ele>
<time>2021-04-14T16:03:56.968Z</time>
</trkpt>
<trkpt lat="31.7990700" lon="35.1912900">
<ele>606.760010</ele>
<time>2021-04-14T16:03:56.968Z</time>
</trkpt>
<trkpt lat="31.7991500" lon="35.1911600">
<ele>605.529968</ele>
<time>2021-04-14T16:03:56.968Z</time>
</trkpt>
<trkpt lat="31.7993600" lon="35.1910300">
<ele>603.739990</ele>
<time>2021-04-14T16:03:56.968Z</time>
</trkpt>
<trkpt lat="31.7995100" lon="35.1909900">
<ele>603.390015</ele>
<time>2021-04-14T16:03:56.968Z</time>
</trkpt>
<trkpt lat="31.7995800" lon="35.1909400">
<ele>602.720032</ele>
<time>2021-04-14T16:03:56.968Z</time>
</trkpt>
<trkpt lat="31.7998700" lon="35.1909100">
<ele>603.059998</ele>
<time>2021-04-14T16:03:56.968Z</time>
</trkpt>
<trkpt lat="31.8003700" lon="35.1908900">
<ele>602.500000</ele>
<time>2021-04-14T16:03:56.968Z</time>
</trkpt>
<trkpt lat="31.8004600" lon="35.1908800">
<ele>602.290039</ele>
<time>2021-04-14T16:03:56.969Z</time>
</trkpt>
<trkpt lat="31.8006400" lon="35.1908200">
<ele>602.250000</ele>
<time>2021-04-14T16:03:56.969Z</time>
</trkpt>
<trkpt lat="31.8008700" lon="35.1906700">
<ele>602.619995</ele>
<time>2021-04-14T16:03:56.969Z</time>
</trkpt>
<trkpt lat="31.8009900" lon="35.1905100">
<ele>601.609985</ele>
<time>2021-04-14T16:03:56.969Z</time>
</trkpt>
<trkpt lat="31.8010500" lon="35.1904000">
<ele>600.690002</ele>
<time>2021-04-14T16:03:56.969Z</time>
</trkpt>
<trkpt lat="31.8011500" lon="35.1901100">
<ele>597.720032</ele>
<time>2021-04-14T16:03:56.969Z</time>
</trkpt>
<trkpt lat="31.8011600" lon="35.1900700">
<ele>597.369995</ele>
<time>2021-04-14T16:03:56.969Z</time>
</trkpt>
<trkpt lat="31.8009000" lon="35.1899500">
<ele>594.119995</ele>
<time>2021-04-14T16:03:56.969Z</time>
</trkpt>
<trkpt lat="31.8008000" lon="35.1899100">
<ele>593.309998</ele>
<time>2021-04-14T16:03:56.969Z</time>
</trkpt>
</trkseg>
</trk>
</gpx>
